[[{"header":{"parameterUnit":"m.s-1","parameterCategory":1,"la1":30.6,"la2":28.766,"lo1":-90.7593,"lo2":-88.6598,"dy":0.0162,"dx":0.0183,"nx":116,"ny":114,"refTime":"2023-04-16T06:00:00:Z","depth":0,"parameterNumber":2,"parameterNumberName":"U-component_of_WINDS"},"data":[0.0,0.0,0.0,0.0,0.0,0.0,0.0,0.0,0.0,0.0,0.0,0.0,0.0,0.0,0.0,0.0,0.0,0.0,0.0,0.0,0.0,0.0,0.0,0.0,0.0,0.0,0.0,0.0,0.0,0.0,0.0,0.0,0.0,0.0,0.0,0.0,0.0,0.0,0.0,0.0,0.0,0.0,0.0,0.0,0.0,0.0,0.0,0.0,0.0,0.0,0.0,0.0,0.0,0.0,0.0,0.0,0.0,0.0,0.0,0.0,0.0,0.0,0.0,0.0,0.0,0.0,0.0,0.0,0.0,0.0,0.0,0.0,0.0,0.0,0.0,0.0,0.0,0.0,0.0,0.0,0.0,0.0,0.0,0.0,0.0,0.0,0.0,0.0,0.0,0.0,0.0,0.0,0.0,0.0,0.0,0.0,0.0,0.0,0.0,0.0,0.0,0.0,0.0,0.0,0.0,0.0,0.0,0.0,0.0,0.0,0.0,0.0,0.0,0.0,0.0,0.0,0.0,0.0,0.0,0.0,0.0,0.0,0.0,0.0,0.0,0.0,0.0,0.0,0.0,0.0,0.0,0.0,0.0,0.0,0.0,0.0,0.0,0.0,0.0,0.0,0.0,0.0,0.0,0.0,0.0,0.0,0.0,0.0,0.0,0.0,0.0,0.0,0.0,0.0,0.0,0.0,0.0,0.0,0.0,0.0,0.0,0.0,0.0,0.0,0.0,0.0,0.0,0.0,0.0,0.0,0.0,0.0,0.0,0.0,0.0,0.0,0.0,0.0,0.0,0.0,0.0,0.0,0.0,0.0,0.0,0.0,0.0,0.0,0.0,0.0,0.0,0.0,0.0,0.0,0.0,0.0,0.0,0.0,0.0,0.0,0.0,0.0,0.0,0.0,0.0,0.0,0.0,0.0,0.0,0.0,0.0,0.0,0.0,0.0,0.0,0.0,0.0,0.0,0.0,0.0,0.0,0.0,0.0,0.0,0.0,0.0,0.0,0.0,0.0,0.0,0.0,0.0,0.0,0.0,0.0,0.0,0.0,0.0,0.0,0.0,0.0,0.0,0.0,0.0,0.0,0.0,0.0,0.0,0.0,0.0,0.0,0.0,0.0,0.0,0.0,0.0,0.0,0.0,0.0,0.0,0.0,0.0,0.0,0.0,0.0,0.0,0.0,0.0,0.0,0.0,0.0,0.0,0.0,0.0,0.0,0.0,0.0,0.0,0.0,0.0,0.0,0.0,0.0,0.0,0.0,0.0,0.0,0.0,0.0,0.0,0.0,0.0,0.0,0.0,0.0,0.0,0.0,0.0,0.0,0.0,0.0,0.0,0.0,0.0,0.0,0.0,0.0,0.0,0.0,0.0,0.0,0.0,0.0,0.0,0.0,0.0,0.0,0.0,0.0,0.0,0.0,0.0,0.0,0.0,0.0,0.0,0.0,0.0,0.0,0.0,0.0,0.0,0.0,0.0,0.0,0.0,0.0,0.0,0.0,0.0,0.0,0.0,0.0,0.0,0.0,0.0,0.0,0.0,0.0,0.0,0.0,0.0,0.0,0.0,0.0,0.0,0.0,0.0,0.0,0.0,0.0,0.0,0.0,0.0,0.0,0.0,0.0,0.0,0.0,0.0,0.0,0.0,0.0,0.0,0.0,0.0,0.0,0.0,0.0,0.0,0.0,0.0,0.0,0.0,0.0,0.0,0.0,0.0,0.0,0.0,0.0,0.0,0.0,0.0,0.0,0.0,0.0,0.0,0.0,0.0,0.0,0.0,0.0,0.0,0.0,0.0,0.0,0.0,0.0,0.0,0.0,0.0,0.0,0.0,0.0,0.0,0.0,0.0,0.0,0.0,0.0,0.0,0.0,0.0,0.0,0.0,0.0,0.0,0.0,0.0,0.0,0.0,0.0,0.0,0.0,0.0,0.0,0.0,0.0,0.0,0.0,0.0,0.0,0.0,0.0,0.0,0.0,0.0,0.0,0.0,0.0,0.0,0.0,0.0,0.0,0.0,0.0,0.0,0.0,0.0,0.0,0.0,0.0,0.0,0.0,0.0,0.0,0.0,0.0,0.0,0.0,0.0,0.0,0.0,0.0,0.0,0.0,0.0,0.0,0.0,0.0,0.0,0.0,0.0,0.0,0.0,0.0,0.0,0.0,0.0,0.0,0.0,0.0,0.0,0.0,0.0,0.0,0.0,0.0,0.0,0.0,0.0,0.0,0.0,0.0,0.0,0.0,0.0,0.0,0.0,0.0,0.0,0.0,0.0,0.0,0.0,0.0,0.0,0.0,0.0,0.0,0.0,0.0,0.0,0.0,0.0,0.0,0.0,0.0,0.0,0.0,0.0,0.0,0.0,0.0,0.0,0.0,0.0,0.0,0.0,0.0,0.0,0.0,0.0,0.0,0.0,0.0,0.0,0.0,0.0,0.0,0.0,0.0,0.0,0.0,0.0,0.0,0.0,0.0,0.0,0.0,0.0,0.0,0.0,0.0,0.0,0.0,0.0,0.0,0.0,0.0,0.0,0.0,0.0,0.0,0.0,0.0,0.0,0.0,0.0,0.0,0.0,0.0,0.0,0.0,0.0,0.0,0.0,0.0,0.0,0.0,0.0,0.0,0.0,0.0,0.0,0.0,0.0,0.0,0.0,0.0,0.0,0.0,0.0,0.0,0.0,0.0,0.0,0.0,0.0,0.0,0.0,0.0,0.0,0.0,0.0,0.0,0.0,0.0,0.0,0.0,0.0,0.0,0.0,0.0,0.0,0.0,0.0,0.0,0.0,0.0,0.0,0.0,0.0,0.0,0.0,0.0,0.0,0.0,0.0,0.0,0.0,0.0,0.0,0.0,0.0,0.0,0.0,0.0,0.0,0.0,0.0,0.0,0.0,0.0,0.0,0.0,0.0,0.0,0.0,0.0,0.0,0.0,0.0,0.0,0.0,0.0,0.0,0.0,0.0,0.0,0.0,0.0,0.0,0.0,0.0,0.0,0.0,0.0,0.0,0.0,0.0,0.0,0.0,0.0,0.0,0.0,0.0,0.0,0.0,0.0,0.0,0.0,0.0,0.0,0.0,0.0,0.0,0.0,0.0,0.0,0.0,0.0,0.0,0.0,0.0,0.0,0.0,0.0,0.0,0.0,0.0,0.0,0.0,0.0,0.0,0.0,0.0,0.0,0.0,0.0,0.0,0.0,0.0,0.0,0.0,0.0,0.0,0.0,0.0,0.0,0.0,0.0,0.0,0.0,0.0,0.0,0.0,0.0,0.0,0.0,0.0,0.0,0.0,0.0,0.0,0.0,0.0,0.0,0.0,0.0,0.0,0.0,0.0,0.0,0.0,0.0,0.0,0.0,0.0,0.0,0.0,0.0,0.0,0.0,0.0,0.0,0.0,0.0,0.0,0.0,0.0,0.0,0.0,0.0,0.0,0.0,0.0,0.0,0.0,0.0,0.0,0.0,0.0,0.0,0.0,0.0,0.0,0.0,0.0,0.0,0.0,0.0,0.0,0.0,0.0,0.0,0.0,0.0,0.0,0.0,0.0,0.0,0.0,0.0,0.0,0.0,0.0,0.0,0.0,0.0,0.0,0.0,0.0,0.0,0.0,0.0,0.0,0.0,0.0,0.0,0.0,0.0,0.0,0.0,0.0,0.0,0.0,0.0,0.0,0.0,0.0,0.0,0.0,0.0,0.0,0.0,0.0,0.0,0.0,0.0,0.0,0.0,0.0,0.0,0.0,0.0,0.0,0.0,0.0,0.0,0.0,0.0,0.0,0.0,0.0,0.0,0.0,0.0,0.0,0.0,0.0,0.0,0.0,0.0,0.0,0.0,0.0,0.0,0.0,0.0,0.0,0.0,0.0,0.0,0.0,0.0,0.0,0.0,0.0,0.0,0.0,0.0,0.0,0.0,0.0,0.0,0.0,0.0,0.0,0.0,0.0,0.0,0.0,0.0,0.0,0.0,0.0,0.0,0.0,0.0,0.0,0.0,0.0,0.0,0.0,0.0,0.0,0.0,0.0,0.0,0.0,0.0,0.0,0.0,0.0,0.0,0.0,0.0,0.0,0.0,0.0,0.0,0.0,0.0,0.0,0.0,0.0,0.0,0.0,0.0,0.0,0.0,0.0,0.0,0.0,0.0,0.0,0.0,0.0,0.0,0.0,0.0,0.0,0.0,0.0,0.0,0.0,0.0,0.0,0.0,0.0,0.0,0.0,0.0,0.0,0.0,0.0,0.0,0.0,0.0,0.0,0.0,0.0,0.0,0.0,0.0,0.0,0.0,0.0,0.0,0.0,0.0,0.0,0.0,0.0,0.0,0.0,0.0,0.0,0.0,0.0,0.0,0.0,0.0,0.0,0.0,0.0,0.0,0.0,0.0,0.0,0.0,0.0,0.0,0.0,0.0,0.0,0.0,0.0,0.0,0.0,0.0,0.0,0.0,0.0,0.0,0.0,0.0,0.0,0.0,0.0,0.0,0.0,0.0,0.0,0.0,0.0,0.0,0.0,0.0,0.0,0.0,0.0,0.0,0.0,0.0,0.0,0.0,0.0,0.0,0.0,0.0,0.0,0.0,0.0,0.0,0.0,0.0,0.0,0.0,0.0,0.0,0.0,0.0,0.0,0.0,0.0,0.0,0.0,0.0,0.0,0.0,0.0,0.0,0.0,0.0,0.0,0.0,0.0,0.0,0.0,0.0,0.0,0.0,0.0,0.0,0.0,0.0,0.0,0.0,0.0,0.0,0.0,0.0,0.0,0.0,0.0,0.0,0.0,0.0,0.0,0.0,0.0,0.0,0.0,0.0,0.0,0.0,0.0,0.0,0.0,0.0,0.0,0.0,0.0,0.0,0.0,0.0,0.0,0.0,0.0,0.0,0.0,0.0,0.0,0.0,0.0,0.0,0.0,0.0,0.0,0.0,0.0,0.0,0.0,0.0,0.0,0.0,0.0,0.0,0.0,0.0,0.0,0.0,0.0,0.0,0.0,0.0,0.0,0.0,0.0,0.0,0.0,0.0,0.0,0.0,0.0,0.0,0.0,0.0,0.0,0.0,0.0,0.0,0.0,0.0,0.0,0.0,0.0,0.0,0.0,0.0,0.0,0.0,0.0,0.0,0.0,0.0,0.0,0.0,0.0,0.0,0.0,0.0,0.0,0.0,0.0,0.0,0.0,0.0,0.0,0.0,0.0,0.0,0.0,0.0,0.0,0.0,0.0,0.0,0.0,0.0,0.0,0.0,0.0,0.0,0.0,0.0,0.0,0.0,0.0,0.0,0.0,0.0,0.0,0.0,0.0,0.0,0.0,0.0,0.0,0.0,0.0,0.0,0.0,0.0,0.0,0.0,0.0,0.0,0.0,0.0,0.0,0.0,0.0,0.0,0.0,0.0,0.0,0.0,0.0,0.0,0.0,0.0,0.0,0.0,0.0,0.0,0.0,0.0,0.0,0.0,0.0,0.0,0.0,0.0,0.0,0.0,0.0,0.0,0.0,0.0,0.0,0.0,0.0,0.0,0.0,0.0,0.0,0.0,0.0,0.0,0.0,0.0,0.0,0.0,0.0,0.0,0.0,0.0,0.0,0.0,0.0,0.0,0.0,0.0,0.0,0.0,0.0,0.0,0.0,0.0,0.0,0.0,0.0,0.0,0.0,0.0,0.0,0.0,0.0,0.0,0.0,0.0,0.0,0.0,0.0,0.0,0.0,0.0,0.0,0.0,0.0,0.0,0.0,0.0,0.0,0.0,0.0,0.0,0.0,0.0,0.0,0.0,0.0,0.0,0.0,0.0,0.0,0.0,0.0,0.0,0.0,0.0,0.0,0.0,0.0,0.0,0.0,0.0,0.0,0.0,0.0,0.0,0.0,0.0,0.0,0.0,0.0,0.0,0.0,0.0,0.0,0.0,0.0,0.0,0.0,0.0,0.0,0.0,0.0,0.0,0.0,0.0,0.0,0.0,0.0,0.0,0.0,0.0,0.0,0.0,0.0,0.0,0.0,0.0,0.0,0.0,0.0,0.0,0.0,0.0,0.0,0.0,0.0,0.0,0.0,0.0,0.0,0.0,0.0,0.0,0.0,0.0,0.0,0.0,0.0,0.0,0.0,-3.4899,0.0,0.0,0.0,0.0,0.0,0.0,0.0,0.0,0.0,0.0,0.0,0.0,0.0,0.0,0.0,0.0,0.0,0.0,0.0,0.0,0.0,0.0,0.0,0.0,0.0,0.0,0.0,0.0,0.0,0.0,0.0,0.0,0.0,0.0,0.0,0.0,0.0,0.0,1.9279,1.9272,1.8422,1.6823,1.5423,1.4454,1.3814,0.0,0.0,0.0,0.0,0.0,0.0,0.0,0.0,0.0,0.0,0.0,0.0,0.0,0.0,0.0,0.0,0.0,0.0,0.0,0.0,0.0,0.0,0.0,0.0,0.0,0.0,0.0,0.0,0.0,0.0,0.0,0.0,0.0,0.0,0.0,0.0,0.0,0.0,0.0,0.0,0.0,0.0,0.0,0.0,0.0,0.0,0.0,0.0,0.0,0.0,0.0,0.0,0.0,0.0,0.0,0.0,0.0,0.0,0.0,0.0,0.0,0.0,0.0,0.0,0.0,0.0,0.0,0.0,0.0,0.0,0.0,-3.4809,0.0,0.0,0.0,0.0,0.0,0.0,0.0,0.0,0.0,0.0,0.0,0.0,0.0,0.0,0.0,0.0,0.0,0.0,0.0,0.0,0.0,0.0,0.0,2.2232,2.2131,2.2443,2.2443,2.2443,0.0,0.0,0.0,0.0,0.0,0.0,2.0712,1.9791,1.9279,1.9279,1.8653,1.7147,1.4465,1.3103,1.2905,1.3774,1.189,0.0,0.0,0.0,0.0,0.0,0.0,0.0,0.0,0.0,0.0,0.0,0.0,0.0,0.0,0.0,0.0,0.0,0.0,0.0,0.0,0.0,0.0,0.0,0.0,0.0,0.0,0.0,0.0,0.0,0.0,0.0,0.0,0.0,0.0,0.0,0.0,0.0,0.0,0.0,0.0,0.0,0.0,0.0,0.0,0.0,0.0,0.0,0.0,0.0,0.0,0.0,0.0,0.0,0.0,0.0,0.0,0.0,0.0,0.0,0.0,0.0,0.0,0.0,-3.724,-3.6544,-3.6796,-3.7004,-3.7296,-3.7612,-3.6279,-3.6042,-3.6393,0.0,0.0,0.0,0.0,0.0,0.0,0.0,0.0,0.0,0.0,0.0,0.0,0.0,0.0,0.0,0.0,0.0,0.0,0.0,0.0,0.0,0.0,2.1522,2.1725,2.1827,2.1827,2.1827,2.1827,0.0,0.0,0.0,0.0,0.0,2.0181,1.9576,1.9175,1.8974,1.7364,1.5755,1.4137,1.3152,1.2696,1.2807,1.1509,1.0677,1.0123,0.0,0.0,0.0,0.0,0.0,0.0,0.0,0.0,0.0,0.0,0.0,0.0,0.0,0.0,0.0,0.0,0.0,0.0,0.0,0.0,0.0,0.0,0.0,0.0,0.0,0.0,0.0,0.0,0.0,0.0,0.0,0.0,0.0,0.0,0.0,0.0,0.0,0.0,0.0,0.0,0.0,-2.8154,-2.956,0.0,0.0,0.0,0.0,0.0,0.0,0.0,0.0,0.0,0.0,0.0,0.0,0.0,-3.2788,-3.2746,-3.3727,-3.4593,-3.5224,-3.6858,-3.7642,-3.77,-3.8785,-3.934,-3.9365,-3.9175,0.0,-3.7175,-3.6864,0.0,0.0,0.0,0.0,0.0,0.0,0.0,0.0,0.0,0.0,0.0,0.0,0.0,0.0,0.0,0.0,0.0,0.0,0.0,0.0,0.0,2.0806,2.0909,2.1216,2.1224,2.1224,2.1224,2.0704,0.0,0.0,0.0,1.933,2.0361,1.8387,1.714,1.6505,1.5001,1.3922,1.3171,1.2201,1.146,1.1102,1.0632,1.0288,0.9947,0.9194,0.0,0.0,0.0,0.0,0.0,0.0,0.0,0.0,0.0,0.0,0.0,0.0,0.0,0.0,0.0,0.0,0.0,0.0,0.0,0.0,0.0,0.0,0.0,0.0,0.0,0.0,0.0,0.0,0.0,0.0,0.0,0.0,0.0,0.0,0.0,0.0,0.0,0.0,0.0,-2.6262,-2.8029,-2.945,-3.0898,-3.1838,0.0,0.0,0.0,0.0,0.0,0.0,0.0,0.0,0.0,-3.3717,-3.3717,-3.4032,-3.4681,-3.5223,-3.5772,-3.6426,-3.7406,-3.8267,-3.8933,-3.9478,-3.9697,-3.9697,-3.9697,-3.934,-3.8588,-3.7939,-3.7247,-3.6379,0.0,0.0,0.0,0.0,-3.5531,-3.6637,0.0,0.0,0.0,0.0,0.0,0.0,0.0,0.0,0.0,0.0,0.0,0.0,1.9872,1.9768,1.9872,1.9968,2.0181,2.0285,2.0285,1.9872,1.9872,2.0189,1.8688,1.8307,1.9611,1.7021,1.5171,1.4143,1.3171,1.2446,1.2069,1.1168,1.044,0.9902,0.97,0.9523,0.9291,0.8548,0.7492,0.6151,0.0,0.0,0.0,0.0,0.0,0.0,0.0,0.0,0.0,0.0,0.0,0.0,0.0,0.0,0.0,0.0,0.0,0.0,0.0,0.0,0.0,0.0,0.0,0.0,0.0,0.0,0.0,0.0,0.0,0.0,0.0,0.0,0.0,0.0,0.0,0.0,0.0,-2.6399,-2.7966,-2.9605,-3.0889,-3.1797,0.0,0.0,0.0,0.0,0.0,0.0,-3.2373,-3.2612,-3.3058,-3.4043,-3.4043,-3.4469,-3.5322,-3.5322,-3.587,-3.7073,-3.7073,-3.7844,-3.9258,-3.9258,-3.9362,-3.9697,-3.9697,-3.9697,-3.9581,-3.8712,-3.8384,-3.8279,-3.7061,-3.6846,-3.7061,-3.6738,-3.7394,-3.8384,0.0,0.0,0.0,0.0,0.0,0.0,0.0,0.0,0.0,0.0,0.0,1.9242,1.7147,1.8094,1.8499,1.7752,1.8171,1.8492,1.8492,1.8513,1.8527,1.8527,1.7615,1.7118,1.713,1.5678,1.4249,1.2847,1.2526,1.1977,1.1068,1.0215,0.9909,0.994,0.9248,0.834,0.7487,0.6757,0.6274,0.5792,0.3571,0.0,0.0,0.0,0.0,0.0,0.0,0.0,0.0,0.0,0.0,0.0,0.0,0.0,0.0,0.0,0.0,0.0,0.0,0.0,0.0,0.0,0.0,0.0,0.0,0.0,0.0,0.0,0.0,0.0,0.0,0.0,0.0,0.0,0.0,0.0,0.0,0.0,0.0,-3.0619,-3.1279,0.0,0.0,0.0,0.0,-3.2248,-3.2248,-3.2373,-3.2612,-3.2727,-3.2727,-3.2841,-3.2841,-3.2841,-3.2841,-3.2841,-3.3491,-3.4692,-3.4692,-3.5893,-3.795,-3.795,-3.8607,-3.9697,-3.9697,-3.9697,-3.9697,-3.9581,-3.9594,-3.9478,-3.8267,-3.8489,-3.9374,-3.8279,-3.8594,-3.9594,0.0,0.0,0.0,0.0,0.0,0.0,0.0,0.0,2.0364,2.0063,1.9235,1.8401,1.7674,1.7667,1.7345,1.6493,1.6268,1.6262,1.6262,1.6162,1.6162,1.6162,1.5453,1.4608,1.3618,1.3724,1.3062,1.145,1.1466,1.1346,1.0976,1.0215,0.9658,0.9007,0.8294,0.7375,0.6403,0.6886,0.5902,0.3942,0.3569,0.2708,0.0,0.0,0.0,0.0,0.0,0.0,0.0,0.0,0.0,0.0,0.0,0.0,0.0,0.0,0.0,0.0,0.0,0.0,0.0,0.0,0.0,0.0,0.0,0.0,0.0,0.0,0.0,0.0,0.0,0.0,0.0,0.0,0.0,0.0,0.0,0.0,0.0,-2.9889,-3.0791,0.0,-3.1556,-3.1556,-3.1556,-3.1672,-3.1903,-3.2018,-3.2143,-3.2765,-3.3141,-3.3141,-3.343,-3.3926,-3.4718,-3.4718,-3.5283,-3.6511,-3.6511,-3.6961,-3.774,-3.8499,-3.9056,-3.9501,-4.0408,-4.0752,-4.0752,-4.0752,-4.0337,-3.9697,-3.9258,-3.9362,-3.9735,-3.9643,-3.9885,-4.0275,0.0,0.0,0.0,0.0,0.0,0.0,0.0,0.0,1.9635,1.965,1.8401,1.7463,1.714,1.6605,1.5968,1.512,1.468,1.4454,1.4454,1.4561,1.4663,1.4663,1.3926,1.2957,1.1526,1.2185,1.1975,1.0692,1.054,1.0541,1.0607,0.9476,0.8781,0.8113,0.7345,0.6276,0.5297,0.5902,0.504,0.3201,0.2707,0.1601,0.0247,0.0,0.0,0.0,0.0,0.0,0.0,0.0,0.0,0.0,0.0,0.0,0.0,0.0,0.0,0.0,0.0,0.0,0.0,0.0,0.0,0.0,0.0,0.0,0.0,0.0,0.0,0.0,0.0,0.0,0.0,0.0,0.0,0.0,0.0,0.0,-2.925,-3.0096,-3.1151,-3.18,-3.1898,-3.1771,-3.1653,-3.1771,-3.2006,-3.223,-3.2347,-3.3217,-3.3606,-3.3606,-3.3906,-3.4407,-3.5211,-3.5211,-3.5667,-3.6467,-3.6467,-3.6582,-3.7041,-3.8265,-3.9046,-3.9489,-4.0765,-4.1342,-4.1342,-4.1342,-4.0915,-4.0249,-4.0249,-4.0249,-4.0287,-4.0664,-4.0802,-4.0852,0.0,0.0,0.0,0.0,0.0,0.0,0.0,2.0166,1.922,1.8192,1.7252,1.6411,1.5666,1.5013,1.4261,1.3315,1.3192,1.3181,1.3181,1.3712,1.403,1.4035,1.3167,1.2069,1.0968,1.0964,1.0875,1.07,0.9864,0.9574,0.9733,0.7994,0.7273,0.7373,0.628,0.5172,0.3936,0.3813,0.3815,0.3568,0.0616,-0.037,-0.0247,0.0,0.0,0.0,0.0,0.0,0.0,0.0,0.0,0.0,0.0,0.0,0.0,0.0,0.0,0.0,0.0,0.0,0.0,0.0,0.0,0.0,0.0,0.0,0.0,0.0,0.0,0.0,0.0,0.0,0.0,0.0,0.0,0.0,-2.8469,-2.8868,-2.9823,-3.1552,-3.226,-3.2489,-3.2178,-3.2168,-3.228,-3.2623,-3.2864,-3.3225,-3.3585,-3.3963,-3.4082,-3.4082,-3.4103,-3.4113,-3.4113,-3.4113,-3.4113,-3.4113,-3.4113,-3.4686,-3.5943,-3.7189,-3.8424,-3.9537,-4.0814,-4.1392,-4.1392,-4.1392,-4.1392,-4.1392,-4.1354,-4.1342,-4.1342,-4.1354,-4.1379,-4.1392,0.0,0.0,0.0,0.0,0.0,0.0,0.0,2.0269,1.9435,1.9049,1.7681,1.6624,1.6411,1.4894,1.3604,1.2767,1.1891,1.145,1.145,1.1555,1.1731,1.1877,1.1466,1.1159,1.0964,1.0274,0.9798,0.9872,0.9118,0.8803,0.895,0.7878,0.7345,0.7373,0.5289,0.4185,0.3815,0.1846,0.1109,0.0985,0.0246,-0.0863,-0.1849,0.0,0.0,0.0,0.0,0.0,0.0,0.0,0.0,0.0,0.0,0.0,0.0,0.0,0.0,0.0,0.0,0.0,0.0,0.0,0.0,0.0,0.0,0.0,0.0,0.0,0.0,0.0,0.0,0.0,0.0,0.0,0.0,-2.8941,-2.9523,-3.0663,-3.1498,-3.1978,-3.2158,-3.2309,-3.2168,-3.2168,-3.2289,-3.228,-3.2754,-3.3105,-3.3225,-3.4142,-3.4569,-3.4569,-3.4879,-3.5055,-3.5055,-3.5055,-3.5055,-3.5055,-3.5055,-3.5634,-3.6915,-3.8218,-3.9499,-4.0655,-4.1942,-4.2522,-4.2522,-4.2522,-4.2522,-4.2446,-4.1643,-4.1342,-4.1379,-4.1781,-4.2183,-4.2522,0.0,0.0,0.0,0.0,0.0,0.0,0.0,2.0151,1.9109,1.9049,1.7047,1.5779,1.6199,1.4583,1.3295,1.2767,1.1782,1.1131,1.1131,1.0802,1.0741,1.0846,1.0749,1.063,1.0289,0.9743,0.9213,0.8917,0.8141,0.7923,0.7931,0.7205,0.6519,0.59,0.455,0.3322,0.2215,0.0616,-0.037,-0.0863,-0.0863,-0.1481,-0.2345,-0.2835,-0.3216,-0.3611,-0.5898,-0.6976,-0.7581,-0.9657,0.0,0.0,0.0,0.0,0.0,0.0,0.0,0.0,0.0,0.0,0.0,0.0,0.0,0.0,0.0,0.0,0.0,0.0,0.0,0.0,0.0,0.0,0.0,0.0,-2.8076,-2.9734,-3.0356,-3.1637,-3.2432,-3.2432,-3.2588,-3.2695,-3.2695,-3.2695,-3.2695,-3.2695,-3.3301,-3.3658,-3.3658,-3.4524,-3.5035,-3.5035,-3.5293,-3.5418,-3.5418,-3.5418,-3.5418,-3.5418,-3.5418,-3.5767,-3.6603,-3.8387,-3.9569,0.0,-4.2275,-4.2974,-4.2974,-4.2974,-4.2974,0.0,0.0,0.0,0.0,0.0,-4.2698,-4.2974,0.0,0.0,0.0,0.0,0.0,0.0,0.0,2.0135,1.8686,1.8715,1.6199,1.4724,1.5458,1.4169,1.3315,1.3207,1.2223,1.1568,1.1459,1.0911,1.0582,1.0692,1.0468,1.0025,0.9361,0.9251,0.8778,0.8031,0.7225,0.6872,0.6995,0.6119,0.5049,0.3936,0.3568,0.2215,-0.0,-0.0123,-0.0987,-0.2223,-0.2223,-0.2099,-0.2099,-0.3448,-0.4224,-0.4786,-0.6804,-0.7827,-0.8274,-0.9208,0.0,0.0,0.0,0.0,0.0,0.0,0.0,0.0,0.0,0.0,0.0,0.0,0.0,0.0,0.0,0.0,0.0,0.0,0.0,0.0,0.0,0.0,0.0,0.0,-2.896,-3.0789,-3.0651,-3.179,-3.2737,-3.2861,-3.3193,-3.3418,-3.3418,-3.3418,-3.3418,-3.3418,-3.4047,-3.4423,-3.4423,0.0,0.0,0.0,0.0,-3.5418,-3.5418,-3.5418,-3.5418,-3.5418,-3.5418,-3.5541,-3.59,-3.8149,-3.9345,-3.9697,-4.1923,-4.2974,-4.2974,-4.2974,-4.2974,-4.2974,-4.2974,-4.2974,-4.2974,-4.2862,-4.2862,-4.2862,0.0,0.0,0.0,0.0,0.0,0.0,0.0,2.079,2.0166,1.8401,1.7041,1.5986,1.5559,1.4169,1.3098,1.2659,1.2005,1.135,1.0911,1.0135,0.9915,1.0692,0.9251,0.8806,0.9361,0.7928,0.726,0.724,0.6334,0.5966,0.6134,0.4918,0.4183,0.3813,0.1723,0.0493,-0.0123,-0.1111,-0.2343,-0.357,-0.357,-0.2959,-0.2099,-0.3448,-0.5098,-0.6953,-0.7143,-0.803,-0.9095,-0.9842,-1.0812,-1.2022,-1.3722,-1.452,0.0,0.0,0.0,0.0,0.0,0.0,0.0,0.0,0.0,0.0,0.0,0.0,0.0,0.0,0.0,0.0,0.0,0.0,0.0,-2.545,-2.6753,-2.832,-2.937,-3.0735,-3.1988,-3.3165,-3.3369,-3.3418,-3.3418,-3.3418,-3.3418,-3.3418,-3.4047,-3.4423,-3.4423,-3.5046,-3.5418,-3.5418,-3.5418,-3.5418,-3.5418,-3.5418,-3.5418,-3.5418,0.0,0.0,-3.8506,-3.8992,-4.0164,-4.1923,-4.24,-4.2638,-4.2638,-4.2638,-4.2638,-4.2638,-4.2638,-4.275,-4.2974,-4.2437,-4.2425,-4.2525,0.0,0.0,0.0,0.0,0.0,0.0,0.0,2.0885,1.9849,1.7969,1.7022,1.608,1.4928,1.3964,1.3207,1.2876,1.1669,1.046,0.9471,0.8916,0.8916,0.9357,0.8472,0.8033,0.8039,0.7211,0.6648,0.6343,0.5924,0.5782,0.5916,0.4555,0.3568,0.283,0.0862,-0.037,-0.0987,-0.1729,-0.2713,-0.3936,-0.3936,-0.3956,-0.4234,-0.547,-0.6781,-0.7915,-0.8146,-0.879,-0.9447,-0.9365,-1.0177,-1.1233,-1.268,-1.3604,-1.4291,0.0,0.0,0.0,0.0,0.0,0.0,0.0,0.0,0.0,0.0,0.0,0.0,0.0,0.0,-2.4781,0.0,0.0,-2.4916,-2.4645,-2.662,-2.8328,-2.8854,-3.0936,-3.2629,-3.3292,-3.3418,-3.3418,-3.3418,-3.3418,-3.3418,-3.3418,-3.3922,-3.4173,-3.4423,-3.4922,-3.517,-3.5418,-3.5418,-3.5294,-3.517,-3.5294,-3.5294,-3.517,-3.5294,-3.6013,-3.7319,-3.8518,-3.958,-4.0755,-4.1834,-4.2312,-4.2312,-4.2312,-4.2425,-4.2513,-4.2174,-4.23,-4.2538,-4.2211,-4.2211,-4.2312,0.0,0.0,0.0,0.0,0.0,0.0,0.0,2.0767,1.9206,1.7647,1.6698,1.5648,1.4401,1.3753,1.3423,1.3098,1.1114,0.9464,0.8361,0.7922,0.7811,0.8029,0.7697,0.726,0.6715,0.6591,0.624,0.5643,0.5735,0.5706,0.5421,0.4185,0.283,0.1601,0.0246,-0.0987,-0.1977,-0.2222,-0.3081,-0.4304,-0.455,-0.5457,-0.6913,-0.794,-0.8278,-0.84,-0.9024,-0.941,-0.9525,-0.8856,-0.9513,-1.0704,-1.1497,-1.2684,-1.3779,-1.4902,-1.5148,0.0,0.0,0.0,0.0,0.0,0.0,0.0,0.0,0.0,-2.4503,-2.4367,-2.4367,-2.4367,-2.4367,-2.4781,-2.4781,-2.4231,-2.6478,-2.8468,-2.8715,-3.0936,-3.2775,-3.3292,-3.3418,-3.3418,-3.3418,-3.3418,-3.3418,-3.3418,-3.367,-3.4047,-3.4298,-3.4673,-3.4922,-3.517,-3.517,-3.5046,-3.4797,-3.5046,-3.5046,-3.4922,-3.517,-3.5407,-3.5767,-3.7801,-3.8873,-3.911,-4.1136,-4.1984,-4.1984,-4.2098,-4.2211,-4.2287,-4.1834,-4.1732,-4.1883,-4.1883,-4.1984,-4.1984,0.0,0.0,0.0,0.0,0.0,0.0,0.0,0.0,1.9612,1.745,1.6293,1.5345,1.4606,1.4293,1.3645,1.255,1.0131,0.8813,0.9251,0.7706,0.7152,0.7919,0.6487,0.6047,0.6715,0.6028,0.5666,0.5643,0.5735,0.5218,0.406,0.283,0.1478,0.0123,-0.1234,-0.1853,-0.2099,-0.3203,-0.4427,-0.5774,-0.6634,-0.7814,-0.9065,-0.9181,-0.8662,-0.812,-0.8796,-0.9013,-0.9117,-0.872,-0.9911,-1.163,-1.1762,-1.3083,-1.4838,-1.5172,-1.5352,-1.5541,-1.5763,-1.7893,-2.0281,-2.0869,-2.2826,-2.4503,0.0,0.0,-2.4367,-2.4095,-2.4095,-2.4095,-2.4095,-2.4367,-2.4503,-2.4503,-2.5044,-2.6375,-2.8863,-2.9509,-3.0558,-3.3155,-3.3418,-3.3418,-3.3418,-3.3418,-3.3418,-3.3418,-3.367,-3.3922,-3.3922,-3.4298,-3.4423,-3.4548,-3.4548,-3.4548,-3.4423,-3.4548,-3.4673,-3.4922,-3.4922,-3.551,-3.6692,-3.8149,-3.9098,-3.9686,-4.1009,-4.1606,-4.172,-4.1984,-4.1972,-4.172,-4.1606,-4.1504,-4.1299,-4.1299,-4.1402,-4.1606,0.0,0.0,0.0,0.0,0.0,0.0,0.0,0.0,0.0,1.7246,1.5737,1.4449,1.3176,1.1869,1.0668,0.9684,0.8257,0.7376,0.726,0.649,0.6156,0.6707,0.6044,0.5938,0.6495,0.6091,0.5488,0.4698,0.4697,0.4036,0.2707,0.1478,0.0493,-0.0,-0.1358,-0.1977,-0.2099,-0.3325,-0.4671,-0.6025,-0.7071,-0.8415,-0.9561,-0.919,-0.8671,-0.8114,-0.8778,-0.9468,0.0,-0.8448,-0.964,-1.1762,-1.1358,-1.262,-1.4356,-1.5227,-1.5489,-1.6006,-1.7981,-1.9324,-2.0497,0.0,-2.3529,-2.4095,-2.3952,-2.3816,-2.3816,-2.3679,-2.3679,-2.3679,-2.3679,-2.4088,-2.4367,0.0,-2.53,-2.6635,-2.7535,-2.9239,-3.0798,-3.21,-3.2237,-3.2502,-3.3292,-3.3418,-3.3418,-3.3418,-3.3544,-3.367,-3.3922,-3.4047,-3.4173,-3.4423,-3.4423,-3.4298,-3.4173,-3.4298,-3.4423,-3.4298,-3.4548,-3.4901,-3.55,-3.7309,-3.911,-4.0559,-4.116,-4.1504,-4.1606,-4.1631,-4.1631,-4.1606,-4.139,-4.1287,-4.1184,-4.1184,-4.1287,-4.1402,0.0,0.0,0.0,0.0,0.0,0.0,0.0,0.0,0.0,0.0,1.5192,1.3567,1.1869,1.0006,0.8692,0.8146,0.7154,0.6492,0.6154,0.5712,0.5603,0.5822,0.5822,0.5824,0.6051,0.6021,0.553,0.4467,0.3758,0.283,0.1601,0.0616,-0.0123,-0.0617,-0.1605,-0.2223,-0.259,-0.3939,-0.5284,-0.6519,-0.7622,-0.8623,-0.9516,-0.8756,-0.8223,-0.8056,-0.8451,-0.9247,-0.9908,-0.8315,-0.964,-1.1905,-1.1408,-1.2445,-1.4088,-1.5019,-1.5408,-1.6166,-1.8918,-1.9795,0.0,-2.3119,-2.3809,-2.3816,-2.3406,-2.3406,-2.3406,-2.327,-2.327,-2.327,-2.327,-2.3816,-2.4088,-2.3543,-2.5158,-2.6494,-2.6612,-2.8706,-3.0401,-3.1185,-3.1313,-3.1707,-3.2756,-3.2765,-3.3029,-3.3418,-3.3418,-3.3554,-3.3796,-3.3796,-3.3922,-3.4173,-3.4173,-3.4047,-3.3796,-3.4047,-3.4047,-3.3922,-3.4173,-3.4298,-3.4298,-3.6226,-3.8399,-4.0687,-4.0687,-4.0918,-4.1504,-4.1287,-4.1287,-4.1504,-4.1287,-4.1184,-4.1184,-4.1184,-4.1184,-4.1184,0.0,0.0,0.0,0.0,0.0,0.0,0.0,0.0,0.0,0.0,0.0,0.0,0.0,0.9688,0.903,0.9361,0.749,0.6606,0.7154,0.6267,0.5822,0.5822,0.5822,0.5712,0.5382,0.5559,0.554,0.5546,0.3156,0.1601,0.074,0.074,-0.0247,-0.1977,-0.1977,-0.2714,-0.3937,-0.5284,-0.6632,-0.7869,-0.8623,-0.9007,-0.9136,-0.7844,-0.7429,-0.7514,-0.7514,-0.8051,-0.872,-0.8587,-1.018,-1.2336,-1.2496,-1.3361,-1.4253,-1.4631,-1.5153,-1.6013,-1.7564,-1.8692,-1.9947,-2.1452,-2.2565,-2.3406,-2.3406,-2.3406,-2.327,-2.2996,-2.2859,-2.2859,-2.2859,-2.3133,-2.3406,-2.3406,-2.4088,-2.503,-2.6344,-2.7012,-2.8188,-3.0927,-3.1313,-3.1313,0.0,-3.1313,-3.1973,-3.3292,-3.3418,-3.3418,-3.3418,-3.3418,-3.3418,-3.3418,-3.3418,-3.3418,-3.3418,-3.3418,-3.3544,-3.3922,-3.3922,-3.3922,-3.3922,-3.5015,-3.6814,-3.9228,-3.9228,-3.9954,-4.1184,-4.1184,-4.1184,-4.1184,-4.1184,-4.1184,-4.1184,-4.1184,-4.1184,-4.1184,0.0,0.0,0.0,0.0,0.0,0.0,0.0,0.0,0.0,0.0,0.0,0.0,0.0,0.0,0.0,0.0,0.6937,0.6495,0.6824,0.6381,0.6161,0.6381,0.6383,0.6388,0.6619,0.5092,0.4237,0.4242,0.3158,0.1603,-0.0494,-0.0864,-0.1358,-0.1977,-0.2838,-0.3452,-0.4063,-0.5782,-0.6927,-0.7498,-0.8374,-0.8884,-0.8883,-0.8352,-0.7621,-0.6717,0.0,-0.7379,-0.8174,-0.7915,-0.9241,-1.0989,-1.168,-1.2492,-1.3485,-1.4552,-1.4995,-1.5607,-1.7137,-1.7554,-1.797,-1.9489,-1.9906,-2.0057,-2.0057,-2.0057,-2.0334,-2.1183,-2.0623,-2.0201,-2.1183,-2.1741,-2.1872,-2.1596,-2.3256,-2.4631,-2.4895,-2.6226,-2.7551,-2.8452,-2.8452,0.0,0.0,0.0,0.0,-3.21,-3.2892,-3.3418,-3.3418,-3.3418,-3.3418,-3.3418,-3.3418,-3.3418,-3.3418,-3.3418,-3.3428,-3.3544,-3.3544,-3.4037,-3.4891,-3.5253,-3.6824,-3.9216,-3.9216,-3.9954,-4.1184,-4.1184,-4.1184,-4.1184,-4.1184,-4.1184,-4.1184,-4.1184,-4.1184,-4.1184,0.0,0.0,0.0,0.0,0.0,0.0,0.0,0.0,0.0,0.0,0.0,0.0,0.0,0.0,0.0,0.0,0.0,0.6495,0.6606,0.6497,0.6386,0.627,0.6163,0.5942,0.5609,0.4029,0.2925,0.2355,0.2055,0.1104,-0.0617,-0.2098,-0.2591,-0.2468,-0.3697,-0.4435,-0.4681,-0.6029,-0.6703,-0.7057,-0.7798,-0.8041,-0.816,-0.7612,-0.6851,0.0,-0.5781,-0.6044,-0.6704,-0.6976,-0.86,-1.0528,-1.0402,-1.1276,-1.2613,-1.4261,-1.4763,-1.5181,-1.6569,-1.6705,-1.6846,-1.8229,-1.8369,-1.8234,-1.8385,-1.8379,-1.8664,-1.9646,-1.9083,-1.8664,-1.9646,-2.0485,-2.0906,-2.0629,-2.2702,-2.4231,-2.4095,-2.5435,-2.6635,-2.702,-2.7153,-2.7419,0.0,0.0,0.0,-3.1313,-3.2629,-3.3418,-3.3418,-3.3418,-3.3418,-3.3418,-3.3418,-3.3418,-3.3418,-3.3418,-3.3418,-3.3418,-3.3418,-3.3786,-3.4642,-3.4642,-3.6093,-3.8495,-3.8495,-3.9592,-4.1184,-4.1184,-4.1184,-4.1184,-4.1184,-4.1184,-4.1184,-4.1184,-4.1184,-4.1184,0.0,0.0,0.0,0.0,0.0,0.0,0.0,0.0,0.0,0.0,0.0,0.0,0.0,0.0,0.0,0.0,0.0,0.0,0.6725,0.6725,0.6277,0.5493,0.5493,0.4597,0.2806,0.2624,0.1739,-0.0,-0.0,-0.0,-0.0,-0.2589,-0.3697,-0.3574,-0.4558,-0.5418,-0.6033,-0.5912,-0.6339,-0.6939,-0.6785,-0.6755,-0.6723,-0.5752,-0.5381,-0.5247,-0.4575,-0.4308,-0.4441,-0.591,-0.8383,-1.068,-0.9029,-0.9654,-1.1589,-1.3753,-1.4479,-1.4617,-1.573,-1.6013,-1.6287,-1.7248,-1.7523,-1.7669,-1.81,-1.81,-1.81,-1.8239,-1.8239,-1.81,0.0,0.0,-2.0491,-2.0491,-2.2428,-2.3959,-2.3959,-2.4645,-2.5577,0.0,0.0,0.0,0.0,0.0,0.0,-3.1056,0.0,-3.3292,-3.3418,-3.3418,-3.3418,-3.3418,-3.3418,-3.3418,-3.3418,-3.3418,-3.3418,-3.3418,-3.3418,-3.3418,-3.3418,-3.3418,-3.4881,-3.7298,-3.7298,-3.8755,-4.1184,-4.1184,-4.1184,-4.1184,-4.1184,-4.1184,-4.1184,-4.1184,-4.1184,-4.1184,0.0,0.0,0.0,0.0,0.0,0.0,0.0,0.0,0.0,0.0,0.0,0.0,0.0,0.0,0.0,0.0,0.0,0.0,0.7715,0.7835,0.751,0.673,0.6743,0.5844,0.4039,0.1824,0.0464,-0.0,-0.0,-0.0,-0.0,-0.0741,-0.3088,-0.6694,-0.7059,-0.718,-0.7308,-0.6742,-0.6692,-0.6917,-0.7022,-0.7252,-0.7211,-0.6172,-0.5377,-0.4841,-0.4437,-0.39,-0.3765,-0.5505,-0.7892,-1.04,-1.1138,-1.178,-1.2459,-1.3039,-1.3472,-1.3611,-1.3892,-1.403,-1.403,-1.4307,-1.4449,-1.4445,-1.4591,-1.4591,-1.5013,-1.6428,-1.558,-1.5017,0.0,0.0,0.0,-1.8944,-2.159,0.0,-2.3543,-2.4231,0.0,-2.5165,0.0,-2.5584,-2.5584,-2.6894,0.0,0.0,-3.1065,-3.2237,-3.3292,-3.3418,-3.3418,-3.3418,-3.3418,-3.3418,-3.3418,-3.3418,-3.3418,-3.3418,-3.3418,-3.3418,-3.3418,-3.3418,-3.4881,-3.7298,-3.7298,-3.8755,-4.1184,-4.1184,-4.1184,-4.1184,-4.1184,-4.1184,-4.1184,-4.1184,-4.1184,-4.1184,0.0,0.0,0.0,0.0,0.0,0.0,0.0,0.0,0.0,0.0,0.0,0.0,0.0,0.0,0.0,0.0,0.0,0.0,0.0,0.7946,0.7279,0.6728,0.5953,0.4942,0.3587,0.1697,0.069,0.0471,0.0119,-0.0,-0.0,-0.0,-0.2221,-0.6183,-0.655,-0.6924,-0.7308,-0.6899,-0.6486,0.0,0.0,-0.5574,-0.5369,-0.4567,-0.4031,-0.3629,-0.3764,-0.3497,-0.3229,-0.4833,0.0,-0.8375,-1.1511,-1.1981,-1.1739,-1.2606,0.0,-1.3039,-1.2904,-1.276,-1.276,-1.276,-1.276,-1.2904,-1.3182,-1.3325,-1.3611,-1.4884,-1.4319,0.0,-1.4884,0.0,0.0,0.0,0.0,0.0,-2.3406,-2.4088,-2.4503,0.0,-2.4916,0.0,-2.5059,-2.5846,-2.702,0.0,-3.054,-3.1973,-3.3292,-3.3418,-3.3418,-3.3418,-3.3418,-3.3418,-3.3418,-3.3418,-3.3418,-3.3418,-3.3418,-3.3418,-3.3418,-3.3418,-3.4518,-3.646,0.0,-3.8506,-4.0327,-4.0942,-4.1184,-4.1184,-4.1184,-4.1184,-4.1184,-4.1184,-4.1184,-4.1184,0.0,0.0,0.0,0.0,0.0,0.0,0.0,0.0,0.0,0.0,0.0,0.0,0.0,0.0,0.0,0.0,0.0,0.0,0.0,0.0,0.6599,0.6042,0.4599,0.3479,0.2688,0.2355,0.1937,0.1294,0.0589,0.0239,0.0123,0.0123,-0.1109,-0.3446,-0.4553,-0.5172,-0.5431,-0.5776,-0.5483,-0.4786,-0.3678,-0.2795,-0.2285,0.0,-0.1747,-0.2017,-0.2825,-0.2827,-0.2828,-0.4298,-0.4924,-0.5883,-1.0604,-1.1038,-1.0152,-1.2033,-1.261,-1.2613,-1.2338,-1.2194,-1.2194,-1.2194,-1.2194,-1.2338,-1.3043,-1.3182,-1.3325,-1.3757,0.0,-1.39,-1.39,-1.6145,-1.8105,-1.8385,0.0,-2.3126,-2.327,-2.3952,-2.4367,-2.4367,-2.4781,-2.5059,-2.5059,-2.5322,-2.6368,-2.8986,-3.054,-3.1973,-3.3292,-3.3418,-3.3418,-3.3418,-3.3418,-3.3418,-3.3418,-3.3418,-3.3418,-3.3418,-3.3418,-3.3418,-3.3418,-3.3418,-3.4153,-3.55,0.0,0.0,-3.9345,-4.0687,-4.1184,-4.1184,-4.1184,-4.1184,-4.1184,-4.1184,-4.1184,-4.1184,0.0,0.0,0.0,0.0,0.0,0.0,0.0,0.0,0.0,0.0,1.8164,1.6199,0.0,0.0,0.0,0.0,0.0,0.0,0.0,0.0,0.0,0.6019,0.5377,0.4714,0.3924,0.4489,0.4105,0.2824,0.2,0.1316,0.0863,0.0864,0.0247,-0.074,-0.2469,-0.1851,0.0371,-0.1522,-0.1926,-0.1031,-0.1456,-0.1071,-0.0402,0.0537,0.0,0.0,-0.2019,-0.2289,-0.2558,-0.3899,-0.4514,-0.5315,-0.8539,-0.9541,-0.9723,-1.1322,-1.2047,-1.2338,-1.2194,-1.2194,-1.2194,-1.2194,-1.2194,-1.2334,-1.2757,-1.2896,0.0,0.0,-1.3615,-1.3472,-1.39,-1.5305,-1.6992,-1.8239,0.0,0.0,0.0,0.0,-2.4095,0.0,0.0,0.0,0.0,0.0,0.0,0.0,0.0,-3.1973,-3.3292,-3.3418,-3.3418,-3.3418,-3.3418,-3.3418,-3.3418,-3.3418,-3.3418,-3.3418,-3.3418,-3.3418,-3.3418,-3.3418,-3.4153,-3.55,-3.6703,0.0,-3.9345,-4.0687,-4.1184,-4.1184,-4.1184,-4.1184,-4.1184,-4.1184,-4.1184,-4.1184,0.0,0.0,0.0,0.0,0.0,0.0,0.0,2.5091,2.3331,2.1432,1.9398,1.7864,1.7009,1.5861,1.4917,0.0,0.0,0.0,0.0,0.0,0.0,0.0,0.6487,0.5607,0.5268,0.5203,0.4943,0.447,0.0,0.2892,0.2218,0.2466,0.1603,-0.0,-0.0493,-0.0123,0.0864,-0.0127,0.0129,0.1419,0.1859,0.1745,0.1475,0.0,0.0,0.0,-0.175,-0.2155,-0.2291,-0.2986,-0.3308,-0.392,-0.6846,-0.7962,-0.842,-1.0014,-1.0596,-1.0887,-1.1616,-1.1907,-1.1907,-1.1907,-1.1907,-1.2051,-1.2334,0.0,0.0,0.0,-1.3615,-1.3615,-1.39,-1.5168,0.0,-1.7127,0.0,0.0,0.0,0.0,0.0,0.0,0.0,0.0,0.0,0.0,0.0,0.0,0.0,-3.1973,-3.3292,-3.3418,-3.3418,-3.3418,-3.3418,-3.3418,-3.3418,-3.3418,-3.3418,-3.3418,-3.3418,-3.3418,-3.3418,-3.3418,-3.3786,-3.4518,-3.646,0.0,-3.7429,-4.0083,-4.0815,-4.0199,-4.0942,-4.1184,-4.1184,-4.1184,-4.1184,-4.1184,0.0,0.0,0.0,0.0,0.0,0.0,0.0,2.5633,2.37,2.2038,2.0641,1.962,1.8977,1.7549,1.6511,0.0,0.0,0.0,0.0,0.0,0.0,0.0,0.0,0.0,0.0,0.0,0.0,0.0,0.502,0.0,0.0,0.0,0.0,0.0,0.1598,0.1476,0.0986,0.1016,0.1929,0.0,0.0,0.4438,0.0,0.0,0.0,0.0,0.0,-0.1615,-0.1619,-0.2053,-0.222,-0.2666,-0.5054,-0.6133,-0.6825,-0.8129,-0.8853,-0.9582,-1.0743,-1.1329,-1.1619,-1.1619,-1.1619,-1.1763,-1.2054,-1.2474,0.0,0.0,-1.3615,-1.39,-1.39,-1.4888,-1.573,0.0,-1.839,-2.0346,0.0,0.0,0.0,0.0,0.0,0.0,0.0,0.0,0.0,0.0,0.0,0.0,-3.3292,-3.3418,-3.3418,-3.3418,-3.3418,-3.3418,-3.3418,-3.3418,-3.3418,-3.3418,-3.3418,-3.3418,-3.3418,-3.3418,-3.3544,-3.3902,-3.6338,0.0,0.0,-3.9357,-4.0199,-3.9345,-4.0327,-4.0942,-4.1184,-4.1184,-4.1184,-4.1184,0.0,0.0,0.0,0.0,0.0,0.0,0.0,2.6832,2.5111,2.398,2.208,2.0783,2.0672,1.829,1.673,0.0,0.0,0.0,0.0,0.0,0.0,0.0,0.0,0.0,0.0,0.0,0.0,0.0,0.0,0.0,0.0,0.0,0.0,0.0,0.0,0.0,0.4199,0.3818,0.0,0.0,0.0,0.0,0.0,0.0,0.0,0.0,0.0,0.0269,-0.0,-0.1642,0.0,-0.225,-0.2561,-0.3746,-0.5091,-0.5663,0.0,0.0,-0.9435,-1.0596,-1.1619,-1.1619,-1.1619,-1.1763,-1.2054,0.0,0.0,-1.3182,-1.3615,-1.39,-1.39,-1.4043,-1.4608,-1.5872,-1.7819,-1.9356,0.0,0.0,0.0,0.0,0.0,0.0,0.0,0.0,0.0,0.0,0.0,0.0,-3.3418,-3.3418,-3.3418,-3.3418,-3.3418,-3.3418,-3.3418,-3.3418,-3.3418,-3.3418,-3.3418,-3.3418,-3.3418,-3.3418,-3.4027,-3.5253,-3.6692,0.0,0.0,-3.8744,-3.9345,-3.9216,-3.9345,-4.0083,-4.1184,-4.1184,-4.1184,-4.1184,0.0,0.0,0.0,0.0,0.0,0.0,2.8866,2.6938,2.5518,2.5109,2.3203,2.2089,2.2785,2.1253,1.9627,1.8422,0.0,0.0,0.0,0.0,0.0,0.0,0.0,0.0,0.0,0.0,0.7844,0.7974,0.68,0.0,0.0,0.0,0.0,0.0,0.0,0.0,0.0,0.0,0.0,0.0,0.0,0.0,0.0,0.0,0.0,0.0,0.0,0.0,0.0,0.0,0.0,0.0,-0.1711,-0.2454,0.0,0.0,-0.5084,-0.566,-0.8562,-0.9726,-1.0452,-1.1329,-1.1619,-1.1619,-1.1763,0.0,-1.2617,-1.2896,-1.3325,-1.3615,-1.39,-1.39,-1.4185,-1.5035,-1.7263,0.0,0.0,0.0,0.0,0.0,0.0,0.0,0.0,0.0,0.0,0.0,0.0,0.0,-3.3418,-3.3418,-3.3418,-3.3418,-3.3418,-3.3418,-3.3418,-3.3418,-3.3418,-3.3418,-3.3418,-3.3418,-3.3418,-3.4278,-3.4393,-3.4268,-3.646,0.0,0.0,-3.7539,-3.8495,-3.9216,-3.9216,-4.0083,-4.1184,-4.1184,-4.1184,-4.1184,0.0,0.0,0.0,0.0,0.0,2.9886,2.8866,2.6938,2.5421,2.4815,2.3402,2.2693,2.3094,2.3094,2.2291,2.0388,1.9819,0.0,0.0,0.0,0.0,0.0,0.0,0.0,0.0,0.0,0.9436,0.9704,0.8101,0.7394,0.0,0.0,0.0,0.0,0.0,0.0,0.0,0.0,0.0,0.0,0.0,0.0,0.0,0.0,0.0,0.0,0.0,0.0,0.0,0.0,0.0,-0.211,-0.1711,-0.1877,-0.2479,-0.3059,-0.3201,-0.3778,-0.7257,-0.8709,-0.9726,-1.1181,-1.1619,-1.1619,0.0,0.0,-1.2477,-1.2896,-1.3182,-1.3615,-1.39,-1.4043,-1.4328,-1.5035,-1.7404,-1.9489,-2.0057,0.0,0.0,0.0,0.0,0.0,0.0,0.0,0.0,0.0,0.0,0.0,0.0,-3.3418,-3.3418,-3.3418,-3.3418,-3.3418,-3.3418,-3.3418,-3.3418,-3.3418,-3.3418,-3.3418,-3.3418,-3.4767,-3.4881,-3.4153,0.0,0.0,0.0,-3.7298,-3.8376,-3.9216,-3.9216,-4.0083,-4.1184,-4.1184,-4.1184,-4.1184,0.0,0.0,0.0,0.0,0.0,0.0,2.8866,2.6938,2.4906,2.2776,2.2484,2.2089,2.1089,2.2785,2.3692,2.2584,2.2484,0.0,0.0,0.0,0.0,0.0,0.0,0.0,0.0,0.0,1.0799,1.0739,0.9513,0.8944,0.8699,0.7503,0.6775,0.0,0.0,0.0,0.0,0.0,0.0,0.0,0.0,0.0,0.0,0.0,0.0,0.0,0.0,0.0,0.0,0.0,0.0,0.0,0.0,-0.2311,-0.2044,-0.0438,-0.2186,-0.4801,-0.5229,-0.7402,-0.9726,-1.1181,-1.1619,-1.1763,0.0,0.0,-1.2896,-1.3182,-1.3615,-1.39,-1.39,-1.4189,-1.5039,-1.6428,-1.8514,0.0,-2.1584,0.0,0.0,0.0,0.0,0.0,0.0,0.0,0.0,0.0,0.0,0.0,0.0,-3.3418,-3.3418,-3.3418,-3.3418,-3.3418,-3.3418,-3.3418,-3.3418,-3.3418,-3.3418,-3.3418,-3.3418,-3.4767,-3.5376,0.0,0.0,0.0,0.0,-3.8614,-3.9228,-3.9216,-3.9216,-4.0083,-4.1184,-4.1184,-4.1184,-4.1184,0.0,0.0,0.0,0.0,0.0,0.0,0.0,2.5915,2.4365,2.3683,2.2985,2.2383,2.1988,2.3285,2.3989,2.3592,2.3059,0.0,0.0,0.0,0.0,0.0,0.0,0.0,0.0,1.418,1.2889,1.3127,1.1368,1.0498,1.04,0.9198,0.8474,0.8349,0.7136,0.0,0.0,0.0,0.0,0.0,0.0,0.0,0.0,0.0,0.0,0.0,0.0,0.0,0.0,0.0,0.0,0.0,0.0,0.0,0.0,-0.1748,-0.1896,-0.2478,-0.3053,-0.465,-0.6829,-0.9435,-1.0017,-1.0308,-1.1472,-1.2047,-1.2474,-1.2896,-1.3182,-1.3611,-1.39,-1.4189,-1.5035,-1.6841,-1.8793,0.0,0.0,0.0,0.0,0.0,0.0,0.0,0.0,0.0,0.0,0.0,0.0,0.0,0.0,-3.3418,-3.3418,-3.3418,-3.3418,-3.3418,-3.3418,-3.3418,-3.3418,-3.3418,-3.3418,-3.3418,-3.3418,-3.5725,0.0,0.0,0.0,0.0,0.0,-3.646,-3.7659,-3.9216,-3.9216,-4.0083,-4.1184,-4.1184,-4.1184,-4.1057,0.0,0.0,0.0,0.0,0.0,0.0,0.0,2.5664,2.4402,2.3592,2.3294,2.2785,2.1988,2.2885,2.3493,2.3493,2.3367,0.0,0.0,0.0,0.0,0.0,0.0,0.0,1.9648,1.7442,1.6251,1.5939,1.421,1.3183,1.268,1.1004,0.9923,0.9198,0.8227,0.75,0.0,0.0,0.0,0.0,0.0,0.0,0.5778,0.0,0.0,0.0,0.0,0.0,0.0,0.0,0.0,0.0,0.0,0.0,0.0,0.0,-0.2043,-0.175,-0.2182,-0.3924,-0.6103,-0.8709,-0.9726,0.0,0.0,-1.2191,-1.2474,-1.2896,-1.3325,-1.3615,-1.4043,-1.475,-1.6013,-1.7959,-1.9767,0.0,0.0,0.0,0.0,0.0,0.0,0.0,0.0,0.0,0.0,0.0,0.0,0.0,0.0,-3.3418,-3.3418,-3.3418,-3.3418,-3.3418,-3.3418,-3.3418,-3.3418,-3.3418,-3.3418,-3.3418,-3.3418,-3.5612,0.0,0.0,0.0,0.0,0.0,-3.646,-3.7779,-3.9228,-3.9721,-4.0443,-4.1184,-4.1184,-4.093,-4.0327,0.0,0.0,0.0,0.0,0.0,0.0,0.0,2.579,2.4726,2.2693,2.3185,2.2985,2.0979,2.1684,2.2282,2.2391,0.0,0.0,0.0,0.0,0.0,0.0,0.0,0.0,2.2063,2.1233,2.015,1.8947,1.7825,1.666,1.5295,1.3035,1.1246,0.9562,0.9684,0.8717,0.6915,0.7112,0.72,0.697,0.5436,0.4693,0.0,0.0,0.0,0.0,0.0,0.0,0.0,0.0,0.0,0.0,0.0,0.0,0.0,0.0,0.0,0.0,0.0,-0.4647,-0.7259,-0.8709,-1.0308,-1.1616,-1.2051,-1.2474,0.0,-1.3182,-1.3615,-1.4043,-1.4617,-1.573,-1.7544,-1.9767,0.0,0.0,0.0,0.0,0.0,0.0,0.0,0.0,0.0,0.0,0.0,0.0,0.0,0.0,0.0,-3.3418,-3.3418,-3.3418,-3.3418,-3.3418,-3.3418,-3.3418,-3.3418,-3.3418,-3.3418,-3.3418,-3.3418,-3.4767,0.0,0.0,0.0,0.0,0.0,-3.8018,-3.9098,-3.9228,-4.0571,-4.1057,-4.1057,-4.0942,-4.0083,-3.9098,0.0,0.0,0.0,0.0,0.0,0.0,0.0,0.0,0.0,0.0,2.0546,1.9826,1.9034,1.9738,2.0554,0.0,0.0,0.0,0.0,0.0,0.0,0.0,0.0,0.0,2.2357,2.1517,2.0628,1.9837,1.9975,1.9181,1.7523,1.6188,1.4548,1.2577,1.0407,0.8474,0.691,0.7286,0.7141,0.6715,0.5248,0.3457,0.0,0.0,0.0,0.0,0.3628,0.3361,0.0,0.0,0.0,0.0,0.0,0.0,0.0,0.0,-0.2027,-0.2332,-0.5098,0.0,-0.567,-0.7115,-0.8709,-1.0305,0.0,-1.2474,-1.2896,-1.3182,-1.3615,-1.4324,-1.5867,-1.6705,-1.8234,0.0,0.0,0.0,0.0,0.0,0.0,0.0,0.0,0.0,0.0,0.0,0.0,0.0,0.0,0.0,0.0,-3.3418,-3.3418,-3.3418,-3.3418,-3.3418,-3.3418,-3.3418,-3.3418,-3.3418,-3.3418,-3.3418,-3.3418,-3.4767,0.0,0.0,0.0,0.0,-3.4027,-3.6692,-3.7779,-3.7899,-3.9228,-3.9709,-3.9592,-3.8625,-3.8029,-3.7659,0.0,0.0,0.0,0.0,0.0,0.0,0.0,0.0,0.0,0.0,0.0,1.7718,1.658,1.6778,0.0,0.0,0.0,0.0,0.0,0.0,0.0,0.0,0.0,2.3583,2.4276,2.2841,2.1886,2.1579,2.1294,2.0435,1.8958,1.7983,1.634,1.4242,1.0763,0.8958,0.8119,0.6874,0.6349,0.5931,0.4052,0.0,0.0,0.0,0.0,0.0,0.1075,0.0672,0.0,0.2827,0.148,-0.108,0.0,0.0,0.0,0.0,-0.2599,-0.3495,-0.6268,-0.6406,-0.6103,-0.7695,-0.9147,-1.0599,-1.1616,-1.233,-1.2896,-1.3039,-1.3472,-1.4462,-1.6287,-1.7263,0.0,0.0,0.0,0.0,0.0,0.0,0.0,0.0,0.0,0.0,0.0,0.0,0.0,0.0,0.0,0.0,0.0,-3.3418,-3.3418,-3.3418,-3.3418,-3.3418,-3.3418,-3.3418,-3.3418,-3.3418,-3.3418,-3.3418,-3.3418,-3.4153,-3.4027,0.0,0.0,0.0,-3.3544,-3.5612,-3.646,-3.6581,-3.7779,-3.8387,-3.8257,-3.7539,-3.6935,-3.6338,0.0,0.0,0.0,0.0,0.0,0.0,0.0,0.0,0.0,0.0,0.0,0.0,0.0,0.0,0.0,0.0,0.0,0.0,0.0,0.0,0.0,0.0,2.275,2.3276,2.5557,2.3943,2.3004,2.2805,2.2241,2.119,1.997,1.8945,1.7067,1.4351,1.1121,0.9562,0.9207,0.635,0.5056,0.4745,0.2345,0.0,0.0,0.0,0.0,0.0,0.0,0.0,0.0,-0.175,-0.1077,-0.0135,-0.0,0.0,0.0,0.0,0.0,0.0,-0.7146,-0.7566,-0.7693,-0.9,-1.0452,-1.1619,-1.1619,-1.233,-1.2753,-1.2896,-1.3611,-1.4742,-1.6705,-1.81,0.0,0.0,0.0,0.0,0.0,0.0,0.0,0.0,0.0,0.0,0.0,0.0,0.0,0.0,0.0,0.0,0.0,-3.3418,-3.3418,-3.3418,-3.3418,-3.3418,-3.3418,-3.3418,-3.3418,-3.3418,-3.3418,-3.3418,-3.3418,-3.3418,-3.3418,0.0,0.0,0.0,-3.3544,-3.4891,-3.5376,-3.55,-3.6581,-3.7056,-3.6935,-3.6814,-3.5971,-3.5129,0.0,0.0,0.0,0.0,0.0,0.0,0.0,0.0,0.0,0.0,0.0,0.0,0.0,0.0,0.0,0.0,0.0,0.0,0.0,0.0,0.0,1.7825,2.0782,2.2181,2.1777,2.2282,2.2197,2.1407,2.2714,2.2417,2.0518,1.959,1.6311,1.1503,1.1374,0.9926,0.7513,0.6043,0.4235,0.2406,0.1156,0.0,0.0,0.0,0.0,0.0,0.0,0.0,0.0,-0.0673,-0.0538,-0.0808,-0.0135,0.0,0.0,0.0,0.0,0.0,-0.9934,-0.9905,-0.9,-0.9291,-1.0452,-1.1619,-1.2051,-1.2474,-1.2896,-1.3182,-1.46,-1.6287,-1.8234,-2.0045,-2.1865,0.0,0.0,0.0,0.0,0.0,0.0,0.0,0.0,0.0,0.0,0.0,0.0,0.0,0.0,0.0,0.0,0.0,-3.3418,-3.3418,-3.3418,-3.3418,-3.3418,-3.3418,-3.3418,-3.3418,-3.3418,-3.3418,-3.3418,-3.3418,-3.3418,0.0,0.0,-3.3418,-3.3544,-3.4891,-3.5376,-3.5376,-3.5623,-3.5735,-3.5489,-3.4393,-3.3912,-3.366,0.0,0.0,0.0,0.0,0.0,0.0,0.0,0.0,0.0,0.0,0.0,0.0,0.0,0.0,0.0,0.0,0.0,0.0,0.0,0.0,1.2793,1.4938,1.6596,1.8372,2.0412,1.9708,1.9568,1.9909,2.0219,1.9996,1.921,1.7731,1.5263,1.196,1.0755,0.9438,0.8113,0.4916,0.3103,0.2018,0.0,0.0,0.0,0.0,0.0,0.0,0.0,0.0,0.0,0.0,-0.0942,-0.0404,-0.0135,0.0,0.0,0.0,0.0,0.0,-0.9956,-1.0715,-1.0452,-1.1589,-1.2448,-1.317,-1.3313,-1.4441,-1.5561,-1.5985,-1.6831,-1.81,0.0,0.0,-2.2812,0.0,0.0,0.0,0.0,0.0,0.0,0.0,0.0,0.0,0.0,0.0,0.0,0.0,0.0,0.0,0.0,0.0,-3.3418,-3.3418,-3.3418,-3.3418,-3.3418,-3.3418,-3.3418,-3.3418,-3.3418,-3.3418,-3.3418,-3.3418,-3.3418,-3.3418,0.0,-3.3418,-3.3418,-3.4037,-3.4278,-3.4278,-3.4278,-3.4278,-3.4278,-3.367,-3.3418,-3.3418,0.0,0.0,0.0,0.0,0.0,0.0,0.0,0.0,0.0,0.0,0.0,0.0,0.0,0.0,0.0,0.0,0.0,0.0,0.0,0.912,1.0421,1.2394,1.2149,1.4259,1.9147,1.7318,1.6913,1.829,1.7818,1.7628,1.7498,1.5809,1.4099,1.2303,0.9902,0.8705,0.8352,0.3933,0.1858,0.1253,0.0,0.0,0.0,0.0,0.0,0.0,0.0,0.0,0.0,0.0,0.0,0.0,0.0,0.0,0.0,-0.6336,-0.6711,-0.6534,-0.97,-1.0779,-1.1425,-1.3024,-1.3595,-1.4014,-1.4712,-1.6122,-1.7529,-1.8078,-1.8782,-1.9634,0.0,-2.2134,0.0,0.0,0.0,0.0,0.0,0.0,0.0,0.0,0.0,0.0,0.0,0.0,0.0,0.0,0.0,0.0,0.0,0.0,-3.3418,-3.3418,-3.3418,-3.3418,-3.3418,-3.3418,-3.3418,-3.3418,-3.3418,-3.3418,-3.3418,-3.3418,-3.3418,-3.3418,-3.3418,-3.3418,-3.3418,-3.3418,-3.3418,-3.3418,-3.3418,-3.3418,-3.3418,-3.3418,-3.3418,-3.3418,0.0,0.0,0.0,0.0,0.0,0.0,0.0,0.0,0.0,0.0,0.0,0.0,0.0,0.0,0.0,0.0,0.0,0.0,0.0,0.7487,0.7811,0.8796,0.8575,1.1071,1.6823,1.5725,1.5737,1.6861,1.7296,1.7043,1.6138,1.5058,1.315,1.0404,0.9306,0.8105,0.6657,0.3694,0.1108,-0.1236,-0.2929,0.0,0.0,0.0,0.0,0.0,0.0,0.0,0.0,0.0,0.0,0.0,0.0,0.0,-0.4123,-0.4537,-0.6802,-0.943,-1.0395,-1.0709,-1.1018,-1.1582,-1.2047,-1.3039,-1.5844,-1.6131,-1.6136,-1.7529,-1.9217,-2.0629,0.0,0.0,0.0,0.0,0.0,0.0,0.0,0.0,0.0,0.0,0.0,0.0,0.0,0.0,0.0,0.0,0.0,0.0,0.0,0.0,0.0,-3.3418,-3.3418,-3.3418,-3.3418,-3.3418,-3.3418,-3.3418,-3.3418,-3.3418,-3.3418,-3.3418,-3.3418,-3.3418,-3.3418,-3.3418,-3.3418,-3.3418,-3.3418,-3.3418,-3.3418,-3.3418,-3.3418,-3.3418,-3.3418,-3.3418,0.0,0.0,0.0,0.0,0.0,0.0,0.0,0.0,0.0,0.0,0.0,0.0,0.0,0.0,0.0,0.0,0.0,0.0,0.0,0.6717,0.7271,0.8716,0.7601,0.8682,1.2488,1.2601,1.3048,1.4051,1.4521,1.43,1.343,1.3062,1.1491,0.9079,0.8471,0.7627,0.6414,0.4064,0.1354,-0.1481,-0.4204,-0.5799,0.0,0.0,0.0,0.0,0.0,0.0,0.0,0.0,-0.0673,0.0269,0.1346,-0.0675,-0.4069,-0.6377,-0.7949,-0.9285,-1.0006,-1.1236,-1.2363,-1.2856,-1.3661,-1.4871,-1.6952,-1.8223,-1.9634,-2.1571,-2.2415,-2.2846,0.0,0.0,0.0,0.0,0.0,0.0,0.0,0.0,0.0,0.0,0.0,0.0,0.0,0.0,0.0,0.0,0.0,0.0,0.0,0.0,0.0,-3.3418,-3.3418,-3.3418,-3.3418,-3.3418,-3.3418,-3.3418,-3.3418,-3.3418,-3.3418,-3.3418,-3.3418,-3.3418,-3.3418,-3.3418,-3.3418,-3.3418,-3.3418,-3.3418,-3.3418,-3.3418,-3.3418,-3.3418,-3.3418,-3.3418,0.0,0.0,0.0,0.0,0.0,0.0,0.0,0.0,0.0,0.0,0.0,0.0,0.0,0.0,0.0,0.0,0.0,0.0,0.5712,0.5826,0.6383,0.7499,0.6717,0.6927,0.8783,0.9563,1.0781,1.2441,1.2632,1.257,1.2113,1.1386,1.0422,0.922,0.7997,0.7023,0.6293,0.4067,0.1477,-0.1356,-0.4714,-0.6575,0.0,0.0,0.0,0.0,0.0,0.0,0.0,0.0,-0.0808,0.0135,0.1077,-0.0134,-0.2554,-0.6323,-0.8534,-0.9958,-1.0512,-1.1743,-1.3173,-1.4401,-1.4955,-1.591,-1.8326,-1.9756,-2.117,-2.3672,-2.4095,-2.4495,-2.5689,0.0,0.0,0.0,0.0,0.0,0.0,0.0,0.0,0.0,0.0,0.0,0.0,0.0,0.0,0.0,0.0,0.0,0.0,0.0,0.0,0.0,-3.3418,-3.3418,-3.3418,-3.3418,-3.3418,-3.3418,-3.3418,-3.3418,-3.3418,-3.3418,-3.3418,-3.3418,-3.3418,-3.3418,-3.3418,-3.3418,-3.3418,-3.3418,-3.3418,-3.3418,-3.3418,-3.3418,-3.3418,-3.3418,0.0,0.0,0.0,0.0,0.0,0.0,0.0,0.0,0.0,0.0,0.0,0.0,0.0,0.0,0.0,0.0,0.0,0.0,0.448,0.4817,0.4929,0.4817,0.5487,0.5819,0.6035,0.7038,0.9133,1.2337,1.2181,1.2333,1.2577,1.0407,0.9947,1.0955,0.8011,0.6296,0.5804,0.3825,0.16,-0.0984,-0.4706,-0.6958,-0.8135,0.0,0.0,0.0,0.0,0.0,0.0,0.0,-0.1212,-0.0135,-0.0538,0.0134,0.0269,-0.3758,-0.8312,-1.2098,-1.2346,-1.2519,-1.3145,-1.6099,-1.58,-1.6001,-2.0095,-2.0027,-1.9756,-2.2839,-2.4081,-2.5427,-2.8188,-2.8977,0.0,0.0,0.0,0.0,0.0,0.0,0.0,0.0,0.0,0.0,0.0,0.0,0.0,0.0,0.0,0.0,0.0,0.0,0.0,0.0,-3.3418,-3.3418,-3.3418,-3.3418,-3.3418,-3.3418,-3.3418,-3.3418,-3.3418,-3.3418,-3.3418,-3.3418,-3.3418,-3.3418,-3.3418,-3.3418,-3.3418,-3.3418,-3.3418,-3.3418,-3.3418,-3.3418,-3.3418,-3.3418,0.0,0.0,0.0,0.0,0.0,0.0,0.0,0.0,0.0,0.0,0.0,0.0,0.0,0.0,0.0,0.0,0.0,0.0,0.6044,0.6156,0.6044,0.5712,0.5938,0.6609,0.761,0.8152,0.9137,1.0269,1.0256,1.0351,1.066,0.9937,0.9464,0.9242,0.8384,0.716,0.5812,0.5315,0.2977,-0.0626,-0.5377,-0.7796,-0.8261,0.0,0.0,0.0,0.0,0.0,0.0,0.0,0.0,0.0,-0.0269,0.0404,0.0403,-0.3355,-0.7111,-1.0219,-1.0502,-1.2563,-1.481,-1.454,-1.6435,-1.8609,-1.9891,-2.0189,-2.1145,-2.425,-2.6433,-2.7932,-2.8583,0.0,0.0,0.0,0.0,0.0,0.0,0.0,0.0,0.0,0.0,0.0,0.0,0.0,0.0,0.0,0.0,0.0,0.0,0.0,0.0,0.0,-3.3418,-3.3418,-3.3418,-3.3418,-3.3418,-3.3418,-3.3418,-3.3418,-3.3418,-3.3418,-3.3418,-3.3418,-3.3418,-3.3418,-3.3418,-3.3418,-3.2765,-3.1973,-3.1973,-3.1973,-3.1845,-3.0816,-3.1726,-3.3292,0.0,0.0,0.0,0.0,0.0,0.0,0.0,0.0,0.0,0.0,0.9702,0.9588,0.0,0.0,0.0,0.0,0.0,0.0,0.5819,0.5933,0.5822,0.5489,0.5935,0.6497,0.7504,0.7715,0.7924,0.825,0.8768,0.9144,0.9372,0.9185,0.8983,0.8888,0.7393,0.5546,0.3582,0.3582,0.2239,-0.0252,-0.3459,-0.5461,-0.6725,0.0,0.0,0.0,0.0,0.0,0.0,0.0,0.0,0.0,-0.0673,-0.0135,-0.0672,-0.5357,-0.8837,-1.1512,-1.2664,-1.4833,-1.6661,-1.676,-1.8088,-1.9676,-2.046,-2.1813,0.0,0.0,-2.8071,-2.9509,-3.041,0.0,0.0,0.0,0.0,0.0,0.0,0.0,0.0,0.0,0.0,0.0,0.0,0.0,0.0,0.0,0.0,0.0,0.0,0.0,0.0,0.0,-3.1726,-3.1726,-3.1726,-3.1726,-3.1982,-3.2629,-3.2629,-3.2629,-3.2629,-3.3155,-3.3418,-3.3418,-3.2765,-3.2629,-3.2502,-3.1982,-3.1203,-3.041,-3.041,-3.041,-3.041,-2.9509,-3.0678,-3.2502,0.0,0.0,0.0,0.0,0.0,0.0,0.0,0.0,0.0,0.0,0.9037,0.8813,0.0,0.0,0.0,0.0,0.0,0.0,0.0,0.4927,0.5041,0.4929,0.5487,0.5935,0.6274,0.6274,0.632,0.6408,0.7676,0.8395,0.8534,0.8057,0.85,0.9513,0.5663,0.2709,0.037,0.0371,0.0249,-0.0,-0.0,-0.143,-0.3827,-0.6696,0.0,0.0,0.0,0.0,0.0,0.0,0.0,0.0,-0.1346,-0.1212,-0.2285,-0.8429,-1.2018,-1.4381,-1.6818,-1.7736,-1.8577,-2.0786,-2.0314,0.0,-2.1876,-2.4386,-2.6647,-2.8332,0.0,-3.0321,0.0,0.0,0.0,0.0,0.0,0.0,0.0,0.0,0.0,0.0,0.0,0.0,0.0,0.0,0.0,0.0,0.0,0.0,0.0,0.0,0.0,0.0,-2.9248,-2.9248,-2.9248,-2.9248,-2.9891,0.0,-3.1056,-3.1056,-3.1185,-3.2629,-3.3165,-3.2902,-3.1717,-3.1056,-3.1056,-2.977,-2.9125,-2.8986,-2.8986,-2.9117,-2.9117,-2.9125,-3.0021,-3.1451,0.0,0.0,0.0,0.0,0.0,0.0,0.0,0.0,0.0,0.0,0.0,0.0,0.0,0.0,0.0,0.0,0.0,0.0,0.0,0.6707,0.6599,0.6267,0.6272,0.6274,0.6274,0.6274,0.6284,0.6305,0.7065,0.7455,0.7578,0.7815,0.8005,0.827,0.5908,0.4182,0.3079,0.3242,0.2022,-0.0,-0.0,-0.0396,-0.0937,-0.161,-0.2957,0.0,0.0,0.0,0.0,0.0,0.0,0.0,-0.202,-0.1616,-0.2017,-0.6577,-0.9772,-1.215,-1.3574,-1.6172,-1.8524,-1.9096,-2.0272,-2.1936,-2.3686,-2.5742,-2.7302,-2.7427,0.0,0.0,0.0,0.0,0.0,0.0,0.0,0.0,0.0,0.0,0.0,0.0,0.0,0.0,0.0,0.0,0.0,0.0,0.0,0.0,0.0,0.0,0.0,-2.9256,-2.9248,-2.9248,-2.9248,-2.9248,-2.9378,0.0,-2.9639,-2.9639,-2.9639,-3.1056,-3.1194,-3.0039,-2.977,-2.9639,-2.9639,-2.9378,-2.8592,-2.7543,-2.7543,-2.8196,-2.9117,-2.7941,-2.9891,-3.2765,0.0,0.0,0.0,0.0,0.0,0.0,0.0,0.0,0.0,0.0,0.0,0.0,0.0,0.0,0.0,0.0,0.0,0.0,0.0,0.0,0.7043,0.6715,0.7099,0.7016,0.6569,0.7074,0.7217,0.6648,0.7158,0.7246,0.702,0.7306,0.7516,0.7531,0.6535,0.5794,0.5308,0.5642,0.407,0.1419,0.0393,-0.0,-0.0,-0.0,-0.1749,-0.4038,-0.2422,0.0,0.0,0.0,0.0,0.0,0.0,0.0,-0.2421,-0.6566,-0.8955,-1.0788,-1.3796,-1.641,-1.8762,-1.9795,0.0,-2.2355,-2.3464,-2.5568,-2.7059,0.0,0.0,0.0,0.0,0.0,0.0,0.0,0.0,0.0,0.0,0.0,0.0,0.0,0.0,0.0,0.0,0.0,0.0,0.0,0.0,0.0,0.0,-2.7543,-2.7411,-2.7286,-2.7294,-2.7294,-2.7427,-2.7294,-2.7684,-2.8477,-2.8345,-2.8205,-2.8196,-2.9631,-2.99,-2.9125,-2.846,-2.8196,-2.8196,-2.7551,-2.6761,-2.61,-2.61,-2.702,-2.8073,-2.7411,-2.8977,-3.1332,0.0,0.0,0.0,0.0,0.0,0.0,0.0,0.0,0.0,0.0,0.0,0.0,0.0,0.0,0.0,0.0,0.0,0.0,0.0,0.0,0.0,0.6995,0.7766,0.7932,0.713,0.8265,0.8439,0.7394,0.798,0.7754,0.6962,0.6928,0.715,0.7649,0.7283,0.7173,0.72,0.7185,0.5753,0.3112,0.1052,0.0133,-0.0135,-0.0135,-0.2018,-0.4307,-0.2827,-0.3093,-0.3896,-0.3095,0.0,0.0,0.0,0.0,-0.3493,-0.7087,-0.8797,-1.0353,-1.4665,-1.7167,-1.9024,-2.1089,-2.1859,0.0,-2.2731,-2.4818,-2.6407,0.0,0.0,0.0,0.0,0.0,0.0,0.0,0.0,0.0,0.0,0.0,0.0,0.0,0.0,0.0,0.0,0.0,0.0,0.0,0.0,0.0,-2.5464,-2.5329,-2.5194,-2.5059,-2.5194,-2.5329,-2.5599,-2.5329,-2.5854,-2.731,-2.7043,-2.6769,-2.6753,-2.7941,-2.8468,-2.8468,-2.7286,-2.6753,-2.6627,-2.5584,-2.5059,-2.5059,-2.5059,-2.5973,-2.7153,-2.7153,-2.7941,-2.9248,0.0,0.0,0.0,0.0,0.0,0.0,0.0,0.0,0.0,0.0,0.6935,0.6715,0.0,0.0,0.0,0.0,0.0,0.0,0.0,0.0,0.0,0.7933,0.8064,0.8188,0.8302,0.9568,0.9694,0.8445,0.9614,0.9557,0.8376,0.7324,0.7755,0.9339,0.7633,0.7444,0.8287,0.7526,0.5955,0.381,0.1997,0.0402,-0.0942,-0.0942,-0.269,-0.4977,-0.3362,-0.4705,-0.6855,-0.403,-0.3763,0.0,0.0,0.0,-0.523,-0.6297,-0.8938,-1.1702,-1.3299,0.0,-1.9024,0.0,-2.1859,-2.248,0.0,0.0,0.0,0.0,0.0,0.0,0.0,0.0,0.0,0.0,0.0,0.0,0.0,0.0,0.0,0.0,0.0,0.0,0.0,0.0,0.0,0.0,0.0,0.0,-2.5187,-2.5464,-2.5464,-2.5059,-2.5329,-2.5599,-2.5599,-2.5329,-2.5322,-2.5861,-2.5592,-2.5322,-2.5315,-2.5584,-2.5719,-2.5584,-2.545,-2.5322,-2.5315,-2.5187,-2.5059,-2.5059,-2.5059,-2.5973,-2.7153,-2.7153,-2.7941,-2.9248,0.0,0.0,0.0,0.0,0.0,0.0,0.0,0.0,0.0,0.0,0.0,0.863,0.0,0.0,0.0,0.8241,0.0,0.0,0.0,0.0,0.0,0.9596,1.0142,1.0658,1.1,1.2143,1.2316,1.1138,1.1917,1.2311,1.2201,1.0827,0.9785,0.9207,0.7744,0.7442,0.7926,0.7033,0.5192,0.2766,0.1469,-0.1474,-0.5222,-0.4434,-0.6309,-0.925,-0.6579,-0.6583,-0.7252,-0.497,-0.4435,-0.4572,-0.3363,0.0,0.0,0.0,-0.7624,-1.067,-1.3827,-1.656,-1.9024,0.0,-2.1734,-2.2104,-2.3098,0.0,0.0,0.0,0.0,0.0,0.0,0.0,0.0,0.0,0.0,0.0,0.0,0.0,0.0,0.0,0.0,0.0,0.0,0.0,0.0,0.0,0.0,-2.5194,-2.5329,-2.5329,-2.5329,-2.5329,-2.5329,-2.5464,-2.5869,-2.5329,-2.5194,-2.5329,-2.5194,-2.5059,-2.5059,-2.5059,-2.5059,-2.5059,-2.5059,-2.5059,-2.5059,-2.5059,-2.5059,-2.5059,-2.5059,-2.5973,-2.7153,-2.7153,-2.7543,-2.8065,0.0,0.0,0.0,0.0,0.0,0.0,0.0,0.0,0.0,0.0,0.0,0.0,0.0,0.0,0.0,0.0,1.0507,0.0,0.0,0.0,0.0,1.1574,1.2412,1.2958,1.3306,1.4528,1.4614,1.3526,1.4118,1.4599,1.4971,1.3737,1.2063,1.0283,0.9182,0.8793,0.8711,0.7793,0.5451,0.2382,0.1202,-0.2541,-0.7486,-0.7238,-0.9374,-1.2169,-0.9513,-0.8579,-0.844,-0.6309,-0.551,-0.524,-0.4167,-0.4568,0.0,0.0,0.0,-0.9495,0.0,0.0,-1.7725,-2.0182,-2.0829,-2.1209,0.0,0.0,0.0,0.0,0.0,0.0,0.0,0.0,0.0,0.0,0.0,0.0,0.0,0.0,0.0,0.0,0.0,0.0,0.0,0.0,0.0,0.0,0.0,-2.5194,-2.5464,-2.5329,-2.5329,-2.5464,-2.5322,-2.5464,-2.6003,-2.5464,-2.5194,-2.5059,-2.5059,-2.5059,-2.5059,-2.5059,-2.5059,-2.5059,-2.5059,-2.5059,-2.5059,-2.5059,-2.5059,-2.5059,-2.5059,-2.5712,-2.6627,-2.6627,-2.6627,-2.6627,0.0,0.0,0.0,0.0,0.0,0.0,0.0,0.0,0.0,0.0,0.0,0.0,1.0732,1.1229,1.1913,1.3194,1.3622,1.3751,1.3512,1.232,0.0,1.387,1.3999,0.0,1.449,1.5795,1.58,1.4505,1.58,1.58,1.4629,1.4505,1.4386,1.4262,1.2892,1.2373,1.2243,1.1232,0.8052,0.3477,0.1733,-0.1335,-0.5362,-0.826,-1.0373,-1.1574,-1.0785,-1.1194,0.0,0.0,0.0,0.0,0.0,0.0,-0.7111,0.0,0.0,0.0,0.0,-1.2509,0.0,-1.7859,-1.889,0.0,0.0,0.0,0.0,0.0,0.0,0.0,0.0,0.0,0.0,0.0,0.0,0.0,0.0,0.0,0.0,0.0,0.0,0.0,0.0,0.0,0.0,0.0,0.0,-2.5059,-2.5194,-2.5464,-2.5464,-2.5194,-2.5464,-2.5599,-2.5599,-2.5599,-2.5457,-2.5059,-2.5059,-2.5059,-2.5059,-2.5059,-2.5059,-2.5059,-2.5059,-2.5059,-2.5059,-2.5059,-2.5059,-2.5059,-2.5059,-2.5187,-2.5187,-2.5187,-2.5187,-2.5187,0.0,0.0,0.0,0.0,0.0,0.0,0.0,0.0,0.0,0.0,0.0,0.0,0.0,1.2017,1.2013,1.1313,1.1938,1.2456,1.2462,1.1989,0.0,1.4976,1.4262,1.4619,1.6414,1.6885,1.6879,1.6414,1.7126,1.7244,1.6773,1.7003,1.6997,1.6879,1.3407,1.19,1.189,1.0344,0.7885,0.4554,0.2133,-0.1994,-0.6786,-0.9582,-1.21,-1.3953,-1.3295,0.0,0.0,0.0,0.0,0.0,0.0,0.0,0.0,0.0,0.0,0.0,0.0,0.0,0.0,-1.4952,-1.7049,0.0,0.0,0.0,0.0,0.0,0.0,0.0,0.0,0.0,0.0,0.0,0.0,0.0,0.0,0.0,0.0,0.0,0.0,0.0,0.0,0.0,0.0,0.0,0.0,0.0,-2.5059,-2.5187,-2.5329,-2.5464,-2.5599,-2.5599,-2.5599,-2.5329,-2.5194,-2.5059,-2.5059,-2.5059,-2.5059,-2.5059,-2.5059,-2.5059,-2.5059,-2.5059,-2.5059,-2.5059,-2.5059,-2.5059,-2.5059,-2.5059,-2.5059,-2.5059,-2.5059,-2.5187,0.0,0.0,0.0,0.0,0.0,0.0,0.0,0.0,1.1774,1.2534,0.0,0.0,0.0,0.0,1.2151,1.1109,1.167,1.2281,1.283,1.2848,1.3827,1.6166,1.5456,1.5811,1.7479,1.74,1.7394,1.7485,1.8093,1.8332,1.8421,1.8648,1.8693,1.8672,1.4938,1.3389,1.364,1.2566,1.0003,0.6541,0.2916,-0.172,-0.6907,-1.0774,-1.3308,0.0,0.0,0.0,0.0,0.0,0.0,0.0,0.0,0.0,0.0,0.0,0.0,0.0,-0.7208,0.0,0.0,0.0,0.0,0.0,0.0,0.0,0.0,0.0,0.0,0.0,0.0,0.0,0.0,0.0,0.0,0.0,0.0,0.0,0.0,0.0,0.0,0.0,0.0,0.0,0.0,0.0,0.0,0.0,-2.5059,-2.5059,-2.5194,-2.5464,-2.5464,-2.5464,-2.5464,-2.5194,-2.5059,-2.5059,-2.5059,-2.5059,-2.5059,-2.5059,-2.5059,-2.5059,-2.5059,-2.5059,-2.5059,-2.5059,-2.5059,-2.5059,-2.5059,-2.5059,-2.5059,-2.5059,-2.5059,-2.5322,0.0,0.0,0.0,0.0,0.0,0.0,0.0,0.0,1.0697,1.1085,0.0,0.0,0.0,0.0,0.0,1.3017,1.3027,1.3575,1.5182,1.5214,1.5798,1.7461,0.0,0.0,1.7485,1.7231,1.7225,1.7485,1.8473,1.9045,1.9325,1.9319,1.9479,1.9648,1.7625,1.7134,1.7778,1.7923,1.4776,0.9288,0.4194,-0.0526,-0.5335,-1.1841,0.0,0.0,-1.5154,-1.5279,0.0,-1.5769,0.0,0.0,0.0,0.0,0.0,0.0,0.0,0.0,0.0,0.0,0.0,0.0,0.0,0.0,0.0,0.0,0.0,0.0,0.0,0.0,0.0,0.0,0.0,0.0,0.0,0.0,0.0,0.0,0.0,0.0,0.0,0.0,0.0,0.0,0.0,0.0,0.0,-2.5052,-2.5059,-2.5059,-2.5059,-2.5052,-2.5059,-2.5059,-2.5052,-2.5059,-2.5059,-2.5059,-2.5059,-2.5059,-2.5059,-2.5059,-2.5059,-2.5059,-2.5059,-2.5059,-2.5059,-2.5059,-2.5059,-2.5059,-2.5059,-2.5059,-2.5059,-2.5059,-2.5059,-2.5322,0.0,0.0,0.0,0.0,0.0,1.1698,1.0551,1.0352,1.0367,0.0,0.0,0.0,1.047,1.0014,1.0324,1.1452,1.1582,1.223,1.3565,1.3843,1.4893,1.708,1.6546,1.6526,1.7485,1.8332,1.8326,1.7485,1.9456,2.003,1.9325,2.0221,2.0273,1.9648,1.9579,1.9942,2.0398,1.7909,1.5584,1.2853,0.6566,0.1572,0.0,0.0,0.0,0.0,0.0,-1.8762,-1.811,0.0,-1.6774,-1.5336,0.0,0.0,-0.5446,0.0,0.0,-0.39,-0.3365,0.0,0.0,0.0,0.0,0.0,0.0,0.0,0.0,0.0,0.0,0.0,0.0,0.0,0.0,0.0,0.0,0.0,0.0,0.0,0.0,0.0,0.0,0.0,0.0,0.0,0.0,0.0,-2.3947,-2.3938,-2.5052,-2.5059,-2.5194,-2.5464,-2.5194,-2.5194,-2.5464,-2.5194,-2.5059,-2.5059,-2.5059,-2.5059,-2.5059,-2.5059,-2.5059,-2.5059,-2.5059,-2.5059,-2.5059,-2.5059,-2.5059,-2.5059,-2.5059,-2.5059,-2.5059,-2.5059,-2.5059,-2.545,0.0,0.0,0.0,0.0,0.0,1.0643,0.9971,0.9873,0.9986,0.0,0.0,0.0,0.9518,0.9099,0.9411,1.0711,1.1279,1.2247,1.3575,1.4272,1.5352,1.708,1.653,1.6885,1.8169,1.8859,1.9083,1.8964,2.0771,2.1466,2.0809,2.1743,2.2083,2.2053,2.1929,2.2369,2.3145,2.0929,1.8169,1.4636,0.753,0.0,0.0,-1.1228,-1.5144,0.0,0.0,0.0,-1.8812,-1.9677,-1.8794,0.0,0.0,0.0,0.0,0.0,0.0,-0.3363,-0.2828,-0.3229,-0.3629,0.0,0.0,0.0,0.0,-1.2211,0.0,0.0,0.0,0.0,0.0,0.0,0.0,0.0,0.0,0.0,0.0,0.0,0.0,0.0,0.0,0.0,0.0,0.0,0.0,-2.2767,-2.2133,-2.2147,-2.3236,-2.3802,-2.4217,-2.4488,-2.4909,-2.5194,-2.5329,-2.5194,-2.5059,-2.5059,-2.5059,-2.5059,-2.5059,-2.5059,-2.5059,-2.5059,-2.5059,-2.5059,-2.5059,-2.5059,-2.5059,-2.5059,-2.5059,-2.5059,-2.5059,-2.5059,-2.545,-2.6234,0.0,0.0,1.1546,1.0355,0.9375,0.8937,0.9158,0.9268,0.9375,0.0,0.9706,0.9596,0.9379,0.9047,0.9372,1.0457,1.1542,1.2821,1.424,1.5493,1.6384,1.6978,1.7062,1.765,1.9041,1.9166,1.9735,2.0902,2.2212,2.2902,2.2982,2.3568,2.4367,2.5161,2.4603,2.4698,2.5611,2.5521,2.1631,1.5041,0.7917,0.1543,0.0,0.0,-1.5298,-1.5559,-1.7007,-1.7684,-1.8273,-2.1318,-2.0947,0.0,0.0,0.0,0.0,0.0,-0.449,-0.3503,-0.2963,-0.2424,-0.2154,0.0,0.0,0.0,-0.8254,-1.0109,-1.21,0.0,0.0,0.0,0.0,0.0,0.0,0.0,0.0,0.0,0.0,0.0,0.0,0.0,0.0,0.0,0.0,-1.9286,-1.9496,-2.0098,-2.0324,-2.0327,-2.0587,-2.1984,-2.2819,-2.2819,-2.4353,-2.5059,-2.5059,-2.5059,-2.5059,-2.5059,-2.5059,-2.5059,-2.5059,-2.5059,-2.5059,-2.5059,-2.5059,-2.5059,-2.5059,-2.5059,-2.5059,-2.5059,-2.5059,-2.5059,-2.5059,-2.5322,-2.6107,-2.7278,0.0,1.2313,1.1214,1.0127,0.8923,0.8159,0.8266,0.8488,0.8709,0.8706,0.8933,0.9047,0.9047,0.8937,0.9047,0.9265,1.0351,1.1559,1.2801,1.4182,1.5441,1.6435,1.6857,1.7225,1.7504,1.959,2.0394,1.9659,2.2806,2.3941,2.3103,2.5146,2.54,2.4258,2.6667,2.7051,2.6001,2.7408,0.0,1.4769,0.9901,0.0,-0.141,-1.0616,-1.6028,-1.8822,-2.02,-2.045,-2.044,-2.0863,-1.9792,-1.7628,0.0,0.0,0.0,0.0,0.0,0.0,0.0,0.0,0.0,0.0,0.0,0.0,-0.4686,-0.508,-0.5471,0.0,0.0,0.0,0.0,0.0,0.0,0.0,0.0,0.0,0.0,0.0,0.0,0.0,0.0,0.0,0.0,-1.8273,-1.8301,-1.9579,-2.0118,-2.0327,-2.0587,-2.1984,-2.2819,-2.2819,-2.4353,-2.5059,-2.5059,-2.5059,-2.5059,-2.5059,-2.5059,-2.5059,-2.5059,-2.5059,-2.5059,-2.5059,-2.5059,-2.5059,-2.5059,-2.5059,-2.5059,-2.5059,-2.5059,-2.5059,-2.5187,-2.6368,-2.6886,-2.7411,1.1991,1.1004,1.0123,0.9688,0.8702,0.8045,0.8045,0.8273,0.8383,0.8266,0.8488,0.8712,0.8937,0.894,0.9154,0.9699,1.0347,1.1437,1.3181,1.3832,1.4828,1.6278,1.6558,1.7061,1.7989,2.0067,2.1137,2.1152,2.356,2.4778,2.4932,2.59,2.5366,2.3677,2.6194,2.6883,2.6227,2.8546,2.6457,2.1067,1.2243,0.0,-0.4027,-1.1799,-1.6332,-1.8641,-2.0223,-2.1076,-2.1389,-2.086,-1.9582,0.0,0.0,-1.2681,-1.0208,0.0,-0.6369,-0.5059,0.0,0.0,0.0,-0.1077,0.0,0.0,0.0,-0.2542,-0.2538,0.0,0.0,0.0,0.0,0.0,0.0,0.0,0.0,0.0,0.0,0.0,0.0,0.0,0.0,0.0,0.0,-1.6452,-1.6434,-1.733,-1.7669,-1.8058,-1.8035,-1.9539,-2.0355,-2.0355,-2.2392,-2.3616,-2.3616,-2.4455,-2.481,-2.4818,-2.4979,-2.5059,-2.5059,-2.5059,-2.5059,-2.5059,-2.5059,-2.5059,-2.5059,-2.5059,-2.5059,-2.5059,-2.5059,-2.545,-2.6234,-2.6886,-2.7932,-2.9361,1.0554,0.9574,0.8696,0.8799,0.8257,0.7601,0.7263,0.7835,0.8174,0.8051,0.8156,0.8263,0.8491,0.8377,0.8592,0.9567,0.9923,1.1021,1.3393,1.332,1.4076,1.6162,1.6098,1.6809,1.8665,2.0074,2.1479,2.2869,2.4082,2.5396,2.6807,2.6619,2.5653,2.4244,2.6089,2.6867,2.7059,2.9254,0.0,2.5822,0.0,0.4751,-0.4512,-1.1279,-1.475,-1.6165,-1.8345,-1.9963,-2.1027,-2.0016,-1.91,-1.7819,-1.527,-1.2481,0.0,0.0,0.0,0.0,0.0,0.0,0.0,0.0,0.0,0.1074,0.0,0.0,0.0,-0.1865,0.0,0.0,0.0,0.0,0.0,0.0,0.0,0.0,0.0,0.0,0.0,0.0,0.0,0.0,0.0,-1.48,-1.5016,-1.5215,-1.5394,-1.5517,-1.556,-1.7032,-1.7836,-1.7836,-2.0491,-2.1951,-2.1951,-2.3669,-2.4474,-2.4481,-2.4744,-2.4869,-2.4869,-2.4869,-2.4869,-2.4869,-2.4869,-2.4869,-2.4869,-2.4869,-2.5003,-2.5271,-2.5398,-2.6107,-2.7153,-2.7668,-2.9361,-3.1313,0.8786,0.8572,0.7802,0.6785,0.6695,0.6376,0.4812,0.6495,0.7958,0.8177,0.7385,0.6932,0.7265,0.6366,0.5806,0.6026,0.6995,0.8568,1.0858,1.1003,1.2663,1.6168,1.5311,1.5784,1.7995,1.9287,2.0694,2.2191,2.3764,2.5309,2.6807,2.8264,2.851,2.7813,2.9203,2.9507,2.9074,0.0,2.6321,0.0,1.7874,1.3117,0.0,-0.3224,-0.8267,-1.0924,-1.4808,-1.702,-1.8031,0.0,-1.7168,-1.7647,0.0,-1.2291,-1.1688,0.0,0.0,0.0,0.0,0.0,0.0,0.0,0.2956,0.0,0.0,0.0,0.3221,0.1743,0.0,0.0,0.0,0.0,0.0,0.0,0.0,0.0,0.0,0.0,0.0,0.0,0.0,0.0,0.0,0.0,-1.5016,-1.5215,-1.5257,-1.5352,-1.555,-1.7032,-1.7836,-1.7836,-2.0491,-2.1951,-2.1951,-2.3456,-2.4137,-2.4137,-2.4174,-2.4188,-2.4188,-2.4188,-2.4188,-2.4188,-2.4188,-2.4188,-2.4188,-2.4188,-2.4833,-2.5908,-2.665,-2.702,-2.7411,-2.9882,-3.1056,-3.1451,0.8593,0.6251,0.5133,0.5242,0.4801,0.4137,0.3467,0.47,0.5146,0.3684,0.514,0.604,0.547,0.5359,0.5156,0.4637,0.0,0.6961,0.0,0.0,1.1515,1.3913,1.4831,1.5697,1.658,1.8692,2.0672,2.2375,2.4342,2.6346,2.8303,2.9744,2.8953,2.654,2.7621,0.0,2.6279,0.0,2.8002,0.0,0.0,0.0,0.0,0.0276,-0.7102,-1.0839,-1.2651,-1.3584,-1.4061,0.0,-1.3559,0.0,0.0,0.0,0.0,0.0,0.0,0.0,0.0,0.0,0.0,0.0,0.0,0.0,0.2692,0.0,0.4166,0.0,0.0,0.0,0.0,0.0,0.0,0.0,0.0,0.0,0.0,0.0,0.0,0.0,0.0,0.0,0.0,0.0,0.0,0.0,0.0,-1.4431,-1.5191,-1.5717,-1.6115,-1.6115,-1.8063,-1.9492,-2.0276,-2.1876,-2.3013,-2.3801,-2.3991,-2.4086,-2.4086,-2.4086,-2.4086,-2.4086,-2.4086,-2.4086,-2.4086,-2.4086,-2.4842,-2.6144,-2.7196,-2.8212,-2.8971,-3.0122,-3.1146,-3.1923,0.6241,0.3729,0.2928,0.3039,0.2711,0.238,0.2268,0.2723,0.2495,0.1133,0.2948,0.4309,0.4189,0.3963,0.0,0.0,0.3356,0.4526,0.0,0.0,0.9497,0.0,0.0,0.0,0.0,1.821,2.0706,2.3153,2.5057,2.7386,3.0052,3.1134,3.0329,2.7876,2.8183,2.7514,2.6227,0.0,2.937,2.7865,2.9164,2.4464,1.5379,0.2966,-0.4699,-0.891,-0.891,-0.9204,-0.9641,-0.9501,-0.9391,0.0,-0.9554,0.0,0.0,0.0,0.0,0.0,-0.0429,0.0,0.0,0.0,0.0,0.0,0.0,0.0,0.0,0.0,0.0,0.0,0.0,0.0,0.0,0.0,0.0,0.0,0.0,0.0,0.0,0.0,0.0,0.0,0.0,0.0,0.0,0.0,0.0,0.0,-1.48,-1.4931,-1.4931,-1.4931,-1.6152,-1.7396,-1.8418,-2.0329,-2.1669,-2.2692,-2.3323,-2.3559,-2.3567,-2.3647,-2.3684,-2.3691,-2.3779,-2.3815,-2.3815,-2.3815,-2.4825,-2.6331,-2.7452,-2.8818,-3.0335,-3.0568,-3.1285,-3.2168,0.0469,0.1275,0.172,-0.0,0.0812,0.1642,0.1174,0.0588,0.094,0.3052,0.0,0.0,0.0,0.0,0.0,0.0,0.0,0.0595,0.3848,0.0,0.585,0.0,0.0,1.3532,0.0,0.0,2.0787,2.4408,2.5461,2.7991,3.1919,3.259,3.369,3.4913,3.3274,3.2272,3.1711,3.0817,2.8582,2.5524,2.4964,1.956,1.1203,0.0,0.1154,-0.26,-0.26,0.0,0.0,-0.4493,-0.4939,0.0,0.0,0.0,0.0,0.0,0.0,0.0,0.0,0.0,0.0,0.6455,0.0,0.0,0.0,0.0,0.5906,0.0,0.0,0.0,0.0,0.0,0.0,0.0,0.0,0.0,0.0,0.0,0.0,0.0,0.0,0.0,0.0,0.0,0.0,0.0,0.0,0.0,-1.48,-1.4931,-1.4931,-1.4931,-1.6136,-1.6772,-1.6772,-1.9154,-2.0375,-2.0375,-2.1619,-2.2242,-2.225,-2.2542,-2.2674,-2.2689,-2.3003,-2.3142,-2.3142,-2.3142,-2.461,-2.6926,-2.7056,-2.8627,-3.1035,-3.1865,-3.2168,-3.2168,-0.1385,-0.3773,-0.3654,-0.1285,-0.1172,-0.1294,-0.0942,-0.1884,-0.2001,0.0,0.0,0.0,0.0,-0.047,-0.0946,0.0,0.0,-0.0482,0.0844,0.2907,0.0,0.0,0.0,1.1431,0.0,0.0,0.0,0.0,2.5805,2.8173,3.0682,3.3748,3.5364,3.5745,3.5768,3.4218,0.0,0.0,0.0,0.0,0.0,2.0792,1.5756,0.0,0.0,0.3031,0.3031,0.2168,0.0,0.1304,0.0435,-0.0872,-0.145,-0.1015,-0.0725,-0.3046,-0.436,0.0,0.0,0.0,0.7667,0.586,0.0,0.0,0.0,0.0,0.0,0.0,0.0,0.0,0.0,0.0,0.0,0.0,0.0,0.0,0.0,0.0,0.0,0.0,0.0,0.0,0.0,0.0,0.0,0.0,0.0,0.0,0.0,-1.4539,-1.4609,-1.4737,-1.5046,-1.5686,-1.6518,-1.8153,-1.9338,-2.0335,-2.1562,-2.2184,-2.2184,-2.2286,-2.233,-2.2337,-2.2447,-2.2498,-2.262,-2.3308,-2.4867,-2.6764,-2.7594,-2.9071,-3.0928,-3.1221,-3.1318,-3.1318,-0.3868,-0.6379,-0.615,-0.3443,0.0,-0.3942,-0.3348,0.0,0.0,0.0,-0.3469,0.0,-0.2512,0.0,-0.2163,0.0,-0.2187,-0.1829,-0.1229,0.0986,0.0,0.1239,0.6066,0.0,0.0,0.0,0.0,0.0,0.0,2.8002,3.0888,3.4148,3.6019,3.6752,3.7917,3.6191,3.2313,0.0,3.1828,0.0,0.0,2.3222,0.0,0.0,1.2868,0.9072,0.0,0.793,0.6359,0.6359,0.5063,0.333,0.2891,0.3327,0.3619,0.1879,0.0869,0.0726,0.3052,0.6188,0.0,0.6881,0.6206,0.0,0.7134,0.0,0.0,0.0,0.0,0.0,0.0,0.0,0.0,0.0,0.0,0.0,0.0,0.5915,0.0,0.0,0.0,0.0,0.0,0.0,0.0,0.0,0.0,0.0,0.0,0.0,-1.4341,-1.427,-1.4323,-1.4712,-1.5546,-1.715,-1.8317,-1.9289,-2.0991,-2.184,-2.184,-2.1957,-2.2008,-2.2015,-2.2132,-2.2184,-2.2296,-2.3448,-2.485,-2.636,-2.7651,-2.9075,-3.0664,-3.083,-3.0889,-3.0889,-0.6994,-0.6385,0.0,0.0,-0.6449,0.0,0.0,0.0,-0.4545,0.0,-0.4925,-0.3944,-0.3452,-0.3826,-0.3707,-0.2718,-0.3463,-0.3586,-0.2719,-0.15,0.0,0.0,0.3051,0.5361,0.509,0.0,0.0,0.0,0.0,2.7604,3.2447,3.4015,3.5813,3.7998,3.9749,0.0,3.4093,3.472,3.2207,2.7751,2.739,2.6275,2.5032,2.5032,2.1015,1.5489,1.5216,1.3354,1.0782,1.0785,0.9209,0.7345,0.7202,0.6634,0.5923,0.5779,0.7553,0.9496,0.9914,0.7422,0.5452,0.9388,0.0,0.0,0.0,0.0,0.698,0.0,0.0,0.0,0.0,0.0,0.0,0.0,0.0,0.0,0.0,0.0,0.0,0.0,0.0,0.0,0.0,0.0,0.0,0.0,0.0,0.0,0.0,0.0,-1.3888,-1.3811,-1.399,-1.4005,-1.3996,-1.6159,-1.7325,-1.7443,-1.991,-2.1096,-2.1218,-2.1533,-2.1672,-2.1686,-2.2001,-2.2132,-2.2252,-2.3394,-2.4662,-2.5947,-2.7227,-2.8634,-3.0225,-3.0713,-3.0889,-3.0889,-0.6761,-0.8058,-0.9224,0.0,-0.8503,-0.663,0.0,0.0,0.0,0.0,-0.6884,-0.6546,-0.5739,-0.6498,-0.6531,-0.5463,-0.5597,0.0,0.0,0.0,0.0,-0.3333,-0.0128,0.1801,0.2199,0.7508,0.0,1.6097,0.0,0.0,2.9164,3.2085,3.5191,3.8526,0.0,0.0,3.5718,3.7114,3.4116,2.8491,2.8698,2.7908,0.0,0.0,2.5442,2.3506,2.0221,1.7983,1.6423,1.5484,1.4356,1.307,1.1949,1.2098,1.2248,1.1119,1.1139,1.1295,0.9856,0.8679,0.7956,0.8959,0.92,0.9279,0.0,0.0,0.0,0.0,0.0,0.0,0.0,0.0,0.0,0.0,0.0,0.0,0.0,0.0,0.0,0.0,0.0,0.0,0.0,0.0,0.0,0.0,0.0,0.0,0.0,0.0,0.0,-1.4192,-1.4114,-1.3934,-1.3773,-1.525,-1.6509,-1.7443,-1.8971,-2.0263,-2.1211,-2.1298,-2.1335,-2.1342,-2.1423,-2.1459,-2.1568,-2.3683,-2.4859,-2.5691,-2.7725,-2.9003,-2.9824,-3.0605,-3.0889,-3.1005,-0.8802,0.0,0.0,-1.1892,0.0,0.0,-0.888,0.0,0.0,-0.9249,-0.901,0.0,-0.81,-0.8111,-0.8015,-0.7314,-0.7191,0.0,-0.6298,0.0,0.0,-0.5069,-0.2482,-0.1182,-0.145,0.3545,0.0,1.1934,0.0,0.0,2.6223,3.0597,3.3983,3.6618,0.0,3.9189,3.5743,3.5077,3.2478,2.8617,2.8468,0.0,0.0,2.7113,2.7519,2.7643,2.4494,2.216,2.0365,1.8894,1.8068,1.7353,1.6516,1.6656,1.6661,1.5265,1.4411,1.3405,1.1705,1.1071,1.0714,1.0175,1.039,1.0717,1.019,1.0054,0.9652,0.0,0.0,0.0,0.0,0.0,0.0,0.0,0.0,0.0,0.0,0.0,0.0,0.0,0.0,0.0,0.0,0.0,0.0,0.0,0.0,0.0,0.0,0.0,0.0,-1.3811,-1.395,-1.3915,-1.3835,-1.5131,-1.6261,-1.7443,-1.8732,-1.9917,-2.1211,-2.1211,-2.1211,-2.1211,-2.1211,-2.1211,-2.1432,-2.3735,-2.4864,-2.5302,-2.7943,-2.9062,-2.9365,-3.0059,-3.0764,-3.1506,-1.1565,0.0,0.0,0.0,0.0,0.0,0.0,-1.1557,0.0,-1.1909,0.0,-1.0133,-1.0022,-0.9385,-0.8881,-0.877,0.0,-0.8132,-0.6976,-0.6671,-0.6585,-0.6585,-0.4535,-0.4028,-0.5225,-0.0667,0.0,0.0,0.0,0.0,2.3771,2.914,3.2468,3.4181,0.0,0.0,0.0,3.113,2.9256,2.8345,2.7519,2.7113,2.7113,2.7246,2.8188,2.9134,2.7652,2.5614,2.344,2.1709,2.1032,2.0743,2.0334,2.0178,1.9739,1.8497,1.7228,1.6098,1.4995,1.4297,1.3593,1.2342,1.2373,1.2541,1.1788,1.1247,1.0575,0.8867,0.6842,0.4958,0.0,0.0,0.0,0.0,0.0,0.0,0.0,0.0,0.0,0.0,0.0,0.0,0.0,0.0,0.0,0.0,0.0,0.0,0.0,0.0,0.0,-1.2956,-1.3564,0.0,-1.3929,0.0,-1.6172,-1.7262,-1.8519,-1.9679,-2.0974,-2.1089,-2.1211,-2.1211,-2.1211,-2.1211,-2.1432,-2.3735,-2.4948,-2.5423,-2.7901,-2.8838,-2.8887,-2.9547,-3.0691,-3.218,0.0,0.0,0.0,0.0,0.0,-1.4923,-1.3379,-1.2726,-1.2528,-1.2666,-1.2032,-1.1322,-1.0805,-1.1471,-1.1401,-1.0349,-1.0359,0.0,0.0,0.0,0.0,-0.8143,-0.7762,-0.7636,-0.7902,-0.4815,-0.0931,0.0,0.0,0.0,2.2742,2.6274,3.0727,0.0,0.0,0.0,3.4051,3.0459,0.0,2.7387,2.7113,2.7113,2.7246,2.846,2.9134,2.9134,2.7652,2.7511,2.7784,2.5121,2.4317,2.4181,2.1721,2.1596,2.2009,2.0599,2.0316,2.031,1.8899,1.7591,1.6305,1.4801,1.3578,1.28,1.2541,1.2541,1.1604,0.8681,0.7747,0.7082,0.5629,0.0,0.0,0.0,0.0,0.0,0.0,0.0,0.0,0.0,0.0,0.0,0.0,0.0,0.0,0.0,0.0,0.0,0.0,0.0,0.0,0.0,-1.3121,0.0,0.0,0.0,-1.4948,-1.6211,-1.7191,-1.8383,-1.9673,-2.0737,-2.1211,-2.1211,-2.1211,-2.1211,-2.1432,-2.3735,-2.5836,-2.7736,-2.8262,-2.8398,-2.8555,-2.9941,-3.1199,-3.2444,0.0,0.0,0.0,0.0,0.0,0.0,0.0,-1.4608,0.0,-1.3727,-1.3212,-1.273,-1.2291,-1.2437,-1.2477,-1.1894,-1.2417,-1.2281,-1.0836,-1.0687,-1.0419,-0.9772,-0.8972,0.0,-0.964,-0.7629,-0.4419,-0.0134,0.0,0.0,1.9209,0.0,0.0,3.197,0.0,3.2854,0.0,0.0,0.0,2.5927,2.5263,2.4858,2.4993,2.5667,2.647,2.7004,2.7121,2.818,2.8986,2.5405,2.4481,2.4481,2.3249,2.34,2.3816,2.2421,2.2284,2.2252,2.0847,1.984,1.8974,1.8028,1.7206,1.6431,1.5639,1.5505,1.4716,1.1822,1.1297,1.0909,0.9883,1.0048,0.0,0.0,0.0,0.0,0.0,0.0,0.0,0.0,0.0,0.0,0.0,0.0,0.0,0.0,0.0,0.0,0.0,0.0,0.0,0.0,0.0,0.0,0.0,0.0,0.0,-1.5736,-1.6914,-1.8033,-1.9325,-2.0615,-2.1211,-2.1211,-2.1211,-2.1211,-2.1432,-2.3735,-2.6173,-2.8291,-2.8291,-2.8291,-2.8417,-2.9758,-3.0978,-3.2159,0.0,-1.452,0.0,0.0,-1.5944,0.0,-1.5038,-1.6343,-1.6737,-1.4665,-1.4141,-1.3748,-1.3503,-1.3363,-1.3227,-1.3227,-1.452,-1.4376,-1.2142,-1.2787,-1.2791,-1.1622,-1.0329,-1.0079,-1.115,-0.9841,-0.7323,0.0,0.0,0.0,0.0,0.0,0.0,0.0,0.0,0.0,0.0,0.0,2.4822,2.4053,2.3263,2.2859,2.2996,2.3529,2.4338,2.5143,2.6722,2.7916,2.8452,2.5135,2.4481,2.4887,2.4631,2.4909,2.5315,2.4088,2.3945,2.3868,2.2364,2.1658,2.1227,2.0812,2.0406,1.9807,1.8744,1.8477,1.7831,1.5495,1.4721,1.4065,1.3535,1.2374,0.0,0.0,0.0,0.0,0.0,0.0,0.0,0.0,0.0,0.0,0.0,0.0,0.0,0.0,0.0,-0.1993,-0.4519,-0.5184,0.0,0.0,0.0,-1.1386,-1.1507,0.0,-1.4312,0.0,-1.6767,-1.791,-1.8971,-2.05,-2.1211,-2.1211,-2.1211,-2.1425,-2.2093,-2.3958,-2.6173,-2.8291,-2.8291,-2.8291,-2.8495,-2.9828,-3.0856,-3.1889,0.0,0.0,0.0,0.0,0.0,0.0,-1.5429,-1.7238,-1.7759,-1.4791,-1.4141,-1.3748,-1.3503,-1.4137,-1.4651,-1.4651,-1.5944,-1.6716,-1.6457,-1.5289,-1.4642,-1.4516,-1.3369,-1.2799,-1.2933,-1.1582,-0.9148,0.0,0.0,0.0,0.0,0.0,0.0,0.0,0.0,0.0,0.0,2.3093,2.2232,2.1183,2.2441,2.2859,2.3126,2.5786,2.6061,2.5278,2.7004,2.6871,2.5943,2.6211,2.7129,2.7792,2.5292,2.5562,2.6627,2.5315,2.5839,2.6416,2.4775,2.3391,2.2415,2.1998,2.106,2.0075,1.9941,1.9941,1.954,1.7953,1.5883,1.4276,1.4098,1.3178,1.2438,0.0,0.0,0.0,0.0,0.0,0.0,0.0,0.0,0.0,0.0,0.0,0.0,0.0,0.0,0.2965,0.0904,-0.2452,-0.4516,-0.4773,0.0,-1.04,-1.0991,-1.2105,-1.3137,-1.4221,-1.638,-1.7443,-1.7677,-2.0148,-2.1211,-2.1211,-2.1211,-2.2418,-2.4394,-2.4616,-2.6173,-2.8291,-2.8291,-2.8291,-2.8601,-3.065,-3.1472,-3.1891,0.0,0.0,0.0,0.0,0.0,0.0,0.0,-1.8518,-1.884,-1.782,-1.6931,-1.6203,-1.5944,-1.6191,-1.6403,-1.6403,-1.784,-1.806,-1.6215,-1.6481,-1.5815,-1.4088,-1.3489,-1.3258,-1.3258,-1.2776,-1.1185,0.0,0.0,0.0,0.0,0.0,0.0,0.0,0.0,1.9977,1.8672,1.9715,2.0322,2.0629,2.1327,2.2022,2.2996,2.4196,2.4331,2.4338,2.673,2.7527,2.7527,2.8715,2.832,2.7403,2.7403,2.78,2.8073,2.6761,2.6627,2.6636,2.4803,2.3912,2.3429,2.2794,2.2321,2.1846,2.1846,2.1846,2.1587,2.0423,1.8878,1.7563,1.6957,1.5681,1.4784,0.0,0.0,0.0,0.0,0.0,0.0,0.0,0.0,0.0,0.0,0.0,0.0,0.0,0.0,0.0,0.1541,-0.0128,0.0,-0.3217,0.0,-0.8416,-0.9728,-1.1542,-1.2943,-1.3816,-1.5499,-1.6744,-1.7443,-1.921,-2.05,-2.1211,-2.1987,-2.3191,-2.4727,-2.5507,-2.6735,-2.8291,-2.8291,-2.8698,-2.9408,-3.1062,-3.1982,-3.2801,-1.6726,0.0,-1.7501,0.0,-1.8682,-1.8699,-1.9145,-1.9157,-1.9259,-1.9644,-1.925,-1.8741,-1.7956,-1.8114,-1.8094,-1.8094,-1.9188,-1.9032,-1.7021,-1.7016,-1.6069,-1.4045,-1.3692,0.0,-1.3449,-1.3502,-1.2606,-1.0886,-0.6377,0.0,0.0,0.0,0.0,0.0,1.344,1.4617,1.4553,1.6394,1.8089,1.9495,2.0346,2.1465,2.2996,2.34,2.3665,2.4331,2.6337,2.7792,2.8838,2.95,2.8969,2.8048,2.846,2.8863,2.8863,2.702,2.6753,2.6604,2.4639,2.4086,2.3925,2.3274,2.3106,2.3106,2.3106,2.3106,2.2856,2.2237,2.1222,2.0335,1.9559,1.8371,1.7466,1.7547,0.0,0.0,0.0,0.0,0.0,0.0,0.0,1.1953,1.108,0.0,0.0,0.0,0.0,0.0,0.0,0.0,0.0,0.0,0.0,0.0,0.0,-1.0569,-1.2361,-1.3324,-1.4862,-1.6042,-1.6979,-1.8506,-2.0033,-2.1325,-2.2425,-2.3631,-2.4837,-2.5963,-2.7187,-2.8291,-2.8291,-2.9006,-3.0026,-3.1165,-3.2286,-3.33,-1.8816,-1.9577,-2.0081,-2.0106,-2.0106,-1.9683,-1.8626,-1.8923,-1.928,-1.873,-2.0219,-2.0743,-1.9009,-1.9415,-1.982,-1.982,-1.9839,-1.9845,-1.9711,-1.7011,-1.5391,0.0,0.0,-1.364,-1.364,-1.3807,-1.317,-1.1582,0.0,0.0,-0.0843,0.0,0.8208,0.9217,0.9217,0.9678,1.0593,1.3282,1.5393,1.6942,1.9495,2.1465,2.2996,2.4474,2.5128,2.5517,2.5958,2.7278,2.8583,2.7543,2.8969,3.0789,2.8065,2.8065,2.8592,2.5981,2.6107,2.6604,2.4639,2.4086,2.3925,2.3274,2.3106,2.3106,2.3106,2.3106,2.3106,2.3113,2.2237,2.1607,2.1607,2.0716,1.9986,1.9712,0.0,0.0,0.0,0.0,0.0,0.0,1.3586,1.1888,1.1884,0.0,0.0,0.0,0.0,0.0,0.0,0.0,0.0,0.0988,-0.2587,0.0,-0.5393,-0.9067,-1.1273,-1.2234,-1.45,-1.5575,-1.5693,-1.815,-2.0033,-2.1325,-2.2425,-2.3631,-2.4837,-2.5963,-2.7187,-2.8291,-2.8291,-2.9006,-3.0026,-3.1165,-3.2286,-3.33,-1.9072,-1.9705,-2.0208,-2.0354,-2.0387,-2.0412,-2.0488,-2.0921,-2.1411,-2.2218,-2.2791,-2.3006,-2.2809,-2.2251,-2.1864,0.0,-2.1777,-2.148,0.0,-1.8578,-1.6917,-1.5952,-1.4484,-1.3819,-1.3819,-1.3872,-1.3174,-1.1586,0.0,0.0,0.0,-0.0287,0.2594,0.3764,0.5645,0.7535,0.9438,1.1872,1.3717,1.5397,1.8089,2.0063,2.1465,2.3256,2.421,2.4609,2.595,2.6879,2.78,2.9492,3.0531,3.1185,3.0272,3.0936,3.146,2.8723,2.8846,2.9327,2.6295,2.5479,2.5188,2.3518,2.3106,2.3106,2.3106,2.3106,2.3106,2.3106,2.2856,2.2355,2.1734,2.1355,2.0816,2.0087,2.0017,0.0,0.0,0.0,0.0,0.0,1.565,1.4285,0.0,1.3463,0.0,0.0,0.0,0.0,0.0,0.0,0.0,0.0,-0.1475,0.0,-0.5762,-0.9067,-1.1273,-1.2238,-1.3679,-1.5219,-1.6856,-1.85,-2.0033,-2.1318,-2.3303,-2.4394,-2.4837,-2.6844,-2.796,-2.8291,-2.8291,-2.9418,-3.1062,-3.1472,-3.27,-3.4323,-1.9194,-1.9705,-2.024,-2.0873,-2.0657,-2.072,-2.1188,-2.1363,-2.1844,-2.266,-2.3375,-2.3721,-2.3645,-2.3506,0.0,-2.2849,-2.2336,-2.1609,-2.0629,-1.9222,-1.7684,-1.6155,-1.5168,-1.4466,-1.39,0.0,0.0,-1.2452,-1.1299,-0.943,-0.698,-0.3493,-0.1165,0.0436,0.2759,0.5082,0.741,0.9867,1.2008,1.3977,1.6108,1.8369,2.0768,2.2016,2.3522,2.4887,2.5555,2.7004,2.8846,2.9492,3.0798,3.1845,3.0798,3.1845,3.2902,3.0039,2.9656,2.9789,2.7527,2.6763,2.6267,2.4347,2.3845,2.372,2.323,2.3106,2.3106,2.3106,2.3106,2.2863,2.2237,2.2104,2.1978,2.1342,2.1215,2.0982,2.0316,0.0,0.0,0.0,0.0,0.0,0.0,1.4629,0.0,0.0,0.0,0.0,0.0,0.0,0.0,0.3322,0.0492,0.0,-0.5403,-0.8218,-1.0418,-1.1631,-1.3084,-1.4748,-1.6744,-1.8033,-1.9325,-2.0615,-2.3071,-2.4283,-2.4837,-2.6844,-2.7853,-2.8291,-2.8291,-2.9628,-3.1575,-3.1575,-3.3001,-3.4823,-1.9316,-1.9839,0.0,0.0,-2.0935,0.0,-2.0871,-2.0946,-2.0897,-2.0737,-2.2415,-2.3236,-2.2552,-2.34,-2.3823,-2.3543,0.0,0.0,0.0,-1.9222,-1.7825,-1.6291,-1.6013,-1.531,-1.39,-1.39,-1.39,-1.39,-1.0875,-0.8711,-0.7123,-0.5096,-0.3203,-0.1164,0.0872,0.2908,0.4947,0.7555,1.0141,1.2551,1.3835,1.6666,2.0201,2.0762,2.2936,2.5667,2.4759,2.7254,3.0531,2.8056,2.9891,3.2638,3.029,3.1332,3.2902,3.016,2.9103,2.8844,2.8355,2.7968,2.7212,2.552,2.5071,2.4579,2.3355,2.3106,2.3106,2.3106,2.3106,2.3106,2.3106,2.3106,2.3106,2.3106,2.3091,2.2587,2.1396,0.0,0.0,0.0,0.0,0.0,0.0,1.5601,1.5116,0.0,0.0,0.0,0.0,0.0,0.653,0.4808,0.2955,-0.0,-0.4185,-0.6632,-0.8955,-1.091,-1.2719,-1.4277,-1.5693,-1.6856,-1.815,-1.9435,-2.1949,-2.3631,-2.4837,-2.5963,-2.7187,-2.8291,-2.8291,-2.9628,-3.1472,-3.1575,-3.2901,-3.4726,0.0,0.0,-2.0676,-2.1407,-2.1259,-2.1194,-2.1186,-2.2062,-2.2636,-2.2428,-2.3945,-2.4909,-2.4495,-2.436,-2.4231,-2.3823,-2.2996,-2.2304,-2.2304,-1.9918,-1.8245,-1.7825,-1.5584,-1.4324,-1.39,-1.39,-1.39,-1.39,-1.2022,-1.0293,-0.8714,-0.6397,-0.3928,-0.1164,0.1164,0.3056,0.4947,0.7555,0.9,0.9856,1.2126,1.4257,1.6103,1.8197,2.0569,2.2812,2.3393,2.4887,2.6761,2.8205,2.9378,3.0419,3.1982,3.2902,3.3029,3.1322,3.1302,3.1539,3.0107,2.946,2.8445,2.5766,2.434,2.3472,2.3106,2.3106,2.3106,2.3106,2.3106,2.3106,2.3106,2.3106,2.3106,2.3106,2.2901,2.2508,2.2081,2.0907,0.0,0.0,1.7268,1.6414,1.572,1.5601,1.5235,0.0,0.0,0.0,0.0,0.9073,0.7614,0.616,0.2827,0.0615,-0.0369,-0.5397,-0.9195,-1.1872,-1.2359,-1.367,-1.5693,-1.6856,-1.815,-1.9435,-2.1949,-2.3631,-2.4837,-2.5963,-2.7187,-2.8291,-2.8291,-2.9112,-3.0442,-3.1268,-3.2488,-3.3709,-1.9732,-2.0011,-2.0185,-2.1897,-2.1811,-2.179,-2.2192,-2.3161,-2.3952,-2.3816,-2.5044,-2.5734,-2.5329,-2.4774,-2.4367,-2.4095,-2.3413,-2.2996,-2.2866,-2.0762,-1.9083,-1.8379,-1.6145,-1.4604,-1.39,-1.39,-1.39,-1.39,-1.2309,-1.0868,-0.9291,-0.7119,-0.4654,-0.2185,-0.0,0.1601,0.2766,0.567,0.7119,0.7837,0.9991,1.2276,1.4548,1.6225,1.8476,2.117,2.2421,2.3931,2.5555,2.7535,2.8723,2.9639,3.1717,3.2502,3.2327,3.2137,3.2191,3.2289,3.1095,3.0556,2.9701,2.7409,2.5912,2.4695,2.4092,2.3969,2.3845,2.323,2.3106,2.3106,2.3106,2.3106,2.3106,2.3106,2.2835,2.2391,2.1605,2.0795,0.0,1.8538,1.7578,1.6762,1.6295,1.5833,1.5359,1.4873,0.0,0.0,1.1382,1.04,0.9191,0.7516,0.2828,0.0492,0.0492,-0.5026,-0.8955,-1.0906,-1.1752,-1.3186,-1.4966,-1.6621,-1.815,-1.9441,-2.1288,-2.3191,-2.4727,-2.5397,-2.6735,-2.8291,-2.8291,-2.9006,-3.0026,-3.1165,-3.2286,-3.33,-1.9652,-1.9495,-1.9405,-2.2178,-2.2182,-2.2301,-2.3229,-2.4088,-2.4638,-2.4909,-2.5727,-2.6003,-2.5599,-2.5052,-2.4503,-2.4095,-2.3679,-2.327,-2.2866,-2.1189,-1.9646,-1.8385,-1.671,-1.5168,-1.39,-1.39,-1.39,-1.39,-1.2599,-1.1159,-0.9576,-0.7551,-0.5672,-0.379,-0.1456,-0.0291,0.0146,0.3057,0.5088,0.6242,0.7553,1.0278,1.3555,1.4115,1.6375,1.9629,2.0876,2.2929,2.5106,2.6321,2.7527,2.8977,3.0531,3.102,3.103,3.1922,3.1769,3.1488,3.1492,3.1083,3.0274,2.9166,2.7966,2.6771,2.5684,2.5194,2.4826,2.3604,2.323,2.3106,2.3106,2.3106,2.3106,2.3106,2.2798,2.2212,2.1222,0.0,1.9958,1.8532,1.7695,1.7109,1.6762,1.6065,1.5601,1.5601,1.5477,1.4267,1.1852,1.1491,1.0539,0.8509,0.3693,0.0615,-0.049,-0.538,-0.8314,-0.9271,-1.1071,-1.2618,-1.4143,-1.63,-1.8087,-1.9259,-2.0823,-2.2749,-2.4718,-2.4948,-2.6282,-2.8291,-2.8495,-2.9112,-3.0026,-3.137,-3.2387,-3.34,-1.8353,-1.8979,-1.9352,-2.0859,-2.1803,-2.2532,-2.3263,-2.4088,-2.4638,-2.4909,-2.5988,-2.6398,-2.5734,-2.5464,-2.5187,-2.4503,-2.4095,-2.3686,-2.2996,-2.034,-1.8659,-1.8385,-1.5726,-1.4185,-1.39,-1.39,-1.39,-1.39,-1.3611,-1.2742,-1.1155,-0.884,-0.6968,-0.5238,-0.1747,-0.0,0.0146,0.1893,0.3492,0.4946,0.5236,0.6972,0.9715,1.0431,1.327,1.6811,1.6947,1.9322,2.2532,2.4246,2.5338,2.6447,2.8838,2.9422,2.9093,2.8837,2.8578,2.8754,3.0916,3.0344,2.9166,2.892,2.7966,2.6892,2.6771,2.592,2.5071,2.4826,2.3845,2.3106,2.3106,2.3106,2.3106,2.3106,2.2623,2.2235,2.2064,0.0,2.0435,1.8629,1.8273,1.7578,1.5946,1.5715,1.5601,1.5601,1.4629,1.3301,1.1732,1.0646,0.9454,0.8019,0.716,0.3545,-0.3014,-0.6041,-0.8042,-0.9088,-1.0142,-1.1636,-1.3695,-1.6069,-1.7792,-1.9072,-2.1602,-2.3519,-2.4829,-2.5845,-2.707,-2.8398,-2.9313,-2.9713,-3.013,-3.2174,-3.3101,-3.34,-1.6916,-1.7202,-1.7657,-2.0233,-2.1102,-2.2153,-2.4481,-2.4766,-2.5307,-2.6651,-2.6792,-2.6532,-2.6264,-2.5861,-2.5322,-2.4774,-2.4503,-2.3959,-2.327,-2.0196,-1.8379,-1.8379,-1.5443,-1.39,-1.39,-1.39,-1.39,-1.39,-1.39,-1.3174,-1.1586,-1.0428,-0.8989,-0.6974,-0.4361,-0.291,-0.2329,-0.0,0.1456,0.2329,0.4075,0.5815,0.7548,0.8855,1.1289,1.4135,1.5543,1.7653,1.9895,2.2225,2.3617,2.473,2.6588,2.7417,2.7723,2.7993,2.7723,2.7635,2.9573,2.9552,2.9039,2.9785,2.9549,2.8948,2.8215,2.7004,2.592,2.5194,2.4092,2.3106,2.3106,2.3106,2.3054,2.2871,2.2476,0.0,0.0,2.1511,2.0859,2.0033,1.9448,1.8635,1.7232,1.6644,1.6183,1.5601,1.511,1.3784,1.1852,1.1129,0.993,0.8005,0.7847,0.4228,-0.3563,-0.6072,-0.7825,-0.8904,-0.9834,-1.1774,-1.4482,-1.6078,-1.793,-1.9921,-2.1846,-2.3451,-2.4837,-2.5963,-2.7187,-2.8398,-2.9513,-2.9922,-3.013,-3.2376,-3.3201,-3.34,-1.5143,-1.5498,-1.6182,-1.9836,-2.0629,-2.1996,-2.5689,-2.5577,-2.5854,-2.7998,-2.7467,-2.68,-2.6666,-2.613,-2.5727,-2.5315,-2.4909,-2.436,-2.3816,-2.0888,-1.8938,-1.8379,-1.5443,-1.39,-1.4047,-1.39,-1.39,-1.39,-1.39,-1.3321,-1.2162,-1.1586,-1.029,-0.8562,-0.6829,-0.5526,-0.4511,-0.2184,-0.0728,0.0146,0.262,0.4361,0.5662,0.7117,0.928,1.1572,1.3701,1.583,1.7814,1.9762,2.1446,2.2832,2.4089,2.5056,2.5789,2.6455,2.6413,2.6399,2.8086,2.8444,2.8692,2.9795,3.0039,2.9677,2.8692,2.7486,2.6286,2.5317,2.4092,2.3106,2.3106,2.3106,2.3003,2.2674,0.0,0.0,0.0,2.1415,2.1096,2.0859,2.004,1.91,1.8156,1.7226,1.6414,1.5596,1.5359,1.4147,1.1852,1.137,1.0258,0.792,0.7276,0.3581,-0.3508,-0.5977,-0.7713,-0.8689,-0.9724,-1.1864,-1.5088,-1.6174,-1.8014,-2.0612,-2.208,-2.3494,-2.4708,-2.6163,-2.7435,-2.8398,-2.9723,-3.0338,-3.0546,-3.2789,-3.361,-3.3709,-1.309,-1.4402,-1.6187,-1.9571,-2.0635,-2.2402,-2.6069,-2.5973,-2.6264,-2.7998,-2.76,-2.7067,-2.6792,-2.6658,-2.6398,-2.6003,-2.5322,-2.4909,-2.4909,-2.2689,-2.0611,-1.8519,-1.5443,-1.4047,-1.4479,-1.4047,-1.39,-1.39,-1.39,-1.39,-1.3611,-1.1446,-1.0437,-1.0146,-0.7837,-0.6103,-0.4657,-0.4511,-0.262,-0.0,0.0291,0.1311,0.2765,0.4365,0.6385,0.8539,0.9432,1.2588,1.6433,1.6831,1.8519,2.0461,2.1429,2.2225,2.2724,2.2563,2.2997,2.3961,2.6399,2.7134,2.7134,2.7254,2.7263,2.7254,2.7134,2.6164,2.5194,2.5071,2.4092,2.3106,2.3106,2.3106,2.3003,2.2674,0.0,0.0,2.1745,2.1415,2.0859,2.0046,1.91,1.8156,1.7226,1.6301,1.5715,1.5601,1.451,1.3181,1.1732,1.0528,0.9336,0.7937,0.5499,0.1657,-0.3564,-0.5994,-0.7658,-0.8513,-0.9396,-1.1459,-1.46,-1.5831,-1.761,-1.9957,-2.2454,-2.3862,-2.4538,-2.672,-2.7834,-2.8495,-3.065,-3.1472,-3.1779,-3.3906,-3.4726,-3.4726,-1.1073,-1.2448,-1.4549,-1.9027,-1.993,-2.1702,-2.6588,-2.662,-2.6902,-2.865,-2.8263,-2.76,-2.7067,-2.6792,-2.6666,-2.6532,-2.5861,-2.5322,-2.5044,-2.3106,-2.0743,-1.7819,-1.5447,-1.4336,-1.4479,-1.4332,-1.4189,-1.39,-1.39,-1.39,-1.39,-1.3031,-1.2312,-1.1739,-1.0003,-0.8559,-0.7553,-0.6538,-0.4943,-0.2766,-0.189,-0.0436,0.1019,0.262,0.4506,0.6528,0.7682,1.0129,1.2866,1.4135,1.6249,1.8326,1.8787,2.0172,2.1339,2.1018,2.1055,2.1587,2.3201,2.4687,2.6042,2.6771,2.7013,2.7013,2.7013,2.6042,2.5071,2.5071,2.4092,2.3106,2.3106,2.2945,2.271,2.2396,0.0,2.1767,2.1445,2.1284,2.1096,2.0744,1.9809,1.8868,1.7923,1.6997,1.6183,1.5596,1.4391,1.3062,1.1732,0.973,0.8301,0.7671,0.3744,-0.0,-0.3616,-0.5998,-0.7891,-0.9361,-0.9688,-1.1746,-1.5423,-1.5851,-1.7401,-1.9975,-2.2264,-2.3468,-2.4058,-2.6674,-2.7764,-2.8131,-3.0647,-3.1575,-3.188,-3.4017,-3.4823,-3.4823,-0.8729,-1.0965,-1.3796,-1.8894,-2.0039,-2.2076,-2.7246,-2.7668,-2.7949,-2.9561,-2.8922,-2.813,-2.76,-2.7067,-2.68,-2.68,-2.6264,-2.5727,-2.5315,-2.2963,-2.0328,-1.7404,-1.531,-1.4474,-1.4621,-1.4479,-1.4189,-1.4047,-1.39,-1.39,-1.39,-1.3757,-1.3325,-1.2753,-1.1456,-1.0299,-0.9291,-0.8129,-0.6827,-0.5235,-0.3632,-0.2472,-0.1311,0.0728,0.2473,0.4069,0.5944,0.7965,0.9991,1.1129,1.3649,1.612,1.6053,1.7556,1.9501,1.9395,1.9807,2.0202,2.0969,2.2334,2.3946,2.5423,2.5798,2.5798,2.5798,2.5071,2.4456,2.4456,2.372,2.3106,2.3106,2.2842,2.2528,2.2228,2.1906,2.1584,2.1254,2.0974,2.0744,2.0744,1.9924,1.8984,1.804,1.7343,1.6649,1.5715,1.4753,1.3517,1.177,0.9258,0.7367,0.6432,0.2407,-0.1356,-0.4706,-0.6391,-0.8057,-0.9798,-0.9798,-1.1964,-1.5861,-1.5861,-1.7251,-1.982,-2.1952,-2.3074,-2.3661,-2.6276,-2.7422,-2.7999,-3.0412,-3.1444,-3.188,-3.4017,-3.4823,-3.4823,-0.6076,-0.982,-1.4216,-1.9715,-2.1377,-2.352,-2.8023,-2.8994,-2.9674,-3.0741,-2.9438,-2.8263,-2.8263,-2.76,-2.7208,-2.72,-2.6934,-2.6532,-2.6138,-2.2258,-1.9222,-1.7424,-1.5172,-1.4189,-1.5048,-1.4332,-1.4047,-1.4479,-1.4047,-1.39,-1.39,-1.3468,-1.3182,-1.2753,-1.2334,-1.1175,-0.9291,-0.9291,-0.842,-0.6825,-0.5381,-0.4657,-0.4366,-0.1165,0.0291,0.1019,0.3638,0.6383,0.8532,0.7956,1.0457,1.3571,1.2972,1.441,1.6565,1.7703,1.9006,2.0075,2.0075,2.0075,2.0583,2.2598,2.3113,2.3106,2.3106,2.3106,2.3106,2.3106,2.3106,2.3106,2.3106,2.2842,2.252,2.2228,2.1906,2.1584,2.1254,2.0392,1.9815,1.9815,1.8984,1.804,1.7114,1.6997,1.6644,1.5715,1.5601,1.441,1.1711,0.8991,0.6422,0.4018,0.1351,-0.2345,-0.7195,-0.7187,-0.8057,-0.9798,-0.9798,-1.1964,-1.5861,-1.5861,-1.714,-1.9376,-2.1591,-2.2698,-2.3237,-2.5447,-2.6894,-2.7959,-3.0051,-3.1138,-3.188,-3.4017,-3.4835,-3.4835,-0.3737,-0.8136,-1.3216,-1.8604,-2.0449,-2.2746,-2.79,-2.8846,-2.9395,-3.0741,-3.049,-2.97,-2.8395,-2.813,-2.7733,-2.72,-2.6934,-2.6115,-2.4609,-2.1984,-1.9773,-1.811,-1.5881,-1.4763,-1.5048,-1.4621,-1.4189,-1.4047,-1.39,-1.39,-1.39,-1.3757,-1.3472,-1.3182,-1.2757,-1.2183,-1.1322,-1.1034,-1.0017,-0.842,-0.6972,-0.567,-0.4511,-0.2331,-0.0874,0.0291,0.1165,0.2618,0.4211,0.4353,0.6604,0.9745,1.1994,1.324,1.3966,1.4218,1.4609,1.5394,1.7087,1.7479,1.8122,2.0443,2.1475,2.2111,2.2111,2.2606,2.2856,2.223,2.2613,2.2863,2.2237,2.2183,2.2286,2.2198,2.1121,2.0389,2.0176,1.9455,1.8861,1.8861,1.8046,1.7343,1.6997,1.6414,1.5585,1.4391,1.2577,1.0823,0.9139,0.8072,0.7259,0.6692,0.237,-0.2349,-0.7195,-0.7173,-0.8042,-0.9798,-0.9798,-1.1964,-1.5861,-1.5861,-1.714,-1.9376,-2.1591,-2.2552,-2.2875,-2.5324,-2.7013,-2.826,-3.0383,-3.1813,-3.288,-3.4667,-3.532,-3.5512,-0.0968,-0.574,-1.092,-1.6187,-1.9161,-2.2303,-2.6737,-2.8525,-3.0039,-3.1258,-3.1138,-3.0482,-2.9176,-2.8659,-2.813,-2.7733,-2.7067,-2.5965,-2.4174,-2.2252,-2.0467,-1.8659,-1.672,-1.547,-1.5052,-1.4621,-1.4479,-1.4332,-1.4189,-1.4189,-1.4189,-1.3904,-1.3757,-1.3325,-1.3039,-1.276,-1.2194,-1.1907,-1.1181,-1.0017,-0.8564,-0.7406,-0.625,-0.4075,-0.2622,-0.1748,-0.1166,0.0146,0.1601,0.2037,0.3587,0.6034,0.8999,1.0342,1.1062,1.1743,1.2405,1.3058,1.4619,1.5009,1.5399,1.6824,1.9152,2.0969,2.0969,2.1475,2.172,2.1096,2.1853,2.2194,2.1074,2.1285,2.1519,2.1033,2.0006,1.9223,1.9223,1.8396,1.7806,1.7806,1.7343,1.6879,1.6532,1.5817,1.4873,1.3463,1.1281,0.9871,0.9456,0.8304,0.7605,0.7672,0.1688,-0.2797,-0.5721,-0.7049,-0.8367,-0.9798,-1.0229,-1.2394,-1.5968,-1.6399,-1.7569,-1.9376,-2.1591,-2.2484,-2.271,-2.5286,-2.7067,-2.841,-3.0132,-3.1638,-3.2947,-3.4688,-3.5561,-3.5937,0.2481,-0.237,-0.7488,-1.2477,-1.7256,-2.1505,-2.4604,-2.8187,-3.0816,-3.1891,-3.1249,-3.0473,-3.0083,-2.8914,-2.8263,-2.813,-2.7326,-2.61,-2.4701,-2.3352,-2.1571,-1.9339,-1.7695,-1.631,-1.519,-1.4763,-1.4621,-1.4906,-1.4621,-1.4479,-1.4479,-1.4047,-1.3757,-1.3325,-1.3325,-1.29,-1.2338,-1.2194,-1.2051,-1.1472,-0.987,-0.9291,-0.9,-0.596,-0.4802,-0.4513,-0.306,-0.1311,0.0437,0.0726,0.1428,0.2781,0.4735,0.6423,0.7875,0.9492,1.0951,1.213,1.2262,1.2393,1.2529,1.2795,1.6172,1.9553,1.9686,1.9947,2.0075,1.9947,2.0716,2.1135,1.9843,2.0163,2.0227,1.9092,1.8574,1.8273,1.8273,1.7461,1.6879,1.6879,1.6762,1.6408,1.5477,1.4966,1.4152,1.2919,1.1077,1.0339,1.1358,0.9108,0.7343,0.5965,-0.0447,-0.3917,-0.3917,-0.7035,-0.8923,-0.9798,-1.0874,-1.3038,-1.5968,-1.6935,-1.8108,-1.9376,-2.1591,-2.2484,-2.2693,-2.5099,-2.6988,-2.8391,-2.9747,-3.1075,-3.2605,-3.4235,-3.5336,-3.6186,0.7726,0.2909,-0.2932,-0.8566,-1.2939,-1.7517,-2.2863,-2.6096,-2.8328,-2.937,-2.9125,-2.8477,-2.7543,-2.7949,-2.7825,-2.6643,-2.6926,-2.6926,-2.6643,-2.4986,-2.3338,-2.1984,-1.9495,-1.7554,-1.631,-1.5181,-1.4479,-1.4621,-1.4189,-1.4047,-1.4047,-1.39,-1.39,-1.3757,-1.3468,-1.3182,-1.3043,-1.2477,-1.2194,-1.1907,-1.0014,-0.9291,-0.9144,-0.7261,-0.5813,-0.4657,-0.4367,-0.3058,-0.1452,0.0142,-0.0141,-0.0835,0.1218,0.2948,0.4285,0.4686,0.5758,0.7091,0.8673,0.9335,1.0006,1.2262,1.3574,1.4874,1.6829,1.8646,1.982,1.9048,1.9686,1.9992,1.8716,1.9063,1.9389,1.8979,1.7991,1.7343,1.7343,1.6532,1.5946,1.5946,1.4981,1.4381,1.4147,1.2487,1.1679,1.1983,0.7875,0.6321,0.8651,0.8169,0.4179,-0.3817,-0.5618,-0.6403,-0.6391,-0.806,-0.9158,-0.9798,-1.0785,-1.2847,-1.5861,-1.618,-1.7358,-1.9376,-2.1591,-2.2484,-2.2693,-2.4913,-2.7081,-2.9227,-2.9896,-3.1609,-3.3677,-3.4417,-3.5315,-3.623,1.1722,0.719,0.2643,-0.0855,-0.7115,-1.3177,-1.8282,-2.2545,-2.6111,-2.8435,-2.8583,-2.8065,-2.727,-2.7278,-2.702,-2.6234,-2.6635,-2.6777,-2.6517,-2.4595,-2.2956,-2.214,-1.964,-1.7986,-1.7017,-1.5749,-1.4901,-1.4763,-1.4332,-1.4189,-1.4189,-1.4047,-1.39,-1.39,-1.3615,-1.3468,-1.3325,-1.29,-1.2477,-1.2051,-1.1031,-1.0596,-1.0164,-0.8709,-0.7551,-0.6829,-0.6103,-0.4801,-0.3192,-0.1414,-0.1401,-0.1813,-0.0,0.1208,0.2147,0.295,0.3621,0.4559,0.6156,0.6956,0.7895,1.0174,1.1362,1.227,1.4227,1.5659,1.67,1.6721,1.7524,1.8001,1.7406,1.7889,1.798,1.6623,1.6369,1.6172,1.5569,1.4981,1.4629,1.4629,1.3937,1.2987,1.2251,1.0311,0.8857,0.8008,0.666,0.426,0.0825,0.0706,-0.1158,-0.5392,-0.7073,-0.797,-0.7958,-0.9275,-1.0359,-1.1206,-1.2186,-1.3809,-1.5968,-1.7035,-1.8206,-1.9376,-2.1591,-2.2767,-2.334,-2.5197,-2.7484,-2.9897,-2.9964,-3.1368,-3.3396,-3.4034,-3.4984,-3.6271,1.512,1.1456,0.8946,0.8777,0.0279,-0.7569,-1.0677,-1.701,-2.2714,-2.6213,-2.6792,-2.6808,-2.6565,-2.6329,-2.6218,-2.6234,-2.6218,-2.6084,-2.5435,-2.3665,-2.2304,-2.1465,-1.9796,-1.8552,-1.7726,-1.6452,-1.5465,-1.5048,-1.4621,-1.4479,-1.4336,-1.4043,-1.39,-1.39,-1.39,-1.3757,-1.3468,-1.3325,-1.2904,-1.2338,-1.2194,-1.2051,-1.1619,-1.0161,-0.9579,-0.9144,-0.784,-0.6248,-0.4638,-0.311,-0.2944,-0.293,-0.1355,-0.0806,-0.0403,0.1341,0.2145,0.2547,0.3891,0.4696,0.5503,0.7257,0.8581,0.9757,1.1205,1.2134,1.3193,1.425,1.5109,1.5524,1.5592,1.6336,1.6205,1.4057,1.4629,1.4873,1.3904,1.3674,1.3564,1.3564,1.2755,1.1312,0.9473,0.8363,0.6143,0.2213,0.3947,0.1703,-0.6151,-0.6975,-0.6394,-0.459,-0.7382,-0.9061,-0.9386,-1.0688,-1.1978,-1.3146,-1.4641,-1.5719,-1.6486,-1.8206,-1.9368,-1.9983,-2.1684,-2.315,-2.4389,-2.5751,-2.7945,-3.0453,-3.0147,-3.1057,-3.286,-3.3819,-3.5011,-3.6505,1.8961,1.7031,1.646,1.9,0.9722,0.2121,0.2583,-0.6724,-1.5158,-1.8378,-1.9415,-2.0275,-2.1389,-2.3495,-2.5292,-2.6478,-2.5697,-2.5037,-2.4631,-2.436,-2.3543,-2.2166,-2.1327,-2.0352,-1.9256,-1.7429,-1.6028,-1.5048,-1.4621,-1.4332,-1.4047,-1.3904,-1.39,-1.39,-1.39,-1.39,-1.3757,-1.3472,-1.3182,-1.3043,-1.2477,-1.2198,-1.2051,-1.1472,-1.0452,-0.9288,-0.9,-0.7404,-0.5207,-0.479,-0.5869,-0.7382,-0.6911,-0.6172,-0.5227,-0.3757,-0.2416,-0.1073,0.0672,0.1612,0.2283,0.3622,0.4021,0.4555,0.5763,0.9612,1.2795,1.3058,1.3047,1.2995,1.2931,1.3734,1.4261,1.3818,1.3784,1.3909,1.3665,1.3356,1.3152,1.3152,1.0433,0.749,0.504,0.6669,0.3946,-0.5561,-0.5937,-0.5242,-0.4124,-0.6014,-0.7552,-0.8177,-0.8618,-0.9599,-1.1093,-1.2073,-1.3151,-1.4325,-1.718,-1.8665,-1.8776,-1.8087,-1.9332,-2.2089,-2.2383,-2.3556,-2.5479,-2.6597,-2.8402,-3.0543,-3.0711,-3.1524,-3.2884,-3.4743,-3.5898,-3.6756,2.2381,2.4299,2.6334,2.5336,2.1559,1.8566,1.8478,0.7848,-0.1748,-0.6154,-1.1957,-1.6833,-1.9733,-2.2799,-2.4887,-2.5008,-2.5158,-2.503,-2.4224,-2.3536,-2.2859,-2.176,-2.0918,-2.0219,-1.9529,-1.8272,-1.7147,-1.5891,-1.5044,-1.4479,-1.4189,-1.4043,-1.39,-1.39,-1.39,-1.39,-1.39,-1.3757,-1.3472,-1.3325,-1.2757,-1.2334,-1.2198,-1.1763,-1.1181,-1.0452,-0.9579,-0.8564,-0.7382,-0.6394,-0.6607,-0.7384,-0.7242,-0.6347,-0.5101,-0.4434,-0.336,-0.2017,-0.1211,-0.0134,0.1075,0.2014,0.2684,0.3352,0.389,0.5752,0.8005,1.0003,1.036,1.0696,1.2024,1.253,1.2431,1.1627,1.2097,1.2466,1.1889,1.1671,1.121,1.025,0.8769,0.5665,0.0123,-0.0739,-0.1601,-0.3323,-0.7281,-0.866,-0.6828,-0.8466,-0.9384,-0.9386,-0.993,-1.0794,-1.2172,-1.3166,-1.446,-1.6274,-1.8255,-1.9191,-1.9191,-2.0025,-2.1159,-2.2584,-2.3746,-2.5091,-2.6516,-2.762,-2.9235,-3.1104,-3.0824,-3.1536,-3.2957,-3.4897,-3.5791,-3.6279]},{"header":{"parameterUnit":"m.s-1","parameterCategory":1,"la1":30.6,"la2":28.766,"lo1":-90.7593,"lo2":-88.6598,"dy":0.0162,"dx":0.0183,"nx":116,"ny":114,"refTime":"2023-04-16T06:00:00:Z","depth":0,"parameterNumber":3,"parameterNumberName":"V-component_of_WINDS"},"data":[0.0,0.0,0.0,0.0,0.0,0.0,0.0,0.0,0.0,0.0,0.0,0.0,0.0,0.0,0.0,0.0,0.0,0.0,0.0,0.0,0.0,0.0,0.0,0.0,0.0,0.0,0.0,0.0,0.0,0.0,0.0,0.0,0.0,0.0,0.0,0.0,0.0,0.0,0.0,0.0,0.0,0.0,0.0,0.0,0.0,0.0,0.0,0.0,0.0,0.0,0.0,0.0,0.0,0.0,0.0,0.0,0.0,0.0,0.0,0.0,0.0,0.0,0.0,0.0,0.0,0.0,0.0,0.0,0.0,0.0,0.0,0.0,0.0,0.0,0.0,0.0,0.0,0.0,0.0,0.0,0.0,0.0,0.0,0.0,0.0,0.0,0.0,0.0,0.0,0.0,0.0,0.0,0.0,0.0,0.0,0.0,0.0,0.0,0.0,0.0,0.0,0.0,0.0,0.0,0.0,0.0,0.0,0.0,0.0,0.0,0.0,0.0,0.0,0.0,0.0,0.0,0.0,0.0,0.0,0.0,0.0,0.0,0.0,0.0,0.0,0.0,0.0,0.0,0.0,0.0,0.0,0.0,0.0,0.0,0.0,0.0,0.0,0.0,0.0,0.0,0.0,0.0,0.0,0.0,0.0,0.0,0.0,0.0,0.0,0.0,0.0,0.0,0.0,0.0,0.0,0.0,0.0,0.0,0.0,0.0,0.0,0.0,0.0,0.0,0.0,0.0,0.0,0.0,0.0,0.0,0.0,0.0,0.0,0.0,0.0,0.0,0.0,0.0,0.0,0.0,0.0,0.0,0.0,0.0,0.0,0.0,0.0,0.0,0.0,0.0,0.0,0.0,0.0,0.0,0.0,0.0,0.0,0.0,0.0,0.0,0.0,0.0,0.0,0.0,0.0,0.0,0.0,0.0,0.0,0.0,0.0,0.0,0.0,0.0,0.0,0.0,0.0,0.0,0.0,0.0,0.0,0.0,0.0,0.0,0.0,0.0,0.0,0.0,0.0,0.0,0.0,0.0,0.0,0.0,0.0,0.0,0.0,0.0,0.0,0.0,0.0,0.0,0.0,0.0,0.0,0.0,0.0,0.0,0.0,0.0,0.0,0.0,0.0,0.0,0.0,0.0,0.0,0.0,0.0,0.0,0.0,0.0,0.0,0.0,0.0,0.0,0.0,0.0,0.0,0.0,0.0,0.0,0.0,0.0,0.0,0.0,0.0,0.0,0.0,0.0,0.0,0.0,0.0,0.0,0.0,0.0,0.0,0.0,0.0,0.0,0.0,0.0,0.0,0.0,0.0,0.0,0.0,0.0,0.0,0.0,0.0,0.0,0.0,0.0,0.0,0.0,0.0,0.0,0.0,0.0,0.0,0.0,0.0,0.0,0.0,0.0,0.0,0.0,0.0,0.0,0.0,0.0,0.0,0.0,0.0,0.0,0.0,0.0,0.0,0.0,0.0,0.0,0.0,0.0,0.0,0.0,0.0,0.0,0.0,0.0,0.0,0.0,0.0,0.0,0.0,0.0,0.0,0.0,0.0,0.0,0.0,0.0,0.0,0.0,0.0,0.0,0.0,0.0,0.0,0.0,0.0,0.0,0.0,0.0,0.0,0.0,0.0,0.0,0.0,0.0,0.0,0.0,0.0,0.0,0.0,0.0,0.0,0.0,0.0,0.0,0.0,0.0,0.0,0.0,0.0,0.0,0.0,0.0,0.0,0.0,0.0,0.0,0.0,0.0,0.0,0.0,0.0,0.0,0.0,0.0,0.0,0.0,0.0,0.0,0.0,0.0,0.0,0.0,0.0,0.0,0.0,0.0,0.0,0.0,0.0,0.0,0.0,0.0,0.0,0.0,0.0,0.0,0.0,0.0,0.0,0.0,0.0,0.0,0.0,0.0,0.0,0.0,0.0,0.0,0.0,0.0,0.0,0.0,0.0,0.0,0.0,0.0,0.0,0.0,0.0,0.0,0.0,0.0,0.0,0.0,0.0,0.0,0.0,0.0,0.0,0.0,0.0,0.0,0.0,0.0,0.0,0.0,0.0,0.0,0.0,0.0,0.0,0.0,0.0,0.0,0.0,0.0,0.0,0.0,0.0,0.0,0.0,0.0,0.0,0.0,0.0,0.0,0.0,0.0,0.0,0.0,0.0,0.0,0.0,0.0,0.0,0.0,0.0,0.0,0.0,0.0,0.0,0.0,0.0,0.0,0.0,0.0,0.0,0.0,0.0,0.0,0.0,0.0,0.0,0.0,0.0,0.0,0.0,0.0,0.0,0.0,0.0,0.0,0.0,0.0,0.0,0.0,0.0,0.0,0.0,0.0,0.0,0.0,0.0,0.0,0.0,0.0,0.0,0.0,0.0,0.0,0.0,0.0,0.0,0.0,0.0,0.0,0.0,0.0,0.0,0.0,0.0,0.0,0.0,0.0,0.0,0.0,0.0,0.0,0.0,0.0,0.0,0.0,0.0,0.0,0.0,0.0,0.0,0.0,0.0,0.0,0.0,0.0,0.0,0.0,0.0,0.0,0.0,0.0,0.0,0.0,0.0,0.0,0.0,0.0,0.0,0.0,0.0,0.0,0.0,0.0,0.0,0.0,0.0,0.0,0.0,0.0,0.0,0.0,0.0,0.0,0.0,0.0,0.0,0.0,0.0,0.0,0.0,0.0,0.0,0.0,0.0,0.0,0.0,0.0,0.0,0.0,0.0,0.0,0.0,0.0,0.0,0.0,0.0,0.0,0.0,0.0,0.0,0.0,0.0,0.0,0.0,0.0,0.0,0.0,0.0,0.0,0.0,0.0,0.0,0.0,0.0,0.0,0.0,0.0,0.0,0.0,0.0,0.0,0.0,0.0,0.0,0.0,0.0,0.0,0.0,0.0,0.0,0.0,0.0,0.0,0.0,0.0,0.0,0.0,0.0,0.0,0.0,0.0,0.0,0.0,0.0,0.0,0.0,0.0,0.0,0.0,0.0,0.0,0.0,0.0,0.0,0.0,0.0,0.0,0.0,0.0,0.0,0.0,0.0,0.0,0.0,0.0,0.0,0.0,0.0,0.0,0.0,0.0,0.0,0.0,0.0,0.0,0.0,0.0,0.0,0.0,0.0,0.0,0.0,0.0,0.0,0.0,0.0,0.0,0.0,0.0,0.0,0.0,0.0,0.0,0.0,0.0,0.0,0.0,0.0,0.0,0.0,0.0,0.0,0.0,0.0,0.0,0.0,0.0,0.0,0.0,0.0,0.0,0.0,0.0,0.0,0.0,0.0,0.0,0.0,0.0,0.0,0.0,0.0,0.0,0.0,0.0,0.0,0.0,0.0,0.0,0.0,0.0,0.0,0.0,0.0,0.0,0.0,0.0,0.0,0.0,0.0,0.0,0.0,0.0,0.0,0.0,0.0,0.0,0.0,0.0,0.0,0.0,0.0,0.0,0.0,0.0,0.0,0.0,0.0,0.0,0.0,0.0,0.0,0.0,0.0,0.0,0.0,0.0,0.0,0.0,0.0,0.0,0.0,0.0,0.0,0.0,0.0,0.0,0.0,0.0,0.0,0.0,0.0,0.0,0.0,0.0,0.0,0.0,0.0,0.0,0.0,0.0,0.0,0.0,0.0,0.0,0.0,0.0,0.0,0.0,0.0,0.0,0.0,0.0,0.0,0.0,0.0,0.0,0.0,0.0,0.0,0.0,0.0,0.0,0.0,0.0,0.0,0.0,0.0,0.0,0.0,0.0,0.0,0.0,0.0,0.0,0.0,0.0,0.0,0.0,0.0,0.0,0.0,0.0,0.0,0.0,0.0,0.0,0.0,0.0,0.0,0.0,0.0,0.0,0.0,0.0,0.0,0.0,0.0,0.0,0.0,0.0,0.0,0.0,0.0,0.0,0.0,0.0,0.0,0.0,0.0,0.0,0.0,0.0,0.0,0.0,0.0,0.0,0.0,0.0,0.0,0.0,0.0,0.0,0.0,0.0,0.0,0.0,0.0,0.0,0.0,0.0,0.0,0.0,0.0,0.0,0.0,0.0,0.0,0.0,0.0,0.0,0.0,0.0,0.0,0.0,0.0,0.0,0.0,0.0,0.0,0.0,0.0,0.0,0.0,0.0,0.0,0.0,0.0,0.0,0.0,0.0,0.0,0.0,0.0,0.0,0.0,0.0,0.0,0.0,0.0,0.0,0.0,0.0,0.0,0.0,0.0,0.0,0.0,0.0,0.0,0.0,0.0,0.0,0.0,0.0,0.0,0.0,0.0,0.0,0.0,0.0,0.0,0.0,0.0,0.0,0.0,0.0,0.0,0.0,0.0,0.0,0.0,0.0,0.0,0.0,0.0,0.0,0.0,0.0,0.0,0.0,0.0,0.0,0.0,0.0,0.0,0.0,0.0,0.0,0.0,0.0,0.0,0.0,0.0,0.0,0.0,0.0,0.0,0.0,0.0,0.0,0.0,0.0,0.0,0.0,0.0,0.0,0.0,0.0,0.0,0.0,0.0,0.0,0.0,0.0,0.0,0.0,0.0,0.0,0.0,0.0,0.0,0.0,0.0,0.0,0.0,0.0,0.0,0.0,0.0,0.0,0.0,0.0,0.0,0.0,0.0,0.0,0.0,0.0,0.0,0.0,0.0,0.0,0.0,0.0,0.0,0.0,0.0,0.0,0.0,0.0,0.0,0.0,0.0,0.0,0.0,0.0,0.0,0.0,0.0,0.0,0.0,0.0,0.0,0.0,0.0,0.0,0.0,0.0,0.0,0.0,0.0,0.0,0.0,0.0,0.0,0.0,0.0,0.0,0.0,0.0,0.0,0.0,0.0,0.0,0.0,0.0,0.0,0.0,0.0,0.0,0.0,0.0,0.0,0.0,0.0,0.0,0.0,0.0,0.0,0.0,0.0,0.0,0.0,0.0,0.0,0.0,0.0,0.0,0.0,0.0,0.0,0.0,0.0,0.0,0.0,0.0,0.0,0.0,0.0,0.0,0.0,0.0,0.0,0.0,0.0,0.0,0.0,0.0,0.0,0.0,0.0,0.0,0.0,0.0,0.0,0.0,0.0,0.0,0.0,0.0,0.0,0.0,0.0,0.0,0.0,0.0,0.0,0.0,0.0,0.0,0.0,0.0,0.0,0.0,0.0,0.0,0.0,0.0,0.0,0.0,0.0,0.0,0.0,0.0,0.0,0.0,0.0,0.0,0.0,0.0,0.0,0.0,0.0,0.0,0.0,0.0,0.0,0.0,0.0,0.0,0.0,0.0,0.0,0.0,0.0,0.0,0.0,0.0,0.0,0.0,0.0,0.0,0.0,0.0,0.0,0.0,0.0,0.0,0.0,0.0,0.0,0.0,0.0,0.0,0.0,0.0,0.0,0.0,0.0,0.0,0.0,0.0,0.0,0.0,0.0,0.0,0.0,0.0,0.0,0.0,0.0,0.0,0.0,0.0,0.0,0.0,0.0,0.0,0.0,0.0,0.0,0.0,0.0,0.0,0.0,0.0,0.0,0.0,0.0,0.0,0.0,0.0,0.0,0.0,0.0,0.0,0.0,0.0,0.0,0.0,0.0,0.0,0.0,0.0,0.0,0.0,0.0,0.0,0.0,0.0,0.0,0.0,0.0,0.0,0.0,0.0,0.0,0.0,0.0,0.0,0.0,0.0,0.0,0.0,0.0,0.0,0.0,0.0,0.0,0.0,0.0,0.0,0.0,0.0,0.0,0.0,0.0,0.0,0.0,0.0,0.0,0.0,0.0,0.0,0.0,0.0,0.0,0.0,0.0,0.0,0.0,0.0,0.0,0.0,0.0,0.0,0.0,0.0,0.0,0.0,0.0,0.0,0.0,0.0,0.0,0.0,0.0,0.0,0.0,0.0,0.0,0.0,0.0,0.0,0.0,0.0,0.0,0.0,0.0,0.0,0.0,0.0,0.0,0.0,0.0,0.0,0.0,0.0,0.0,0.0,0.0,0.0,0.0,0.0,0.0,0.0,0.0,0.0,0.0,0.0,0.0,0.0,0.0,0.0,0.0,0.0,0.0,0.0,0.0,0.0,0.0,0.0,0.0,0.0,0.0,0.0,0.0,0.0,0.0,0.0,0.0,0.0,0.0,0.0,0.0,0.0,-4.7164,0.0,0.0,0.0,0.0,0.0,0.0,0.0,0.0,0.0,0.0,0.0,0.0,0.0,0.0,0.0,0.0,0.0,0.0,0.0,0.0,0.0,0.0,0.0,0.0,0.0,0.0,0.0,0.0,0.0,0.0,0.0,0.0,0.0,0.0,0.0,0.0,0.0,0.0,-4.7717,-4.7699,-4.7992,-4.8513,-4.8915,-4.919,-4.9394,0.0,0.0,0.0,0.0,0.0,0.0,0.0,0.0,0.0,0.0,0.0,0.0,0.0,0.0,0.0,0.0,0.0,0.0,0.0,0.0,0.0,0.0,0.0,0.0,0.0,0.0,0.0,0.0,0.0,0.0,0.0,0.0,0.0,0.0,0.0,0.0,0.0,0.0,0.0,0.0,0.0,0.0,0.0,0.0,0.0,0.0,0.0,0.0,0.0,0.0,0.0,0.0,0.0,0.0,0.0,0.0,0.0,0.0,0.0,0.0,0.0,0.0,0.0,0.0,0.0,0.0,0.0,0.0,0.0,0.0,0.0,-4.7473,0.0,0.0,0.0,0.0,0.0,0.0,0.0,0.0,0.0,0.0,0.0,0.0,0.0,0.0,0.0,0.0,0.0,0.0,0.0,0.0,0.0,0.0,0.0,-4.635,-4.6398,-4.627,-4.627,-4.627,0.0,0.0,0.0,0.0,0.0,0.0,-4.707,-4.7486,-4.7717,-4.7717,-4.7966,-4.8421,-4.9227,-4.9769,-4.9901,-4.9668,-5.0995,0.0,0.0,0.0,0.0,0.0,0.0,0.0,0.0,0.0,0.0,0.0,0.0,0.0,0.0,0.0,0.0,0.0,0.0,0.0,0.0,0.0,0.0,0.0,0.0,0.0,0.0,0.0,0.0,0.0,0.0,0.0,0.0,0.0,0.0,0.0,0.0,0.0,0.0,0.0,0.0,0.0,0.0,0.0,0.0,0.0,0.0,0.0,0.0,0.0,0.0,0.0,0.0,0.0,0.0,0.0,0.0,0.0,0.0,0.0,0.0,0.0,0.0,0.0,-4.8973,-4.8495,-4.7738,-4.7577,-4.7522,-4.7497,-4.7494,-4.7184,-4.6791,0.0,0.0,0.0,0.0,0.0,0.0,0.0,0.0,0.0,0.0,0.0,0.0,0.0,0.0,0.0,0.0,0.0,0.0,0.0,0.0,0.0,0.0,-4.6684,-4.659,-4.6542,-4.6542,-4.6542,-4.6542,0.0,0.0,0.0,0.0,0.0,-4.7258,-4.7554,-4.7759,-4.7861,-4.8364,-4.885,-4.9302,-5.0402,-5.0921,-5.0894,-5.1383,-5.2479,-5.3961,0.0,0.0,0.0,0.0,0.0,0.0,0.0,0.0,0.0,0.0,0.0,0.0,0.0,0.0,0.0,0.0,0.0,0.0,0.0,0.0,0.0,0.0,0.0,0.0,0.0,0.0,0.0,0.0,0.0,0.0,0.0,0.0,0.0,0.0,0.0,0.0,0.0,0.0,0.0,0.0,0.0,-5.1854,-5.12,0.0,0.0,0.0,0.0,0.0,0.0,0.0,0.0,0.0,0.0,0.0,0.0,0.0,-5.1966,-5.19,-5.1198,-5.0806,-5.0775,-4.9358,-4.8615,-4.8471,-4.7683,-4.7302,-4.7332,-4.7312,0.0,-4.7369,-4.7611,0.0,0.0,0.0,0.0,0.0,0.0,0.0,0.0,0.0,0.0,0.0,0.0,0.0,0.0,0.0,0.0,0.0,0.0,0.0,0.0,0.0,-4.7007,-4.6962,-4.6824,-4.6842,-4.6842,-4.6842,-4.7053,0.0,0.0,0.0,-4.7844,-4.7967,-4.8214,-4.8402,-4.8623,-4.9067,-4.9363,-4.9589,-5.0821,-5.1694,-5.2231,-5.2847,-5.3552,-5.4331,-5.4939,0.0,0.0,0.0,0.0,0.0,0.0,0.0,0.0,0.0,0.0,0.0,0.0,0.0,0.0,0.0,0.0,0.0,0.0,0.0,0.0,0.0,0.0,0.0,0.0,0.0,0.0,0.0,0.0,0.0,0.0,0.0,0.0,0.0,0.0,0.0,0.0,0.0,0.0,0.0,-5.4446,-5.3558,-5.2857,-5.2455,-5.221,0.0,0.0,0.0,0.0,0.0,0.0,0.0,0.0,0.0,-5.1672,-5.1672,-5.1417,-5.0935,-5.0538,-5.0151,-4.9678,-4.8969,-4.8324,-4.7864,-4.7467,-4.7309,-4.7309,-4.7309,-4.7302,-4.744,-4.7911,-4.8105,-4.8277,0.0,0.0,0.0,0.0,-4.8904,-4.818,0.0,0.0,0.0,0.0,0.0,0.0,0.0,0.0,0.0,0.0,0.0,0.0,-4.7389,-4.7432,-4.7389,-4.7327,-4.7258,-4.7214,-4.7214,-4.7389,-4.7389,-4.7276,-4.8057,-4.8641,-4.8847,-4.9086,-4.9239,-4.9321,-4.9589,-4.9917,-5.0271,-5.1438,-5.2487,-5.3426,-5.4316,-5.4705,-5.4784,-5.5537,-5.5965,-5.6168,0.0,0.0,0.0,0.0,0.0,0.0,0.0,0.0,0.0,0.0,0.0,0.0,0.0,0.0,0.0,0.0,0.0,0.0,0.0,0.0,0.0,0.0,0.0,0.0,0.0,0.0,0.0,0.0,0.0,0.0,0.0,0.0,0.0,0.0,0.0,0.0,0.0,-5.5658,-5.4887,-5.4244,-5.3501,-5.292,0.0,0.0,0.0,0.0,0.0,0.0,-5.257,-5.2445,-5.2142,-5.1434,-5.1434,-5.1102,-5.0445,-5.0445,-5.0057,-4.9197,-4.9197,-4.8656,-4.7624,-4.7624,-4.7538,-4.7309,-4.7309,-4.7309,-4.7381,-4.8019,-4.8256,-4.8339,-4.9181,-4.9343,-4.9181,-4.9423,-4.8953,-4.8256,0.0,0.0,0.0,0.0,0.0,0.0,0.0,0.0,0.0,0.0,0.0,-4.7627,-4.8421,-4.8075,-4.7879,-4.8119,-4.7962,-4.786,-4.786,-4.7915,-4.7951,-4.7951,-4.9062,-4.9713,-4.975,-5.0104,-5.0103,-4.9674,-4.9776,-5.0373,-5.152,-5.2551,-5.3464,-5.4293,-5.5267,-5.5806,-5.5927,-5.6039,-5.6154,-5.6285,-5.6371,0.0,0.0,0.0,0.0,0.0,0.0,0.0,0.0,0.0,0.0,0.0,0.0,0.0,0.0,0.0,0.0,0.0,0.0,0.0,0.0,0.0,0.0,0.0,0.0,0.0,0.0,0.0,0.0,0.0,0.0,0.0,0.0,0.0,0.0,0.0,0.0,0.0,0.0,-5.4396,-5.3635,0.0,0.0,0.0,0.0,-5.2624,-5.2624,-5.257,-5.2445,-5.2373,-5.2373,-5.2302,-5.2302,-5.2302,-5.2302,-5.2302,-5.1818,-5.0951,-5.0951,-5.0088,-4.8573,-4.8573,-4.8103,-4.7309,-4.7309,-4.7309,-4.7309,-4.7381,-4.7396,-4.7467,-4.8324,-4.8172,-4.7553,-4.8339,-4.8088,-4.7396,0.0,0.0,0.0,0.0,0.0,0.0,0.0,0.0,-4.7115,-4.7266,-4.7609,-4.7937,-4.8231,-4.8212,-4.8309,-4.8586,-4.862,-4.8601,-4.8601,-4.8655,-4.8655,-4.8655,-4.9765,-5.0528,-5.0824,-5.0775,-5.0506,-5.0095,-5.0672,-5.1179,-5.1639,-5.3168,-5.4086,-5.4554,-5.5497,-5.602,-5.6199,-5.6083,-5.6155,-5.6366,-5.6332,-5.638,0.0,0.0,0.0,0.0,0.0,0.0,0.0,0.0,0.0,0.0,0.0,0.0,0.0,0.0,0.0,0.0,0.0,0.0,0.0,0.0,0.0,0.0,0.0,0.0,0.0,0.0,0.0,0.0,0.0,0.0,0.0,0.0,0.0,0.0,0.0,0.0,0.0,-5.4199,-5.3602,0.0,-5.3041,-5.3041,-5.3041,-5.2972,-5.2834,-5.2764,-5.2711,-5.2948,-5.3036,-5.3036,-5.35,-5.3511,-5.2954,-5.2954,-5.2556,-5.1662,-5.1662,-5.1341,-5.0771,-5.0173,-4.9766,-4.9438,-4.8802,-4.8566,-4.8566,-4.8566,-4.8072,-4.7309,-4.7624,-4.7538,-4.7354,-4.8091,-4.817,-4.7997,0.0,0.0,0.0,0.0,0.0,0.0,0.0,0.0,-4.7403,-4.7439,-4.7937,-4.8307,-4.8402,-4.8568,-4.8781,-4.9071,-4.9164,-4.919,-4.919,-4.9158,-4.9108,-4.9108,-5.0214,-5.1017,-5.1459,-5.1247,-5.0855,-5.0302,-5.1232,-5.181,-5.2135,-5.3741,-5.467,-5.5109,-5.5788,-5.6174,-5.6294,-5.6155,-5.62,-5.6374,-5.6361,-5.6422,-5.6503,0.0,0.0,0.0,0.0,0.0,0.0,0.0,0.0,0.0,0.0,0.0,0.0,0.0,0.0,0.0,0.0,0.0,0.0,0.0,0.0,0.0,0.0,0.0,0.0,0.0,0.0,0.0,0.0,0.0,0.0,0.0,0.0,0.0,0.0,0.0,-5.4724,-5.4576,-5.4228,-5.3986,-5.3883,-5.3936,-5.4005,-5.3936,-5.3797,-5.364,-5.3569,-5.3678,-5.3781,-5.3781,-5.4262,-5.427,-5.3705,-5.3705,-5.338,-5.2813,-5.2813,-5.2733,-5.2412,-5.1476,-5.0886,-5.0543,-4.9672,-4.9269,-4.9269,-4.9269,-4.876,-4.7967,-4.7967,-4.7967,-4.8012,-4.8461,-4.8626,-4.8686,0.0,0.0,0.0,0.0,0.0,0.0,0.0,-4.7222,-4.7572,-4.8017,-4.8383,-4.8695,-4.894,-4.9104,-4.9327,-4.9692,-4.9665,-4.9627,-4.9627,-4.9442,-4.9333,-4.9352,-5.0459,-5.1254,-5.1601,-5.1582,-5.1162,-5.034,-5.1346,-5.2295,-5.3159,-5.4297,-5.5246,-5.6001,-5.6213,-5.6286,-5.6288,-5.6297,-5.6316,-5.6313,-5.6442,-5.6503,-5.6503,0.0,0.0,0.0,0.0,0.0,0.0,0.0,0.0,0.0,0.0,0.0,0.0,0.0,0.0,0.0,0.0,0.0,0.0,0.0,0.0,0.0,0.0,0.0,0.0,0.0,0.0,0.0,0.0,0.0,0.0,0.0,0.0,0.0,-5.5574,-5.5455,-5.5503,-5.5484,-5.5595,-5.5711,-5.5733,-5.5716,-5.5629,-5.5383,-5.524,-5.5024,-5.4805,-5.4618,-5.4543,-5.4543,-5.4576,-5.4593,-5.4593,-5.4593,-5.4593,-5.4593,-5.4593,-5.4185,-5.3288,-5.2379,-5.1455,-5.0605,-4.9732,-4.9329,-4.9329,-4.9329,-4.9329,-4.9329,-4.9284,-4.9269,-4.9269,-4.9284,-4.9314,-4.9329,0.0,0.0,0.0,0.0,0.0,0.0,0.0,-4.7178,-4.7506,-4.7747,-4.8249,-4.8623,-4.8695,-4.9099,-4.9472,-4.9816,-5.0012,-5.0095,-5.0095,-5.0051,-5.0311,-5.0938,-5.0672,-5.086,-5.1582,-5.1067,-5.1001,-5.1384,-5.2376,-5.3321,-5.4207,-5.5183,-5.5788,-5.6001,-5.6216,-5.6309,-5.6316,-5.6395,-5.6454,-5.6456,-5.6484,-5.6497,-5.6493,0.0,0.0,0.0,0.0,0.0,0.0,0.0,0.0,0.0,0.0,0.0,0.0,0.0,0.0,0.0,0.0,0.0,0.0,0.0,0.0,0.0,0.0,0.0,0.0,0.0,0.0,0.0,0.0,0.0,0.0,0.0,0.0,-5.7108,-5.6413,-5.5891,-5.5672,-5.5668,-5.57,-5.568,-5.5716,-5.5716,-5.5646,-5.5629,-5.5329,-5.5096,-5.5024,-5.5173,-5.5322,-5.5322,-5.5819,-5.61,-5.61,-5.61,-5.61,-5.61,-5.61,-5.5665,-5.4729,-5.3828,-5.2895,-5.2036,-5.1106,-5.0676,-5.0676,-5.0676,-5.0676,-5.0586,-4.9628,-4.9269,-4.9314,-4.9793,-5.0272,-5.0676,0.0,0.0,0.0,0.0,0.0,0.0,0.0,-4.7186,-4.7596,-4.7747,-4.8476,-4.8925,-4.8767,-4.9233,-4.9617,-4.9816,-5.0038,-5.0207,-5.0207,-5.0278,-5.0531,-5.1028,-5.0569,-5.0554,-5.1143,-5.0713,-5.0951,-5.1896,-5.2893,-5.3814,-5.4701,-5.5668,-5.6126,-5.6136,-5.6242,-5.6328,-5.6382,-5.6461,-5.6522,-5.6536,-5.6536,-5.6543,-5.6533,-5.6452,-5.6627,-5.6995,-5.7314,-5.7862,-5.8574,-5.9297,0.0,0.0,0.0,0.0,0.0,0.0,0.0,0.0,0.0,0.0,0.0,0.0,0.0,0.0,0.0,0.0,0.0,0.0,0.0,0.0,0.0,0.0,0.0,0.0,-5.8862,-5.8042,-5.7697,-5.6781,-5.6173,-5.6173,-5.6444,-5.663,-5.663,-5.663,-5.663,-5.663,-5.6253,-5.6017,-5.6017,-5.6062,-5.6067,-5.6067,-5.6481,-5.668,-5.668,-5.668,-5.668,-5.668,-5.668,-5.6414,-5.5829,-5.4569,-5.3719,0.0,-5.1742,-5.1214,-5.1214,-5.1214,-5.1214,0.0,0.0,0.0,0.0,0.0,-5.0885,-5.1214,0.0,0.0,0.0,0.0,0.0,0.0,0.0,-4.715,-4.7743,-4.7816,-4.8767,-4.9313,-4.9027,-4.9415,-4.9692,-4.9721,-4.9952,-5.0108,-5.0133,-5.0255,-5.0325,-5.0302,-5.0329,-5.0399,-5.0507,-5.0527,-5.1087,-5.2178,-5.3085,-5.4018,-5.4986,-5.5877,-5.6297,-5.6288,-5.6313,-5.6382,-5.6504,-5.6504,-5.6534,-5.6577,-5.6577,-5.6582,-5.6582,-5.6379,-5.6835,-5.7594,-5.7489,-5.8463,-5.9821,-5.9823,0.0,0.0,0.0,0.0,0.0,0.0,0.0,0.0,0.0,0.0,0.0,0.0,0.0,0.0,0.0,0.0,0.0,0.0,0.0,0.0,0.0,0.0,0.0,0.0,-6.0041,-5.9145,-5.9195,-5.7946,-5.6989,-5.6917,-5.7492,-5.7881,-5.7881,-5.7881,-5.7881,-5.7881,-5.7514,-5.7289,-5.7289,0.0,0.0,0.0,0.0,-5.668,-5.668,-5.668,-5.668,-5.668,-5.668,-5.6603,-5.6352,-5.4736,-5.3907,-5.3648,-5.2002,-5.1214,-5.1214,-5.1214,-5.1214,-5.1214,-5.1214,-5.1214,-5.1214,-5.1308,-5.1308,-5.1308,0.0,0.0,0.0,0.0,0.0,0.0,0.0,-4.6972,-4.7222,-4.7937,-4.8458,-4.8837,-4.8974,-4.9415,-4.975,-4.9843,-5.0005,-5.0158,-5.0255,-5.0377,-5.0421,-5.0302,-5.0527,-5.0587,-5.0507,-5.0771,-5.166,-5.3201,-5.3513,-5.4479,-5.6013,-5.6211,-5.629,-5.6297,-5.6399,-5.6482,-5.6504,-5.6551,-5.6494,-5.6352,-5.6352,-5.6465,-5.6582,-5.6379,-5.6842,-5.7668,-5.8176,-5.9007,-5.9959,-6.0434,-6.0546,-6.0437,-6.0034,-5.9906,0.0,0.0,0.0,0.0,0.0,0.0,0.0,0.0,0.0,0.0,0.0,0.0,0.0,0.0,0.0,0.0,0.0,0.0,0.0,-6.1822,-6.1163,-6.0388,-5.9885,-5.9042,-5.8306,-5.7734,-5.7797,-5.7881,-5.7881,-5.7881,-5.7881,-5.7881,-5.7514,-5.7289,-5.7289,-5.6911,-5.668,-5.668,-5.668,-5.668,-5.668,-5.668,-5.668,-5.668,0.0,0.0,-5.4485,-5.4163,-5.3299,-5.2002,-5.1665,-5.1494,-5.1494,-5.1494,-5.1494,-5.1494,-5.1494,-5.1401,-5.1214,-5.171,-5.1695,-5.1587,0.0,0.0,0.0,0.0,0.0,0.0,0.0,-4.6908,-4.7335,-4.8059,-4.8403,-4.8765,-4.9211,-4.9514,-4.9721,-4.9788,-5.0044,-5.0291,-5.0486,-5.0567,-5.0567,-5.0488,-5.0624,-5.0715,-5.0754,-5.1312,-5.2255,-5.3591,-5.4091,-5.5009,-5.6291,-5.63,-5.6313,-5.6355,-5.6458,-5.6522,-5.6554,-5.6595,-5.6478,-5.6288,-5.6288,-5.658,-5.6972,-5.6807,-5.7295,-5.8155,-5.8892,-5.9708,-6.0497,-6.0846,-6.0814,-6.0608,-6.0302,-6.0121,-6.0102,0.0,0.0,0.0,0.0,0.0,0.0,0.0,0.0,0.0,0.0,0.0,0.0,0.0,0.0,-6.2114,0.0,0.0,-6.206,-6.2168,-6.1221,-6.0406,-6.0156,-5.9113,-5.8263,-5.7954,-5.7881,-5.7881,-5.7881,-5.7881,-5.7881,-5.7881,-5.7588,-5.7439,-5.7289,-5.6987,-5.6834,-5.668,-5.668,-5.6757,-5.6834,-5.6757,-5.6757,-5.6834,-5.6757,-5.6257,-5.5328,-5.4501,-5.3734,-5.2874,-5.2124,-5.1787,-5.1787,-5.1787,-5.1695,-5.1572,-5.1849,-5.1772,-5.1602,-5.1895,-5.1895,-5.1787,0.0,0.0,0.0,0.0,0.0,0.0,0.0,-4.6918,-4.7536,-4.8157,-4.8495,-4.8885,-4.9409,-4.9593,-4.9663,-4.975,-5.013,-5.0448,-5.0642,-5.0733,-5.075,-5.0696,-5.0748,-5.0851,-5.1005,-5.1809,-5.2718,-5.3689,-5.4563,-5.5449,-5.6302,-5.6309,-5.6355,-5.6422,-5.6484,-5.6554,-5.6606,-5.6558,-5.6439,-5.6261,-5.6242,-5.6671,-5.7339,-5.7403,-5.7986,-5.8837,-5.9495,-6.0266,-6.0999,-6.108,-6.0922,-6.0704,-6.0559,-6.0321,-6.0281,-6.0898,-6.0757,0.0,0.0,0.0,0.0,0.0,0.0,0.0,0.0,0.0,-6.2203,-6.2257,-6.2257,-6.2257,-6.2257,-6.2114,-6.2114,-6.231,-6.1261,-6.0362,-6.0202,-5.9113,-5.8226,-5.7954,-5.7881,-5.7881,-5.7881,-5.7881,-5.7881,-5.7881,-5.7735,-5.7514,-5.7364,-5.7139,-5.6987,-5.6834,-5.6834,-5.6911,-5.7063,-5.6911,-5.6911,-5.6987,-5.6834,-5.6663,-5.6414,-5.5001,-5.4248,-5.4078,-5.2652,-5.2078,-5.2078,-5.1987,-5.1895,-5.1757,-5.2124,-5.2231,-5.2185,-5.2185,-5.2078,-5.2078,0.0,0.0,0.0,0.0,0.0,0.0,0.0,0.0,-4.7349,-4.8271,-4.8694,-4.9042,-4.9308,-4.944,-4.9623,-4.9871,-5.0358,-5.0625,-5.0527,-5.0805,-5.0887,-5.0713,-5.0995,-5.1089,-5.1005,-5.1897,-5.2802,-5.3689,-5.4563,-5.5458,-5.6299,-5.6355,-5.6426,-5.6484,-5.6568,-5.6591,-5.6582,-5.6413,-5.6252,-5.611,-5.6054,-5.6493,-5.7236,-5.7969,-5.8838,-5.9665,-5.9746,-6.0307,-6.1002,-6.108,-6.0858,-6.0533,-6.0508,-6.0256,-6.0069,-6.0852,-6.1572,-6.233,-6.3221,-6.3443,-6.3356,-6.3288,-6.2713,-6.2203,0.0,0.0,-6.2257,-6.2362,-6.2362,-6.2362,-6.2362,-6.2257,-6.2203,-6.2203,-6.1987,-6.139,-6.0174,-5.9838,-5.9331,-5.801,-5.7881,-5.7881,-5.7881,-5.7881,-5.7881,-5.7881,-5.7735,-5.7588,-5.7588,-5.7364,-5.7289,-5.7214,-5.7214,-5.7214,-5.7289,-5.7214,-5.7139,-5.6987,-5.6987,-5.6553,-5.57,-5.4736,-5.4062,-5.3632,-5.2726,-5.2306,-5.2215,-5.2078,-5.2063,-5.2215,-5.2306,-5.2412,-5.2624,-5.2624,-5.2518,-5.2306,0.0,0.0,0.0,0.0,0.0,0.0,0.0,0.0,0.0,-4.8365,-4.8795,-4.9171,-4.9608,-4.9917,-5.0187,-5.0406,-5.0699,-5.0874,-5.0851,-5.1015,-5.1056,-5.0947,-5.1069,-5.1121,-5.1053,-5.244,-5.3332,-5.3701,-5.5073,-5.5968,-5.6361,-5.6426,-5.6463,-5.6504,-5.6566,-5.6606,-5.6582,-5.6386,-5.6212,-5.6142,-5.6571,-5.7157,-5.7907,-5.8857,-5.9804,-6.0611,-6.0539,-6.0632,0.0,-6.1079,-6.0862,-6.0508,-6.0545,-6.0674,-6.0969,-6.1643,-6.2122,-6.2454,-6.2707,-6.3206,-6.3554,0.0,-6.2515,-6.2362,-6.2397,-6.2449,-6.2449,-6.25,-6.25,-6.25,-6.25,-6.2344,-6.2257,0.0,-6.1841,-6.1257,-6.0772,-5.9949,-5.9163,-5.8511,-5.8458,-5.8334,-5.7954,-5.7881,-5.7881,-5.7881,-5.7808,-5.7735,-5.7588,-5.7514,-5.7439,-5.7289,-5.7289,-5.7364,-5.7439,-5.7364,-5.7289,-5.7364,-5.7214,-5.6954,-5.6536,-5.5312,-5.4078,-5.3098,-5.2683,-5.2412,-5.2306,-5.2337,-5.2337,-5.2306,-5.2503,-5.2608,-5.2713,-5.2713,-5.2608,-5.2518,0.0,0.0,0.0,0.0,0.0,0.0,0.0,0.0,0.0,0.0,-4.8926,-4.934,-4.9917,-5.0303,-5.0587,-5.0717,-5.0906,-5.1034,-5.1037,-5.1127,-5.1159,-5.1095,-5.1095,-5.1114,-5.1127,-5.2842,-5.374,-5.376,-5.5478,-5.6355,-5.6422,-5.6481,-5.6504,-5.652,-5.6579,-5.6577,-5.6503,-5.6327,-5.6158,-5.6126,-5.6933,-5.7699,-5.8429,-5.9476,-6.0419,-6.1191,-6.1098,-6.0963,-6.0839,-6.1097,-6.0862,-6.054,-6.0814,-6.1169,-6.1633,-6.2558,-6.2966,-6.3078,-6.2859,-6.3264,0.0,-6.2668,-6.243,-6.2449,-6.2603,-6.2603,-6.2603,-6.2654,-6.2654,-6.2654,-6.2654,-6.2449,-6.2344,-6.2552,-6.1878,-6.1297,-6.1203,-6.0184,-5.9346,-5.896,-5.8892,-5.8703,-5.8192,-5.8209,-5.8082,-5.7881,-5.7881,-5.7825,-5.7662,-5.7662,-5.7588,-5.7439,-5.7439,-5.7514,-5.7662,-5.7514,-5.7514,-5.7588,-5.7439,-5.7364,-5.7364,-5.605,-5.4585,-5.3024,-5.3024,-5.2846,-5.2412,-5.2608,-5.2608,-5.2412,-5.2608,-5.2713,-5.2713,-5.2713,-5.2713,-5.2713,0.0,0.0,0.0,0.0,0.0,0.0,0.0,0.0,0.0,0.0,0.0,0.0,0.0,-5.0425,-5.0567,-5.0507,-5.0877,-5.1039,-5.0906,-5.1042,-5.1095,-5.1095,-5.1095,-5.1127,-5.1202,-5.2892,-5.3837,-5.3895,-5.5574,-5.6422,-5.6499,-5.6499,-5.6523,-5.6606,-5.6606,-5.6497,-5.6308,-5.6158,-5.6035,-5.5993,-5.685,-5.768,-5.851,-5.9583,-6.0503,-6.12,-6.12,-6.1152,-6.108,-6.1099,-6.0834,-6.0633,-6.1417,-6.1535,-6.1735,-6.3372,-6.4353,-6.4829,-6.4426,-6.4128,-6.3749,-6.3196,-6.2849,-6.2603,-6.2603,-6.2603,-6.2654,-6.2755,-6.2805,-6.2805,-6.2805,-6.2705,-6.2603,-6.2603,-6.2344,-6.1951,-6.1318,-6.1027,-6.045,-5.9095,-5.8892,-5.8892,0.0,-5.8892,-5.8581,-5.7954,-5.7881,-5.7881,-5.7881,-5.7881,-5.7881,-5.7881,-5.7881,-5.7881,-5.7881,-5.7881,-5.7808,-5.7588,-5.7588,-5.7588,-5.7588,-5.6861,-5.5619,-5.3992,-5.3992,-5.3505,-5.2713,-5.2713,-5.2713,-5.2713,-5.2713,-5.2713,-5.2713,-5.2713,-5.2713,-5.2713,0.0,0.0,0.0,0.0,0.0,0.0,0.0,0.0,0.0,0.0,0.0,0.0,0.0,0.0,0.0,0.0,-5.0975,-5.1053,-5.0971,-5.1048,-5.1095,-5.1048,-5.1067,-5.1106,-5.1136,-5.288,-5.3837,-5.3896,-5.5613,-5.6501,-5.656,-5.6575,-5.6585,-5.6606,-5.6511,-5.6437,-5.6338,-5.6188,-5.6412,-5.695,-5.7755,-5.8568,-5.9437,-6.0382,-6.0971,-6.1332,0.0,-6.1197,-6.1057,-6.115,-6.0924,-6.0772,-6.1518,-6.2096,-6.2767,-6.4311,-6.4952,-6.5008,-6.452,-6.4388,-6.4253,-6.3747,-6.3618,-6.3612,-6.3612,-6.3612,-6.3524,-6.3308,-6.3472,-6.3587,-6.3308,-6.3139,-6.3073,-6.3168,-6.2618,-6.2132,-6.2005,-6.1412,-6.0807,-6.0326,-6.0326,0.0,0.0,0.0,0.0,-5.8511,-5.8137,-5.7881,-5.7881,-5.7881,-5.7881,-5.7881,-5.7881,-5.7881,-5.7881,-5.7881,-5.7898,-5.7808,-5.7808,-5.7497,-5.6937,-5.6691,-5.5636,-5.3976,-5.3976,-5.3505,-5.2713,-5.2713,-5.2713,-5.2713,-5.2713,-5.2713,-5.2713,-5.2713,-5.2713,-5.2713,0.0,0.0,0.0,0.0,0.0,0.0,0.0,0.0,0.0,0.0,0.0,0.0,0.0,0.0,0.0,0.0,0.0,-5.1053,-5.1039,-5.1073,-5.1087,-5.1062,-5.1114,-5.116,-5.1217,-5.2658,-5.3572,-5.3933,-5.5372,-5.6239,-5.6598,-5.6543,-5.6523,-5.6528,-5.6402,-5.6349,-5.6329,-5.6181,-5.6636,-5.7478,-5.825,-5.9084,-5.9955,-6.0893,-6.1318,0.0,-6.1447,-6.1363,-6.1216,-6.1225,-6.1195,-6.127,-6.2163,-6.3142,-6.4143,-6.4997,-6.5245,-6.5109,-6.4649,-6.4593,-6.4557,-6.4099,-6.4059,-6.4118,-6.4115,-6.4096,-6.4034,-6.3761,-6.3911,-6.4034,-6.3761,-6.3517,-6.34,-6.349,-6.28,-6.231,-6.2362,-6.1786,-6.1257,-6.1045,-6.0986,-6.0867,0.0,0.0,0.0,-5.8892,-5.8263,-5.7881,-5.7881,-5.7881,-5.7881,-5.7881,-5.7881,-5.7881,-5.7881,-5.7881,-5.7881,-5.7881,-5.7881,-5.7645,-5.7089,-5.7089,-5.6113,-5.4469,-5.4469,-5.375,-5.2713,-5.2713,-5.2713,-5.2713,-5.2713,-5.2713,-5.2713,-5.2713,-5.2713,-5.2713,0.0,0.0,0.0,0.0,0.0,0.0,0.0,0.0,0.0,0.0,0.0,0.0,0.0,0.0,0.0,0.0,0.0,0.0,-5.1083,-5.1083,-5.112,-5.119,-5.119,-5.1259,-5.1388,-5.2258,-5.3135,-5.4004,-5.4863,-5.5742,-5.6601,-5.6464,-5.6402,-5.641,-5.6339,-5.6263,-5.622,-5.6253,-5.6737,-5.7552,-5.8416,-5.9284,-6.0172,-6.1136,-6.1503,-6.1515,-6.1568,-6.1607,-6.1578,-6.1376,-6.16,-6.2155,-6.3245,-6.4595,-6.5724,-6.5405,-6.5309,-6.5258,-6.4898,-6.4829,-6.472,-6.437,-6.4275,-6.4255,-6.4176,-6.4176,-6.4176,-6.4136,-6.4136,-6.4176,0.0,0.0,-6.3535,-6.3535,-6.2898,-6.2415,-6.2415,-6.2168,-6.1748,0.0,0.0,0.0,0.0,0.0,0.0,-5.9028,0.0,-5.7954,-5.7881,-5.7881,-5.7881,-5.7881,-5.7881,-5.7881,-5.7881,-5.7881,-5.7881,-5.7881,-5.7881,-5.7881,-5.7881,-5.7881,-5.692,-5.5296,-5.5296,-5.4333,-5.2713,-5.2713,-5.2713,-5.2713,-5.2713,-5.2713,-5.2713,-5.2713,-5.2713,-5.2713,0.0,0.0,0.0,0.0,0.0,0.0,0.0,0.0,0.0,0.0,0.0,0.0,0.0,0.0,0.0,0.0,0.0,0.0,-5.0863,-5.0904,-5.1013,-5.1121,-5.1218,-5.1289,-5.1326,-5.2234,-5.3123,-5.4004,-5.4863,-5.5742,-5.6601,-5.6577,-5.6556,-5.6558,-5.6474,-5.644,-5.6462,-5.6966,-5.762,-5.844,-5.9332,-6.015,-6.0922,-6.1291,-6.1464,-6.1509,-6.152,-6.1556,-6.1564,-6.1375,-6.2039,-6.2995,-6.3166,-6.4341,-6.5624,-6.5552,-6.5484,-6.5435,-6.5356,-6.5307,-6.5307,-6.5207,-6.5175,-6.5156,-6.5144,-6.5144,-6.5028,-6.4685,-6.4894,-6.5047,0.0,0.0,0.0,-6.3952,-6.3149,0.0,-6.2552,-6.231,0.0,-6.1896,0.0,-6.1766,-6.1766,-6.1122,0.0,0.0,-5.9045,-5.8458,-5.7954,-5.7881,-5.7881,-5.7881,-5.7881,-5.7881,-5.7881,-5.7881,-5.7881,-5.7881,-5.7881,-5.7881,-5.7881,-5.7881,-5.692,-5.5296,-5.5296,-5.4333,-5.2713,-5.2713,-5.2713,-5.2713,-5.2713,-5.2713,-5.2713,-5.2713,-5.2713,-5.2713,0.0,0.0,0.0,0.0,0.0,0.0,0.0,0.0,0.0,0.0,0.0,0.0,0.0,0.0,0.0,0.0,0.0,0.0,0.0,-5.0887,-5.0987,-5.1102,-5.1257,-5.1325,-5.13,-5.1847,-5.273,-5.3963,-5.4472,-5.5371,-5.6601,-5.6562,-5.6519,-5.6459,-5.6398,-5.6393,-5.6462,-5.7222,-5.8057,0.0,0.0,-6.0662,-6.1367,-6.1452,-6.1509,-6.1534,-6.1545,-6.158,-6.1615,-6.1412,0.0,-6.3611,-6.3655,-6.4641,-6.5737,-6.5616,0.0,-6.5552,-6.5618,-6.5646,-6.5646,-6.5646,-6.5646,-6.5618,-6.5523,-6.5494,-6.5435,-6.5117,-6.5264,0.0,-6.5117,0.0,0.0,0.0,0.0,0.0,-6.2603,-6.2344,-6.2203,0.0,-6.206,0.0,-6.2023,-6.1636,-6.1045,0.0,-5.9297,-5.8581,-5.7954,-5.7881,-5.7881,-5.7881,-5.7881,-5.7881,-5.7881,-5.7881,-5.7881,-5.7881,-5.7881,-5.7881,-5.7881,-5.7881,-5.7164,-5.5876,0.0,-5.4485,-5.3274,-5.2877,-5.2713,-5.2713,-5.2713,-5.2713,-5.2713,-5.2713,-5.2713,-5.2713,0.0,0.0,0.0,0.0,0.0,0.0,0.0,0.0,0.0,0.0,0.0,0.0,0.0,0.0,0.0,0.0,0.0,0.0,0.0,0.0,-5.0981,-5.105,-5.1278,-5.1367,-5.1297,-5.1372,-5.221,-5.3891,-5.3962,-5.4882,-5.6582,-5.6543,-5.6454,-5.634,-5.6281,-5.6286,-5.6399,-5.7366,-5.8278,-5.9162,-6.0141,-6.0971,-6.1579,0.0,-6.1596,-6.1607,-6.1615,-6.1654,-6.1673,-6.1471,-6.256,-6.4027,-6.4228,-6.5086,-6.5961,-6.5724,-6.5635,-6.5655,-6.5767,-6.5793,-6.5793,-6.5793,-6.5793,-6.5767,-6.5571,-6.5523,-6.5494,-6.5425,0.0,-6.5394,-6.5394,-6.4756,-6.4195,-6.4115,0.0,-6.2686,-6.2654,-6.2397,-6.2257,-6.2257,-6.2114,-6.2023,-6.2023,-6.1895,-6.1372,-6.0093,-5.9297,-5.8581,-5.7954,-5.7881,-5.7881,-5.7881,-5.7881,-5.7881,-5.7881,-5.7881,-5.7881,-5.7881,-5.7881,-5.7881,-5.7881,-5.7881,-5.7406,-5.6536,0.0,0.0,-5.3907,-5.3024,-5.2713,-5.2713,-5.2713,-5.2713,-5.2713,-5.2713,-5.2713,-5.2713,0.0,0.0,0.0,0.0,0.0,0.0,0.0,0.0,0.0,0.0,-4.7944,-4.8767,0.0,0.0,0.0,0.0,0.0,0.0,0.0,0.0,0.0,-5.0856,-5.1163,-5.1307,-5.1295,-5.1308,-5.2163,-5.3891,-5.3908,-5.4808,-5.6517,-5.6556,-5.6562,-5.6558,-5.6548,-5.6532,-5.6639,-5.8124,-5.8836,-5.9073,-6.0666,-6.1358,-6.1444,-6.1501,0.0,0.0,-6.1666,-6.1696,-6.1685,-6.1537,-6.2591,-6.3959,-6.3786,-6.4809,-6.6046,-6.589,-6.5801,-6.5767,-6.5793,-6.5793,-6.5793,-6.5793,-6.5793,-6.5747,-6.5627,-6.558,0.0,0.0,-6.5454,-6.5484,-6.5394,-6.5,-6.4539,-6.4136,0.0,0.0,0.0,0.0,-6.2362,0.0,0.0,0.0,0.0,0.0,0.0,0.0,0.0,-5.8581,-5.7954,-5.7881,-5.7881,-5.7881,-5.7881,-5.7881,-5.7881,-5.7881,-5.7881,-5.7881,-5.7881,-5.7881,-5.7881,-5.7881,-5.7406,-5.6536,-5.5716,0.0,-5.3907,-5.3024,-5.2713,-5.2713,-5.2713,-5.2713,-5.2713,-5.2713,-5.2713,-5.2713,0.0,0.0,0.0,0.0,0.0,0.0,0.0,-4.4575,-4.5544,-4.6489,-4.7416,-4.8098,-4.8366,-4.8816,-4.9174,0.0,0.0,0.0,0.0,0.0,0.0,0.0,-5.0995,-5.1198,-5.1194,-5.1672,-5.2541,-5.3799,0.0,-5.5178,-5.6441,-5.647,-5.6501,-5.6484,-5.6463,-5.6465,-5.6595,-5.8242,-5.8945,-5.9104,-6.085,-6.1518,-6.1467,0.0,0.0,0.0,-6.1674,-6.1701,-6.1754,-6.2155,-6.3116,-6.4099,-6.3794,-6.4845,-6.6185,-6.6022,-6.5971,-6.5943,-6.5878,-6.5846,-6.5846,-6.5846,-6.5846,-6.582,-6.5747,0.0,0.0,0.0,-6.5454,-6.5454,-6.5394,-6.5052,0.0,-6.4483,0.0,0.0,0.0,0.0,0.0,0.0,0.0,0.0,0.0,0.0,0.0,0.0,0.0,-5.8581,-5.7954,-5.7881,-5.7881,-5.7881,-5.7881,-5.7881,-5.7881,-5.7881,-5.7881,-5.7881,-5.7881,-5.7881,-5.7881,-5.7881,-5.7645,-5.7164,-5.5876,0.0,-5.5231,-5.3434,-5.2951,-5.3346,-5.2877,-5.2713,-5.2713,-5.2713,-5.2713,-5.2713,0.0,0.0,0.0,0.0,0.0,0.0,0.0,-4.4176,-4.5286,-4.6205,-4.691,-4.7367,-4.7565,-4.8214,-4.8641,0.0,0.0,0.0,0.0,0.0,0.0,0.0,0.0,0.0,0.0,0.0,0.0,0.0,-5.4633,0.0,0.0,0.0,0.0,0.0,-5.6344,-5.6348,-5.6515,-5.8194,-5.8933,0.0,0.0,-6.1539,0.0,0.0,0.0,0.0,0.0,-6.1678,-6.1815,-6.2701,-6.3574,-6.4281,-6.4215,-6.5181,-6.6329,-6.6202,-6.6129,-6.6086,-6.5967,-6.5928,-6.5897,-6.5897,-6.5897,-6.5872,-6.5839,-6.5701,0.0,0.0,-6.5454,-6.5394,-6.5394,-6.5136,-6.4898,0.0,-6.4134,-6.3561,0.0,0.0,0.0,0.0,0.0,0.0,0.0,0.0,0.0,0.0,0.0,0.0,-5.7954,-5.7881,-5.7881,-5.7881,-5.7881,-5.7881,-5.7881,-5.7881,-5.7881,-5.7881,-5.7881,-5.7881,-5.7881,-5.7881,-5.7808,-5.7554,-5.5955,0.0,0.0,-5.3922,-5.3346,-5.3907,-5.3274,-5.2877,-5.2713,-5.2713,-5.2713,-5.2713,0.0,0.0,0.0,0.0,0.0,0.0,0.0,-4.3573,-4.461,-4.5338,-4.6293,-4.6954,-4.6981,-4.7959,-4.8587,0.0,0.0,0.0,0.0,0.0,0.0,0.0,0.0,0.0,0.0,0.0,0.0,0.0,0.0,0.0,0.0,0.0,0.0,0.0,0.0,0.0,-5.6504,-5.8254,0.0,0.0,0.0,0.0,0.0,0.0,0.0,0.0,0.0,-6.1601,-6.1758,-6.2693,0.0,-6.4433,-6.5184,-6.5968,-6.6544,-6.6399,0.0,0.0,-6.6088,-6.5971,-6.5897,-6.5897,-6.5897,-6.5872,-6.5839,0.0,0.0,-6.5523,-6.5454,-6.5394,-6.5394,-6.5364,-6.522,-6.4863,-6.4254,-6.3808,0.0,0.0,0.0,0.0,0.0,0.0,0.0,0.0,0.0,0.0,0.0,0.0,-5.7881,-5.7881,-5.7881,-5.7881,-5.7881,-5.7881,-5.7881,-5.7881,-5.7881,-5.7881,-5.7881,-5.7881,-5.7881,-5.7881,-5.748,-5.6691,-5.57,0.0,0.0,-5.4317,-5.3907,-5.3976,-5.3907,-5.3434,-5.2713,-5.2713,-5.2713,-5.2713,0.0,0.0,0.0,0.0,0.0,0.0,-4.2395,-4.3531,-4.4423,-4.4835,-4.5784,-4.631,-4.595,-4.6635,-4.7385,-4.7992,0.0,0.0,0.0,0.0,0.0,0.0,0.0,0.0,0.0,0.0,-5.2483,-5.3353,-5.4401,0.0,0.0,0.0,0.0,0.0,0.0,0.0,0.0,0.0,0.0,0.0,0.0,0.0,0.0,0.0,0.0,0.0,0.0,0.0,0.0,0.0,0.0,0.0,-6.5329,-6.6126,0.0,0.0,-6.6446,-6.636,-6.6147,-6.6065,-6.5994,-6.5928,-6.5897,-6.5897,-6.5872,0.0,-6.5674,-6.558,-6.5494,-6.5454,-6.5394,-6.5394,-6.5333,-6.5123,-6.4426,0.0,0.0,0.0,0.0,0.0,0.0,0.0,0.0,0.0,0.0,0.0,0.0,0.0,-5.7881,-5.7881,-5.7881,-5.7881,-5.7881,-5.7881,-5.7881,-5.7881,-5.7881,-5.7881,-5.7881,-5.7881,-5.7881,-5.7331,-5.7239,-5.7314,-5.5876,0.0,0.0,-5.5133,-5.4469,-5.3976,-5.3976,-5.3434,-5.2713,-5.2713,-5.2713,-5.2713,0.0,0.0,0.0,0.0,0.0,-4.1706,-4.2395,-4.3531,-4.4478,-4.4998,-4.5683,-4.6017,-4.5817,-4.5817,-4.6213,-4.7169,-4.7263,0.0,0.0,0.0,0.0,0.0,0.0,0.0,0.0,0.0,-5.2181,-5.3006,-5.4203,-5.523,0.0,0.0,0.0,0.0,0.0,0.0,0.0,0.0,0.0,0.0,0.0,0.0,0.0,0.0,0.0,0.0,0.0,0.0,0.0,0.0,0.0,-6.4458,-6.5329,-6.6165,-6.6809,-6.6727,-6.6642,-6.6533,-6.6264,-6.6148,-6.6065,-6.5933,-6.5897,-6.5897,0.0,0.0,-6.572,-6.558,-6.5523,-6.5454,-6.5394,-6.5364,-6.5302,-6.5123,-6.4389,-6.3747,-6.3612,0.0,0.0,0.0,0.0,0.0,0.0,0.0,0.0,0.0,0.0,0.0,0.0,-5.7881,-5.7881,-5.7881,-5.7881,-5.7881,-5.7881,-5.7881,-5.7881,-5.7881,-5.7881,-5.7881,-5.7881,-5.7013,-5.692,-5.7406,0.0,0.0,0.0,-5.5296,-5.4553,-5.3976,-5.3976,-5.3434,-5.2713,-5.2713,-5.2713,-5.2713,0.0,0.0,0.0,0.0,0.0,0.0,-4.2395,-4.3531,-4.4702,-4.5933,-4.6098,-4.631,-4.6817,-4.595,-4.5511,-4.6049,-4.6098,0.0,0.0,0.0,0.0,0.0,0.0,0.0,0.0,0.0,-5.1916,-5.2786,-5.3953,-5.4921,-5.5711,-5.6043,-5.6194,0.0,0.0,0.0,0.0,0.0,0.0,0.0,0.0,0.0,0.0,0.0,0.0,0.0,0.0,0.0,0.0,0.0,0.0,0.0,0.0,-6.619,-6.6902,-6.6893,-6.6761,-6.6565,-6.6435,-6.6248,-6.6065,-6.5933,-6.5897,-6.5872,0.0,0.0,-6.558,-6.5523,-6.5454,-6.5394,-6.5394,-6.5352,-6.5142,-6.4685,-6.4037,0.0,-6.3131,0.0,0.0,0.0,0.0,0.0,0.0,0.0,0.0,0.0,0.0,0.0,0.0,-5.7881,-5.7881,-5.7881,-5.7881,-5.7881,-5.7881,-5.7881,-5.7881,-5.7881,-5.7881,-5.7881,-5.7881,-5.7013,-5.6614,0.0,0.0,0.0,0.0,-5.4385,-5.3992,-5.3976,-5.3976,-5.3434,-5.2713,-5.2713,-5.2713,-5.2713,0.0,0.0,0.0,0.0,0.0,0.0,0.0,-4.4215,-4.511,-4.5494,-4.585,-4.6147,-4.6358,-4.5699,-4.5355,-4.5563,-4.5748,0.0,0.0,0.0,0.0,0.0,0.0,0.0,0.0,-4.9452,-5.0752,-5.2163,-5.2914,-5.4009,-5.5439,-5.5711,-5.5865,-5.5864,-5.6091,0.0,0.0,0.0,0.0,0.0,0.0,0.0,0.0,0.0,0.0,0.0,0.0,0.0,0.0,0.0,0.0,0.0,0.0,0.0,0.0,-6.6735,-6.6848,-6.677,-6.659,-6.6498,-6.6368,-6.6088,-6.6041,-6.6016,-6.5903,-6.5801,-6.5701,-6.558,-6.5523,-6.5435,-6.5394,-6.5352,-6.5123,-6.4538,-6.3956,0.0,0.0,0.0,0.0,0.0,0.0,0.0,0.0,0.0,0.0,0.0,0.0,0.0,0.0,-5.7881,-5.7881,-5.7881,-5.7881,-5.7881,-5.7881,-5.7881,-5.7881,-5.7881,-5.7881,-5.7881,-5.7881,-5.6348,0.0,0.0,0.0,0.0,0.0,-5.5876,-5.5051,-5.3976,-5.3976,-5.3434,-5.2713,-5.2713,-5.2713,-5.2788,0.0,0.0,0.0,0.0,0.0,0.0,0.0,-4.4451,-4.5178,-4.5563,-4.5716,-4.595,-4.6358,-4.59,-4.5614,-4.5614,-4.5613,0.0,0.0,0.0,0.0,0.0,0.0,0.0,-4.7144,-4.7921,-4.9284,-5.1332,-5.1676,-5.2873,-5.4922,-5.5322,-5.5566,-5.5711,-5.5882,-5.6024,0.0,0.0,0.0,0.0,0.0,0.0,-6.1408,0.0,0.0,0.0,0.0,0.0,0.0,0.0,0.0,0.0,0.0,0.0,0.0,0.0,-6.6883,-6.6813,-6.6644,-6.6544,-6.6419,-6.6148,-6.6065,0.0,0.0,-6.5774,-6.5701,-6.558,-6.5494,-6.5454,-6.5364,-6.5188,-6.4829,-6.4215,-6.3662,0.0,0.0,0.0,0.0,0.0,0.0,0.0,0.0,0.0,0.0,0.0,0.0,0.0,0.0,-5.7881,-5.7881,-5.7881,-5.7881,-5.7881,-5.7881,-5.7881,-5.7881,-5.7881,-5.7881,-5.7881,-5.7881,-5.6442,0.0,0.0,0.0,0.0,0.0,-5.5876,-5.4968,-5.3992,-5.3679,-5.3186,-5.2713,-5.2713,-5.2862,-5.3274,0.0,0.0,0.0,0.0,0.0,0.0,0.0,-4.4446,-4.5069,-4.6017,-4.5749,-4.585,-4.6845,-4.6501,-4.6196,-4.6165,0.0,0.0,0.0,0.0,0.0,0.0,0.0,0.0,-4.5998,-4.6323,-4.7759,-5.0341,-5.0335,-5.1657,-5.4232,-5.4819,-5.5274,-5.5649,-5.5628,-5.5827,-5.6315,-5.7924,-5.8642,-5.8886,-6.0616,-6.1344,0.0,0.0,0.0,0.0,0.0,0.0,0.0,0.0,0.0,0.0,0.0,0.0,0.0,0.0,0.0,0.0,0.0,-6.6459,-6.6283,-6.6148,-6.6016,-6.5878,-6.582,-6.5701,0.0,-6.5523,-6.5454,-6.5364,-6.5258,-6.4898,-6.435,-6.3662,0.0,0.0,0.0,0.0,0.0,0.0,0.0,0.0,0.0,0.0,0.0,0.0,0.0,0.0,0.0,-5.7881,-5.7881,-5.7881,-5.7881,-5.7881,-5.7881,-5.7881,-5.7881,-5.7881,-5.7881,-5.7881,-5.7881,-5.7013,0.0,0.0,0.0,0.0,0.0,-5.4803,-5.4062,-5.3992,-5.3113,-5.2788,-5.2788,-5.2877,-5.3434,-5.4062,0.0,0.0,0.0,0.0,0.0,0.0,0.0,0.0,0.0,0.0,-4.6972,-4.7281,-4.771,-4.736,-4.699,0.0,0.0,0.0,0.0,0.0,0.0,0.0,0.0,0.0,-4.6094,-4.6407,-4.7725,-5.0039,-4.9753,-5.0963,-5.3533,-5.3788,-5.4295,-5.5026,-5.5477,-5.5865,-5.6276,-5.7273,-5.8157,-5.8935,-5.9986,-6.0878,0.0,0.0,0.0,0.0,-6.1514,-6.1568,0.0,0.0,0.0,0.0,0.0,0.0,0.0,0.0,-6.6336,-6.6776,-6.6641,0.0,-6.6477,-6.6299,-6.6148,-6.5997,0.0,-6.5701,-6.558,-6.5523,-6.5454,-6.5283,-6.4845,-6.4593,-6.4118,0.0,0.0,0.0,0.0,0.0,0.0,0.0,0.0,0.0,0.0,0.0,0.0,0.0,0.0,0.0,0.0,-5.7881,-5.7881,-5.7881,-5.7881,-5.7881,-5.7881,-5.7881,-5.7881,-5.7881,-5.7881,-5.7881,-5.7881,-5.7013,0.0,0.0,0.0,0.0,-5.748,-5.57,-5.4968,-5.4886,-5.3992,-5.3664,-5.375,-5.4401,-5.4819,-5.5051,0.0,0.0,0.0,0.0,0.0,0.0,0.0,0.0,0.0,0.0,0.0,-4.8027,-4.8494,-4.8384,0.0,0.0,0.0,0.0,0.0,0.0,0.0,0.0,0.0,-4.5545,-4.518,-4.5813,-4.7204,-4.9334,-4.9267,-5.0578,-5.3166,-5.336,-5.3865,-5.4579,-5.537,-5.5769,-5.5996,-5.7009,-5.7974,-5.8901,-5.9824,0.0,0.0,0.0,0.0,0.0,-6.1592,-6.1617,0.0,-6.1654,-6.1662,-6.1846,0.0,0.0,0.0,0.0,-6.614,-6.6686,-6.662,-6.6528,-6.6419,-6.6254,-6.6128,-6.599,-6.5878,-6.5728,-6.558,-6.5552,-6.5484,-6.5232,-6.472,-6.4426,0.0,0.0,0.0,0.0,0.0,0.0,0.0,0.0,0.0,0.0,0.0,0.0,0.0,0.0,0.0,0.0,0.0,-5.7881,-5.7881,-5.7881,-5.7881,-5.7881,-5.7881,-5.7881,-5.7881,-5.7881,-5.7881,-5.7881,-5.7881,-5.7406,-5.748,0.0,0.0,0.0,-5.7808,-5.6442,-5.5876,-5.5796,-5.4968,-5.4569,-5.4637,-5.5133,-5.5539,-5.5955,0.0,0.0,0.0,0.0,0.0,0.0,0.0,0.0,0.0,0.0,0.0,0.0,0.0,0.0,0.0,0.0,0.0,0.0,0.0,0.0,0.0,0.0,-4.588,-4.5681,-4.449,-4.5269,-4.6648,-4.8629,-4.8804,-5.0225,-5.2711,-5.313,-5.3721,-5.451,-5.5279,-5.5649,-5.5768,-5.6834,-5.7787,-5.8656,-5.968,0.0,0.0,0.0,0.0,0.0,0.0,0.0,0.0,-6.1694,-6.1709,-6.1836,-6.2578,0.0,0.0,0.0,0.0,0.0,-6.659,-6.6406,-6.6234,-6.6129,-6.5994,-6.5897,-6.5897,-6.5728,-6.5608,-6.558,-6.5435,-6.515,-6.4593,-6.4176,0.0,0.0,0.0,0.0,0.0,0.0,0.0,0.0,0.0,0.0,0.0,0.0,0.0,0.0,0.0,0.0,0.0,-5.7881,-5.7881,-5.7881,-5.7881,-5.7881,-5.7881,-5.7881,-5.7881,-5.7881,-5.7881,-5.7881,-5.7881,-5.7881,-5.7881,0.0,0.0,0.0,-5.7808,-5.6937,-5.6614,-5.6536,-5.5796,-5.5458,-5.5539,-5.5619,-5.6192,-5.6768,0.0,0.0,0.0,0.0,0.0,0.0,0.0,0.0,0.0,0.0,0.0,0.0,0.0,0.0,0.0,0.0,0.0,0.0,0.0,0.0,0.0,-4.7675,-4.6676,-4.6244,-4.6436,-4.6196,-4.68,-4.8365,-4.8434,-4.9475,-5.1429,-5.2395,-5.3772,-5.5301,-5.5287,-5.5585,-5.612,-5.6317,-5.6991,-5.8016,-5.8856,0.0,0.0,0.0,0.0,0.0,0.0,0.0,0.0,-6.1695,-6.1697,-6.1713,-6.1855,0.0,0.0,0.0,0.0,0.0,-6.6469,-6.6276,-6.6129,-6.6108,-6.5994,-6.5897,-6.582,-6.5701,-6.558,-6.5523,-6.5182,-6.472,-6.4118,-6.3575,-6.3055,0.0,0.0,0.0,0.0,0.0,0.0,0.0,0.0,0.0,0.0,0.0,0.0,0.0,0.0,0.0,0.0,0.0,-5.7881,-5.7881,-5.7881,-5.7881,-5.7881,-5.7881,-5.7881,-5.7881,-5.7881,-5.7881,-5.7881,-5.7881,-5.7881,0.0,0.0,-5.7881,-5.7808,-5.6937,-5.6614,-5.6614,-5.6459,-5.6364,-5.652,-5.7239,-5.7571,-5.7718,0.0,0.0,0.0,0.0,0.0,0.0,0.0,0.0,0.0,0.0,0.0,0.0,0.0,0.0,0.0,0.0,0.0,0.0,0.0,0.0,-4.9466,-4.8861,-4.8199,-4.7551,-4.6945,-4.7288,-4.7832,-4.8663,-4.9422,-5.0439,-5.1724,-5.2991,-5.4119,-5.5084,-5.5331,-5.5651,-5.5958,-5.6191,-5.6829,-5.7777,0.0,0.0,0.0,0.0,0.0,0.0,0.0,0.0,0.0,0.0,-6.1692,-6.1698,-6.1699,0.0,0.0,0.0,0.0,0.0,-6.5636,-6.5793,-6.5994,-6.5724,-6.5567,-6.5466,-6.5437,-6.5137,-6.4818,-6.4715,-6.45,-6.4176,0.0,0.0,-6.2677,0.0,0.0,0.0,0.0,0.0,0.0,0.0,0.0,0.0,0.0,0.0,0.0,0.0,0.0,0.0,0.0,0.0,-5.7881,-5.7881,-5.7881,-5.7881,-5.7881,-5.7881,-5.7881,-5.7881,-5.7881,-5.7881,-5.7881,-5.7881,-5.7881,-5.7881,0.0,-5.7881,-5.7881,-5.7497,-5.7331,-5.7331,-5.7331,-5.7331,-5.7331,-5.7735,-5.7881,-5.7881,0.0,0.0,0.0,0.0,0.0,0.0,0.0,0.0,0.0,0.0,0.0,0.0,0.0,0.0,0.0,0.0,0.0,0.0,0.0,-5.0432,-5.0099,-4.9709,-4.9648,-4.8921,-4.7391,-4.8235,-4.8772,-4.8919,-5.0317,-5.1562,-5.2678,-5.38,-5.4515,-5.4928,-5.5451,-5.575,-5.5883,-5.6249,-5.6766,-5.7428,0.0,0.0,0.0,0.0,0.0,0.0,0.0,0.0,0.0,0.0,0.0,0.0,0.0,0.0,0.0,-6.2924,-6.3847,-6.4887,-6.4904,-6.5288,-6.5634,-6.5475,-6.5359,-6.523,-6.5016,-6.4661,-6.4294,-6.4101,-6.3919,-6.3723,0.0,-6.294,0.0,0.0,0.0,0.0,0.0,0.0,0.0,0.0,0.0,0.0,0.0,0.0,0.0,0.0,0.0,0.0,0.0,0.0,-5.7881,-5.7881,-5.7881,-5.7881,-5.7881,-5.7881,-5.7881,-5.7881,-5.7881,-5.7881,-5.7881,-5.7881,-5.7881,-5.7881,-5.7881,-5.7881,-5.7881,-5.7881,-5.7881,-5.7881,-5.7881,-5.7881,-5.7881,-5.7881,-5.7881,-5.7881,0.0,0.0,0.0,0.0,0.0,0.0,0.0,0.0,0.0,0.0,0.0,0.0,0.0,0.0,0.0,0.0,0.0,0.0,0.0,-5.0858,-5.075,-5.0529,-5.0567,-4.994,-4.8513,-4.8757,-4.8795,-4.8624,-5.0231,-5.2067,-5.4048,-5.4298,-5.4772,-5.5458,-5.5613,-5.59,-5.6248,-5.6363,-5.6434,-5.6627,-5.8325,0.0,0.0,0.0,0.0,0.0,0.0,0.0,0.0,0.0,0.0,0.0,0.0,0.0,-6.2912,-6.2903,-6.3386,-6.4055,-6.4717,-6.4864,-6.4971,-6.5686,-6.5801,-6.5552,-6.475,-6.4699,-6.4718,-6.4294,-6.385,-6.349,0.0,0.0,0.0,0.0,0.0,0.0,0.0,0.0,0.0,0.0,0.0,0.0,0.0,0.0,0.0,0.0,0.0,0.0,0.0,0.0,0.0,-5.7881,-5.7881,-5.7881,-5.7881,-5.7881,-5.7881,-5.7881,-5.7881,-5.7881,-5.7881,-5.7881,-5.7881,-5.7881,-5.7881,-5.7881,-5.7881,-5.7881,-5.7881,-5.7881,-5.7881,-5.7881,-5.7881,-5.7881,-5.7881,-5.7881,0.0,0.0,0.0,0.0,0.0,0.0,0.0,0.0,0.0,0.0,0.0,0.0,0.0,0.0,0.0,0.0,0.0,0.0,0.0,-5.1024,-5.0929,-5.0721,-5.0861,-5.0529,-4.9625,-4.9616,-4.9561,-4.9408,-5.1061,-5.2906,-5.4884,-5.4933,-5.5243,-5.575,-5.5845,-5.6046,-5.6296,-5.6357,-5.639,-5.6543,-5.8286,-5.8875,0.0,0.0,0.0,0.0,0.0,0.0,0.0,0.0,-6.1695,-6.1698,-6.1704,-6.1871,-6.2074,-6.1977,-6.2485,-6.307,-6.3177,-6.3724,-6.435,-6.4632,-6.4966,-6.506,-6.4388,-6.408,-6.3723,-6.3094,-6.2861,-6.2768,0.0,0.0,0.0,0.0,0.0,0.0,0.0,0.0,0.0,0.0,0.0,0.0,0.0,0.0,0.0,0.0,0.0,0.0,0.0,0.0,0.0,-5.7881,-5.7881,-5.7881,-5.7881,-5.7881,-5.7881,-5.7881,-5.7881,-5.7881,-5.7881,-5.7881,-5.7881,-5.7881,-5.7881,-5.7881,-5.7881,-5.7881,-5.7881,-5.7881,-5.7881,-5.7881,-5.7881,-5.7881,-5.7881,-5.7881,0.0,0.0,0.0,0.0,0.0,0.0,0.0,0.0,0.0,0.0,0.0,0.0,0.0,0.0,0.0,0.0,0.0,0.0,-5.1127,-5.1134,-5.1067,-5.0935,-5.1024,-5.0898,-5.0452,-5.037,-5.0183,-4.9898,-5.1621,-5.3384,-5.521,-5.5345,-5.5554,-5.5845,-5.6014,-5.6184,-5.6329,-5.6396,-5.6387,-5.6488,-5.8267,-5.8852,0.0,0.0,0.0,0.0,0.0,0.0,0.0,0.0,-6.1694,-6.1699,-6.169,-6.164,-6.1568,-6.1453,-6.1698,-6.1998,-6.1986,-6.2599,-6.3332,-6.3645,-6.4139,-6.4412,-6.3909,-6.3624,-6.3271,-6.2482,-6.2362,-6.2185,-6.1638,0.0,0.0,0.0,0.0,0.0,0.0,0.0,0.0,0.0,0.0,0.0,0.0,0.0,0.0,0.0,0.0,0.0,0.0,0.0,0.0,0.0,-5.7881,-5.7881,-5.7881,-5.7881,-5.7881,-5.7881,-5.7881,-5.7881,-5.7881,-5.7881,-5.7881,-5.7881,-5.7881,-5.7881,-5.7881,-5.7881,-5.7881,-5.7881,-5.7881,-5.7881,-5.7881,-5.7881,-5.7881,-5.7881,0.0,0.0,0.0,0.0,0.0,0.0,0.0,0.0,0.0,0.0,0.0,0.0,0.0,0.0,0.0,0.0,0.0,0.0,-5.1211,-5.12,-5.1189,-5.12,-5.1132,-5.1076,-5.0992,-5.0883,-5.0509,-4.9944,-5.173,-5.3419,-5.5026,-5.5477,-5.5701,-5.571,-5.6111,-5.6348,-5.6401,-5.6472,-5.6383,-5.6378,-5.8169,-5.8789,-5.8815,0.0,0.0,0.0,0.0,0.0,0.0,0.0,-6.1707,-6.1699,-6.1697,-6.164,-6.1562,-6.1448,-6.1077,-6.082,-6.1368,-6.1532,-6.1841,-6.2813,-6.3372,-6.3584,-6.3252,-6.3519,-6.3624,-6.275,-6.2326,-6.1768,-6.045,-6.0076,0.0,0.0,0.0,0.0,0.0,0.0,0.0,0.0,0.0,0.0,0.0,0.0,0.0,0.0,0.0,0.0,0.0,0.0,0.0,0.0,-5.7881,-5.7881,-5.7881,-5.7881,-5.7881,-5.7881,-5.7881,-5.7881,-5.7881,-5.7881,-5.7881,-5.7881,-5.7881,-5.7881,-5.7881,-5.7881,-5.7881,-5.7881,-5.7881,-5.7881,-5.7881,-5.7881,-5.7881,-5.7881,0.0,0.0,0.0,0.0,0.0,0.0,0.0,0.0,0.0,0.0,0.0,0.0,0.0,0.0,0.0,0.0,0.0,0.0,-5.1069,-5.1056,-5.1069,-5.1127,-5.1121,-5.1058,-5.0919,-5.0756,-5.1163,-5.2222,-5.2762,-5.3878,-5.5489,-5.5643,-5.5805,-5.598,-5.6096,-5.6285,-5.6479,-5.6489,-5.6797,-5.736,-5.8523,-5.9215,-5.9724,0.0,0.0,0.0,0.0,0.0,0.0,0.0,0.0,0.0,-6.1698,-6.1659,-6.1561,-6.1451,-6.1229,-6.1065,-6.1116,-6.1065,-6.1102,-6.1749,-6.1878,-6.1831,-6.1676,-6.2134,-6.229,-6.1169,-6.0791,-6.059,-6.0264,0.0,0.0,0.0,0.0,0.0,0.0,0.0,0.0,0.0,0.0,0.0,0.0,0.0,0.0,0.0,0.0,0.0,0.0,0.0,0.0,0.0,-5.7881,-5.7881,-5.7881,-5.7881,-5.7881,-5.7881,-5.7881,-5.7881,-5.7881,-5.7881,-5.7881,-5.7881,-5.7881,-5.7881,-5.7881,-5.7881,-5.8209,-5.8581,-5.8581,-5.8581,-5.8651,-5.9197,-5.8737,-5.7954,0.0,0.0,0.0,0.0,0.0,0.0,0.0,0.0,0.0,0.0,-5.0502,-5.0504,0.0,0.0,0.0,0.0,0.0,0.0,-5.1076,-5.1082,-5.1095,-5.1152,-5.1102,-5.1073,-5.0974,-5.0863,-5.1483,-5.2836,-5.3109,-5.3918,-5.5265,-5.5633,-5.5924,-5.6117,-5.6156,-5.6309,-5.6547,-5.6547,-5.6987,-5.7773,-5.8648,-5.9437,-6.0192,0.0,0.0,0.0,0.0,0.0,0.0,0.0,0.0,0.0,-6.1695,-6.1679,-6.1578,-6.1231,-6.0945,-6.0635,-6.0226,-6.005,-6.0076,-6.0434,-6.058,-6.0555,-6.0274,-6.0754,0.0,0.0,-5.9858,-5.9838,-5.9363,0.0,0.0,0.0,0.0,0.0,0.0,0.0,0.0,0.0,0.0,0.0,0.0,0.0,0.0,0.0,0.0,0.0,0.0,0.0,0.0,0.0,-5.8737,-5.8737,-5.8737,-5.8737,-5.8598,-5.8263,-5.8263,-5.8263,-5.8263,-5.801,-5.7881,-5.7881,-5.8209,-5.8263,-5.8334,-5.8598,-5.8994,-5.9363,-5.9363,-5.9363,-5.9363,-5.9838,-5.9247,-5.8334,0.0,0.0,0.0,0.0,0.0,0.0,0.0,0.0,0.0,0.0,-5.0606,-5.0625,0.0,0.0,0.0,0.0,0.0,0.0,0.0,-5.1169,-5.1178,-5.1189,-5.1132,-5.1102,-5.1101,-5.1101,-5.1469,-5.2186,-5.2942,-5.3762,-5.465,-5.5571,-5.6039,-5.6094,-5.6239,-5.64,-5.6581,-5.6659,-5.7128,-5.789,-5.8769,-5.9592,-6.0406,-6.1138,0.0,0.0,0.0,0.0,0.0,0.0,0.0,0.0,-6.1704,-6.1707,-6.1579,-6.0943,-6.0418,-5.9899,-5.9139,-5.8932,-5.8918,-5.9108,-5.9416,0.0,-5.8901,-5.9239,-5.9501,-5.8739,0.0,-5.9189,0.0,0.0,0.0,0.0,0.0,0.0,0.0,0.0,0.0,0.0,0.0,0.0,0.0,0.0,0.0,0.0,0.0,0.0,0.0,0.0,0.0,0.0,-5.9966,-5.9966,-5.9966,-5.9966,-5.9626,0.0,-5.9028,-5.9028,-5.896,-5.8263,-5.8027,-5.8154,-5.872,-5.9028,-5.9028,-5.9709,-6.0048,-6.0093,-6.0093,-6.003,-6.003,-6.0048,-5.9561,-5.8841,0.0,0.0,0.0,0.0,0.0,0.0,0.0,0.0,0.0,0.0,0.0,0.0,0.0,0.0,0.0,0.0,0.0,0.0,0.0,-5.0947,-5.0981,-5.1042,-5.1081,-5.1101,-5.1101,-5.1101,-5.1178,-5.1353,-5.2771,-5.3901,-5.4791,-5.5606,-5.6072,-5.6172,-5.6214,-5.627,-5.64,-5.7095,-5.7894,-5.8808,-5.9668,-6.0526,-6.1321,-6.1483,-6.1569,0.0,0.0,0.0,0.0,0.0,0.0,0.0,-6.1705,-6.1697,-6.1627,-6.1289,-6.0841,-6.0391,-5.9987,-5.9319,-5.875,-5.8772,-5.846,-5.7898,-5.7183,-5.7145,-5.724,-5.718,0.0,0.0,0.0,0.0,0.0,0.0,0.0,0.0,0.0,0.0,0.0,0.0,0.0,0.0,0.0,0.0,0.0,0.0,0.0,0.0,0.0,0.0,0.0,-5.9984,-5.9966,-5.9966,-5.9966,-5.9966,-5.9902,0.0,-5.9774,-5.9774,-5.9774,-5.9028,-5.8977,-5.9596,-5.9709,-5.9774,-5.9774,-5.9902,-6.0282,-6.0789,-6.0789,-6.0468,-6.003,-6.0608,-5.9626,-5.8209,0.0,0.0,0.0,0.0,0.0,0.0,0.0,0.0,0.0,0.0,0.0,0.0,0.0,0.0,0.0,0.0,0.0,0.0,0.0,0.0,-5.0921,-5.1005,-5.1328,-5.1556,-5.1635,-5.1982,-5.2179,-5.2255,-5.3468,-5.4126,-5.4235,-5.5498,-5.614,-5.6256,-5.6262,-5.6304,-5.6411,-5.7281,-5.8198,-5.9123,-5.9999,-6.0879,-6.164,-6.164,-6.1635,-6.1606,-6.1632,0.0,0.0,0.0,0.0,0.0,0.0,0.0,-6.1612,-6.1192,-6.0829,-6.0411,-5.9756,-5.9173,-5.8613,-5.8314,0.0,-5.7486,-5.7,-5.6431,-5.61,0.0,0.0,0.0,0.0,0.0,0.0,0.0,0.0,0.0,0.0,0.0,0.0,0.0,0.0,0.0,0.0,0.0,0.0,0.0,0.0,0.0,0.0,-6.0789,-6.0849,-6.0927,-6.0945,-6.0945,-6.0885,-6.0945,-6.0747,-6.0379,-6.0441,-6.0485,-6.0468,-5.9756,-5.9644,-6.0048,-6.0344,-6.0468,-6.0468,-6.0807,-6.118,-6.1487,-6.1487,-6.1045,-6.0547,-6.0849,-6.0076,-5.8926,0.0,0.0,0.0,0.0,0.0,0.0,0.0,0.0,0.0,0.0,0.0,0.0,0.0,0.0,0.0,0.0,0.0,0.0,0.0,0.0,0.0,-5.1401,-5.1962,-5.2292,-5.2388,-5.2933,-5.3281,-5.3456,-5.4201,-5.4312,-5.3789,-5.5428,-5.6207,-5.6201,-5.6269,-5.6381,-5.6595,-5.7482,-5.8409,-5.9372,-6.0245,-6.1035,-6.1699,-6.1699,-6.1647,-6.1588,-6.1654,-6.1582,-6.1498,-6.1621,0.0,0.0,0.0,0.0,-6.1522,-6.1015,-6.0674,-6.025,-5.9368,-5.8897,-5.8549,-5.7941,-5.7697,0.0,-5.7338,-5.6402,-5.5676,0.0,0.0,0.0,0.0,0.0,0.0,0.0,0.0,0.0,0.0,0.0,0.0,0.0,0.0,0.0,0.0,0.0,0.0,0.0,0.0,0.0,-6.1858,-6.1913,-6.1969,-6.2023,-6.1969,-6.1913,-6.1802,-6.1913,-6.1654,-6.098,-6.1099,-6.1198,-6.1163,-6.0608,-6.0362,-6.0362,-6.0927,-6.1163,-6.1239,-6.1766,-6.2023,-6.2023,-6.2023,-6.1561,-6.0986,-6.0986,-6.0608,-5.9966,0.0,0.0,0.0,0.0,0.0,0.0,0.0,0.0,0.0,0.0,-5.0956,-5.1005,0.0,0.0,0.0,0.0,0.0,0.0,0.0,0.0,0.0,-5.3082,-5.3161,-5.3202,-5.3164,-5.2911,-5.2948,-5.332,-5.3836,-5.4203,-5.4418,-5.5633,-5.6068,-5.5806,-5.6084,-5.6543,-5.7156,-5.8148,-5.9134,-6.0133,-6.1002,-6.1483,-6.1692,-6.1692,-6.1621,-6.1518,-6.1588,-6.15,-6.1356,-6.1489,-6.1526,0.0,0.0,0.0,-6.132,-6.12,-6.0713,-6.0201,-5.9989,0.0,-5.8549,0.0,-5.7697,-5.7437,0.0,0.0,0.0,0.0,0.0,0.0,0.0,0.0,0.0,0.0,0.0,0.0,0.0,0.0,0.0,0.0,0.0,0.0,0.0,0.0,0.0,0.0,0.0,0.0,-6.195,-6.1858,-6.1858,-6.2023,-6.1913,-6.1802,-6.1802,-6.1913,-6.1895,-6.1672,-6.1784,-6.1895,-6.1877,-6.1766,-6.171,-6.1766,-6.1822,-6.1895,-6.1877,-6.195,-6.2023,-6.2023,-6.2023,-6.1561,-6.0986,-6.0986,-6.0608,-5.9966,0.0,0.0,0.0,0.0,0.0,0.0,0.0,0.0,0.0,0.0,0.0,-5.1568,0.0,0.0,0.0,-5.2778,0.0,0.0,0.0,0.0,0.0,-5.3065,-5.3421,-5.3579,-5.347,-5.3663,-5.3884,-5.414,-5.4313,-5.4406,-5.4471,-5.5059,-5.5491,-5.5768,-5.599,-5.6524,-5.7306,-5.8327,-5.9343,-6.0327,-6.1213,-6.1408,-6.1223,-6.1481,-6.1317,-6.0982,-6.1308,-6.1347,-6.1271,-6.144,-6.15,-6.1529,-6.1607,0.0,0.0,0.0,-6.099,-6.0512,-5.9889,-5.9212,-5.8549,0.0,-5.7745,-5.7583,-5.717,0.0,0.0,0.0,0.0,0.0,0.0,0.0,0.0,0.0,0.0,0.0,0.0,0.0,0.0,0.0,0.0,0.0,0.0,0.0,0.0,0.0,0.0,-6.1969,-6.1913,-6.1913,-6.1913,-6.1913,-6.1913,-6.1858,-6.169,-6.1913,-6.1969,-6.1913,-6.1969,-6.2023,-6.2023,-6.2023,-6.2023,-6.2023,-6.2023,-6.2023,-6.2023,-6.2023,-6.2023,-6.2023,-6.2023,-6.1561,-6.0986,-6.0986,-6.0789,-6.0529,0.0,0.0,0.0,0.0,0.0,0.0,0.0,0.0,0.0,0.0,0.0,0.0,0.0,0.0,0.0,0.0,-5.343,0.0,0.0,0.0,0.0,-5.3309,-5.3762,-5.3974,-5.3869,-5.422,-5.4541,-5.476,-5.4591,-5.4484,-5.4444,-5.4587,-5.4981,-5.5481,-5.5614,-5.631,-5.7429,-5.8211,-5.932,-6.0617,-6.1219,-6.1256,-6.0968,-6.1155,-6.0904,-6.0487,-6.0922,-6.1041,-6.102,-6.1317,-6.1433,-6.1437,-6.1519,-6.1471,0.0,0.0,0.0,-6.0806,0.0,0.0,-5.8894,-5.8201,-5.8015,-5.7877,0.0,0.0,0.0,0.0,0.0,0.0,0.0,0.0,0.0,0.0,0.0,0.0,0.0,0.0,0.0,0.0,0.0,0.0,0.0,0.0,0.0,0.0,0.0,-6.1969,-6.1858,-6.1913,-6.1913,-6.1858,-6.1895,-6.1858,-6.1633,-6.1858,-6.1969,-6.2023,-6.2023,-6.2023,-6.2023,-6.2023,-6.2023,-6.2023,-6.2023,-6.2023,-6.2023,-6.2023,-6.2023,-6.2023,-6.2023,-6.1692,-6.1239,-6.1239,-6.1239,-6.1239,0.0,0.0,0.0,0.0,0.0,0.0,0.0,0.0,0.0,0.0,0.0,0.0,-5.2747,-5.3402,-5.3734,-5.3414,-5.4132,-5.4644,-5.4703,-5.5004,0.0,-5.4614,-5.4621,0.0,-5.4554,-5.419,-5.4209,-5.461,-5.4209,-5.4209,-5.4597,-5.461,-5.4642,-5.4654,-5.4752,-5.5813,-5.76,-5.7785,-5.9162,-6.1229,-6.1089,-6.1177,-6.1289,-6.069,-6.0365,-6.0246,-6.0392,-6.0397,0.0,0.0,0.0,0.0,0.0,0.0,-6.1229,0.0,0.0,0.0,0.0,-6.0138,0.0,-5.8874,-5.8572,0.0,0.0,0.0,0.0,0.0,0.0,0.0,0.0,0.0,0.0,0.0,0.0,0.0,0.0,0.0,0.0,0.0,0.0,0.0,0.0,0.0,0.0,0.0,0.0,-6.2023,-6.1969,-6.1858,-6.1858,-6.1969,-6.1858,-6.1802,-6.1802,-6.1802,-6.184,-6.2023,-6.2023,-6.2023,-6.2023,-6.2023,-6.2023,-6.2023,-6.2023,-6.2023,-6.2023,-6.2023,-6.2023,-6.2023,-6.2023,-6.195,-6.195,-6.195,-6.195,-6.195,0.0,0.0,0.0,0.0,0.0,0.0,0.0,0.0,0.0,0.0,0.0,0.0,0.0,-5.3651,-5.3632,-5.3225,-5.3849,-5.4493,-5.5072,-5.5217,0.0,-5.4463,-5.4654,-5.456,-5.4108,-5.3963,-5.3944,-5.4108,-5.3907,-5.387,-5.4018,-5.3926,-5.3907,-5.3944,-5.5312,-5.6594,-5.7793,-5.8665,-5.9893,-6.1276,-6.1076,-6.0905,-6.0735,-6.0496,-6.0142,-5.984,-5.997,0.0,0.0,0.0,0.0,0.0,0.0,0.0,0.0,0.0,0.0,0.0,0.0,0.0,0.0,-5.9417,-5.8972,0.0,0.0,0.0,0.0,0.0,0.0,0.0,0.0,0.0,0.0,0.0,0.0,0.0,0.0,0.0,0.0,0.0,0.0,0.0,0.0,0.0,0.0,0.0,0.0,0.0,-6.2023,-6.195,-6.1913,-6.1858,-6.1802,-6.1802,-6.1802,-6.1913,-6.1969,-6.2023,-6.2023,-6.2023,-6.2023,-6.2023,-6.2023,-6.2023,-6.2023,-6.2023,-6.2023,-6.2023,-6.2023,-6.2023,-6.2023,-6.2023,-6.2023,-6.2023,-6.2023,-6.195,0.0,0.0,0.0,0.0,0.0,0.0,0.0,0.0,-5.2565,-5.3232,0.0,0.0,0.0,0.0,-5.316,-5.2829,-5.3188,-5.3731,-5.4486,-5.4562,-5.4443,-5.4142,-5.4349,-5.4246,-5.3794,-5.3553,-5.3534,-5.3813,-5.3302,-5.3241,-5.3499,-5.34,-5.3529,-5.3846,-5.5748,-5.6863,-5.7365,-5.849,-5.9774,-6.0958,-6.0711,-6.062,-6.0623,-6.0334,-6.0027,0.0,0.0,0.0,0.0,0.0,0.0,0.0,0.0,0.0,0.0,0.0,0.0,0.0,-6.0903,0.0,0.0,0.0,0.0,0.0,0.0,0.0,0.0,0.0,0.0,0.0,0.0,0.0,0.0,0.0,0.0,0.0,0.0,0.0,0.0,0.0,0.0,0.0,0.0,0.0,0.0,0.0,0.0,0.0,-6.2023,-6.2023,-6.1969,-6.1858,-6.1858,-6.1858,-6.1858,-6.1969,-6.2023,-6.2023,-6.2023,-6.2023,-6.2023,-6.2023,-6.2023,-6.2023,-6.2023,-6.2023,-6.2023,-6.2023,-6.2023,-6.2023,-6.2023,-6.2023,-6.2023,-6.2023,-6.2023,-6.1895,0.0,0.0,0.0,0.0,0.0,0.0,0.0,0.0,-5.1997,-5.2714,0.0,0.0,0.0,0.0,0.0,-5.221,-5.2248,-5.2492,-5.2944,-5.3057,-5.3334,-5.3738,0.0,0.0,-5.3813,-5.3032,-5.3014,-5.3813,-5.253,-5.2325,-5.3096,-5.3078,-5.3518,-5.435,-5.59,-5.6482,-5.6385,-5.7281,-5.8716,-6.0344,-5.9971,-6.031,-6.0978,-6.0214,0.0,0.0,-5.9668,-5.9616,0.0,-5.9367,0.0,0.0,0.0,0.0,0.0,0.0,0.0,0.0,0.0,0.0,0.0,0.0,0.0,0.0,0.0,0.0,0.0,0.0,0.0,0.0,0.0,0.0,0.0,0.0,0.0,0.0,0.0,0.0,0.0,0.0,0.0,0.0,0.0,0.0,0.0,0.0,0.0,-6.2005,-6.2023,-6.2023,-6.2023,-6.2005,-6.2023,-6.2023,-6.2005,-6.2023,-6.2023,-6.2023,-6.2023,-6.2023,-6.2023,-6.2023,-6.2023,-6.2023,-6.2023,-6.2023,-6.2023,-6.2023,-6.2023,-6.2023,-6.2023,-6.2023,-6.2023,-6.2023,-6.2023,-6.1895,0.0,0.0,0.0,0.0,0.0,-5.118,-5.2445,-5.2644,-5.2721,0.0,0.0,0.0,-5.2043,-5.1516,-5.1315,-5.1656,-5.1707,-5.1939,-5.2454,-5.3048,-5.325,-5.2958,-5.37,-5.4054,-5.3813,-5.3241,-5.3222,-5.3813,-5.2736,-5.2521,-5.3096,-5.2678,-5.316,-5.435,-5.5288,-5.5926,-5.6426,-5.8124,-5.9194,-5.9826,-5.9954,-6.0018,0.0,0.0,0.0,0.0,0.0,-5.8613,-5.8777,0.0,-5.9477,-6.0387,0.0,0.0,-6.2243,0.0,0.0,-6.1556,-6.1627,0.0,0.0,0.0,0.0,0.0,0.0,0.0,0.0,0.0,0.0,0.0,0.0,0.0,0.0,0.0,0.0,0.0,0.0,0.0,0.0,0.0,0.0,0.0,0.0,0.0,0.0,0.0,-6.198,-6.236,-6.2005,-6.2023,-6.1969,-6.1858,-6.1969,-6.1969,-6.1858,-6.1969,-6.2023,-6.2023,-6.2023,-6.2023,-6.2023,-6.2023,-6.2023,-6.2023,-6.2023,-6.2023,-6.2023,-6.2023,-6.2023,-6.2023,-6.2023,-6.2023,-6.2023,-6.2023,-6.2023,-6.1822,0.0,0.0,0.0,0.0,0.0,-5.117,-5.1902,-5.2001,-5.1979,0.0,0.0,0.0,-5.1352,-5.0952,-5.0776,-5.0937,-5.0874,-5.1011,-5.1563,-5.1902,-5.2244,-5.2568,-5.3235,-5.3553,-5.3524,-5.289,-5.2789,-5.3185,-5.2064,-5.1824,-5.249,-5.2491,-5.2985,-5.3905,-5.4967,-5.5716,-5.6223,-5.7501,-5.8513,-5.9254,-5.9191,0.0,0.0,-5.9854,-5.963,0.0,0.0,0.0,-5.9212,-5.8807,-5.9607,0.0,0.0,0.0,0.0,0.0,0.0,-6.1607,-6.1673,-6.1615,-6.1534,0.0,0.0,0.0,0.0,-6.002,0.0,0.0,0.0,0.0,0.0,0.0,0.0,0.0,0.0,0.0,0.0,0.0,0.0,0.0,0.0,0.0,0.0,0.0,0.0,-6.1299,-6.207,-6.2542,-6.2563,-6.2412,-6.2273,-6.2167,-6.2042,-6.1969,-6.1913,-6.1969,-6.2023,-6.2023,-6.2023,-6.2023,-6.2023,-6.2023,-6.2023,-6.2023,-6.2023,-6.2023,-6.2023,-6.2023,-6.2023,-6.2023,-6.2023,-6.2023,-6.2023,-6.2023,-6.1822,-6.143,0.0,0.0,-5.0012,-5.0333,-5.0584,-5.0683,-5.0643,-5.0623,-5.0584,0.0,-5.0521,-5.0542,-5.0603,-5.0663,-5.0565,-5.0272,-4.9993,-5.0024,-5.0491,-5.0284,-5.0802,-5.2252,-5.2512,-5.275,-5.3033,-5.2302,-5.209,-5.2391,-5.1083,-5.0841,-5.1619,-5.2319,-5.2857,-5.3349,-5.4617,-5.5473,-5.5875,-5.6002,-5.7094,-5.8689,-5.8175,-5.8925,0.0,0.0,-5.9692,-5.9624,-5.9309,-5.9701,-6.0239,-5.9375,-5.9983,0.0,0.0,0.0,0.0,0.0,-6.226,-6.1697,-6.1687,-6.1691,-6.1681,0.0,0.0,0.0,-6.0652,-6.041,-6.0142,0.0,0.0,0.0,0.0,0.0,0.0,0.0,0.0,0.0,0.0,0.0,0.0,0.0,0.0,0.0,0.0,-5.9799,-6.0449,-6.1856,-6.209,-6.2562,-6.336,-6.2951,-6.2695,-6.2695,-6.222,-6.2023,-6.2023,-6.2023,-6.2023,-6.2023,-6.2023,-6.2023,-6.2023,-6.2023,-6.2023,-6.2023,-6.2023,-6.2023,-6.2023,-6.2023,-6.2023,-6.2023,-6.2023,-6.2023,-6.2023,-6.1895,-6.1505,-6.0909,0.0,-4.9849,-5.0068,-5.0339,-5.0606,-5.0794,-5.0757,-5.072,-5.0683,-5.0664,-5.0664,-5.0663,-5.0663,-5.0683,-5.0663,-5.0604,-5.0313,-5.007,-4.9948,-5.0284,-5.0505,-5.058,-5.1881,-5.2623,-5.2696,-5.2395,-5.2444,-5.2932,-5.1526,-5.1051,-5.1586,-5.1558,-5.2368,-5.3851,-5.3486,-5.4255,-5.5759,-5.4972,0.0,-5.8154,-5.8385,0.0,-5.8733,-5.945,-5.9298,-5.8799,-5.9084,-5.939,-5.9786,-6.1024,-6.1831,-6.2503,0.0,0.0,0.0,0.0,0.0,0.0,0.0,0.0,0.0,0.0,0.0,0.0,-6.1247,-6.1137,-6.1005,0.0,0.0,0.0,0.0,0.0,0.0,0.0,0.0,0.0,0.0,0.0,0.0,0.0,0.0,0.0,0.0,-5.9769,-6.0332,-6.0258,-6.1459,-6.2562,-6.336,-6.2951,-6.2695,-6.2695,-6.222,-6.2023,-6.2023,-6.2023,-6.2023,-6.2023,-6.2023,-6.2023,-6.2023,-6.2023,-6.2023,-6.2023,-6.2023,-6.2023,-6.2023,-6.2023,-6.2023,-6.2023,-6.2023,-6.2023,-6.195,-6.1372,-6.1104,-6.0849,-4.9948,-5.0155,-5.032,-5.0425,-5.0644,-5.0793,-5.0793,-5.0795,-5.0777,-5.0757,-5.072,-5.0702,-5.0683,-5.0702,-5.0624,-5.0483,-5.0294,-5.0038,-4.9627,-4.9875,-5.0057,-5.0098,-5.1341,-5.2122,-5.2243,-5.2277,-5.2317,-5.2353,-5.1401,-5.1085,-5.1402,-5.1948,-5.2883,-5.413,-5.4306,-5.4513,-5.468,-5.397,-5.4851,-5.6722,-5.76,0.0,-5.9453,-6.0003,-5.9903,-5.9573,-6.0004,-6.0351,-6.0821,-6.2345,-6.3065,0.0,0.0,-6.4487,-6.445,0.0,-6.3254,-6.253,0.0,0.0,0.0,-6.169,0.0,0.0,0.0,-6.1295,-6.1197,0.0,0.0,0.0,0.0,0.0,0.0,0.0,0.0,0.0,0.0,0.0,0.0,0.0,0.0,0.0,0.0,-5.983,-6.028,-6.0435,-6.1618,-6.2461,-6.2895,-6.2444,-6.2183,-6.2183,-6.152,-6.1124,-6.1124,-6.1298,-6.1408,-6.1426,-6.1824,-6.2023,-6.2023,-6.2023,-6.2023,-6.2023,-6.2023,-6.2023,-6.2023,-6.2023,-6.2023,-6.2023,-6.2023,-6.1822,-6.143,-6.1104,-6.059,-5.9867,-5.0191,-5.0427,-5.0606,-5.0548,-5.0699,-5.0861,-5.0871,-5.0904,-5.0891,-5.0831,-5.0775,-5.0738,-5.074,-5.0739,-5.0663,-5.0389,-5.0459,-5.0231,-4.955,-4.9711,-4.9908,-5.0114,-5.1057,-5.1732,-5.1985,-5.2295,-5.2177,-5.1669,-5.1352,-5.1217,-5.1222,-5.2527,-5.3482,-5.4135,-5.5005,-5.4782,-5.3683,-5.3323,0.0,-5.5692,0.0,-5.8734,-6.0711,-6.0858,-6.0855,-6.0858,-6.1441,-6.1899,-6.2392,-6.3482,-6.3967,-6.4254,-6.4847,-6.4964,0.0,0.0,0.0,0.0,0.0,0.0,0.0,0.0,0.0,-6.1533,0.0,0.0,0.0,-6.1046,0.0,0.0,0.0,0.0,0.0,0.0,0.0,0.0,0.0,0.0,0.0,0.0,0.0,0.0,0.0,-5.9918,-6.0226,-6.1022,-6.1743,-6.2235,-6.2406,-6.1939,-6.1692,-6.1692,-6.08,-6.0309,-6.0309,-6.0474,-6.0575,-6.0593,-6.1245,-6.1553,-6.1553,-6.1553,-6.1553,-6.1553,-6.1553,-6.1553,-6.1553,-6.1553,-6.1498,-6.1388,-6.1696,-6.1505,-6.0986,-6.0711,-5.9867,-5.8892,-5.0471,-5.0548,-5.0692,-5.0681,-5.085,-5.1009,-5.1141,-5.1053,-5.0964,-5.091,-5.0932,-5.0937,-5.089,-5.0932,-5.0959,-5.0914,-5.1401,-5.1202,-5.0007,-5.0675,-5.0789,-5.0133,-5.1278,-5.2034,-5.2262,-5.2632,-5.2536,-5.1964,-5.2145,-5.1891,-5.1222,-5.2327,-5.306,-5.3428,-5.3506,-5.3785,-5.4109,0.0,-5.457,0.0,-5.7562,-5.9169,0.0,-6.1517,-6.1754,-6.1954,-6.2889,-6.3521,-6.3932,0.0,-6.4634,-6.4727,0.0,-6.5517,-6.5449,0.0,0.0,0.0,0.0,0.0,0.0,0.0,-6.155,0.0,0.0,0.0,-6.1458,-6.144,0.0,0.0,0.0,0.0,0.0,0.0,0.0,0.0,0.0,0.0,0.0,0.0,0.0,0.0,0.0,0.0,-6.0226,-6.1022,-6.1193,-6.1572,-6.2368,-6.1939,-6.1692,-6.1692,-6.08,-6.0309,-6.0309,-5.9929,-5.9742,-5.9742,-5.9832,-5.9868,-5.9868,-5.9868,-5.9868,-5.9868,-5.9868,-5.9868,-5.9868,-5.9868,-5.9583,-5.923,-6.0568,-6.1045,-6.0849,-5.9609,-5.9028,-5.8841,-5.0009,-5.0907,-5.0973,-5.0942,-5.1025,-5.1141,-5.1191,-5.1152,-5.1109,-5.1078,-5.105,-5.103,-5.0977,-5.0989,-5.1206,-5.1706,0.0,-5.1997,0.0,0.0,-5.1942,-5.1473,-5.2151,-5.257,-5.2585,-5.2784,-5.2817,-5.2713,-5.2201,-5.1986,-5.2128,-5.2041,-5.2775,-5.4116,-5.4209,0.0,-5.4482,0.0,-5.4957,0.0,0.0,0.0,0.0,-6.3144,-6.3569,-6.3912,-6.4334,-6.4603,-6.476,0.0,-6.5187,0.0,0.0,0.0,0.0,0.0,0.0,0.0,0.0,0.0,0.0,0.0,0.0,0.0,-6.166,0.0,-6.15,0.0,0.0,0.0,0.0,0.0,0.0,0.0,0.0,0.0,0.0,0.0,0.0,0.0,0.0,0.0,0.0,0.0,0.0,0.0,0.0,-6.0691,-6.0928,-6.0774,-6.067,-6.067,-6.0016,-5.9547,-5.9305,-5.9296,-5.9179,-5.8909,-5.9379,-5.9615,-5.9615,-5.9615,-5.9615,-5.9615,-5.9615,-5.9615,-5.9615,-5.9615,-5.924,-5.872,-5.8994,-5.8818,-5.8426,-5.7863,-5.7363,-5.7002,-5.0829,-5.1702,-5.1557,-5.1531,-5.1726,-5.1918,-5.1943,-5.196,-5.1952,-5.1921,-5.1908,-5.1852,-5.1784,-5.1802,0.0,0.0,-5.298,-5.3069,0.0,0.0,-5.3182,0.0,0.0,0.0,0.0,-5.3262,-5.3244,-5.2931,-5.2533,-5.2329,-5.2315,-5.1815,-5.2267,-5.355,-5.3852,-5.4,-5.4073,0.0,-5.4948,-5.6816,-5.6929,-5.9798,-6.4059,-6.4698,-6.5163,-6.5471,-6.5471,-6.5489,-6.5485,-6.5526,-6.5778,0.0,-6.5893,0.0,0.0,0.0,0.0,0.0,-6.5487,0.0,0.0,0.0,0.0,0.0,0.0,0.0,0.0,0.0,0.0,0.0,0.0,0.0,0.0,0.0,0.0,0.0,0.0,0.0,0.0,0.0,0.0,0.0,0.0,0.0,0.0,0.0,0.0,0.0,-5.9918,-5.9885,-5.9885,-5.9885,-5.9244,-5.8728,-5.8415,-5.8213,-5.7956,-5.7606,-5.809,-5.8311,-5.8329,-5.8528,-5.8619,-5.8637,-5.8854,-5.8945,-5.8945,-5.8945,-5.8484,-5.7779,-5.7233,-5.6558,-5.587,-5.6299,-5.615,-5.5716,-5.3767,-5.3129,-5.255,-5.2558,-5.3197,-5.3744,-5.3796,-5.3864,-5.3859,-5.3741,0.0,0.0,0.0,0.0,0.0,0.0,0.0,-5.4586,-5.3357,0.0,-5.4511,0.0,0.0,-5.3773,0.0,0.0,-5.38,-5.2343,-5.3682,-5.3203,-5.1082,-5.1652,-5.1386,-5.0563,-5.1237,-5.1897,-5.2516,-5.2842,-5.4614,-5.7328,-5.8106,-6.1106,-6.5197,0.0,-6.6103,-6.6179,-6.6179,0.0,0.0,-6.6332,-6.6457,0.0,0.0,0.0,0.0,0.0,0.0,0.0,0.0,0.0,0.0,-6.2735,0.0,0.0,0.0,0.0,-6.1337,0.0,0.0,0.0,0.0,0.0,0.0,0.0,0.0,0.0,0.0,0.0,0.0,0.0,0.0,0.0,0.0,0.0,0.0,0.0,0.0,0.0,-5.9918,-5.9885,-5.9885,-5.9885,-5.8681,-5.8015,-5.8015,-5.6427,-5.5603,-5.5603,-5.5236,-5.5051,-5.507,-5.5794,-5.612,-5.6156,-5.6935,-5.7279,-5.7279,-5.7279,-5.66,-5.5514,-5.5472,-5.47,-5.3754,-5.5192,-5.5716,-5.5716,-5.2872,-5.395,-5.3939,-5.3539,-5.3698,-5.3891,-5.3957,-5.3951,-5.3928,0.0,0.0,0.0,0.0,-5.3904,-5.4171,0.0,0.0,-5.5213,-5.5286,-5.5471,0.0,0.0,0.0,-5.4956,0.0,0.0,0.0,0.0,-5.4102,-5.3549,-5.2876,-5.1231,-5.0272,-4.9882,-4.9914,-5.073,0.0,0.0,0.0,0.0,0.0,-6.2141,-6.4389,0.0,0.0,-6.6122,-6.6122,-6.6234,0.0,-6.6393,-6.6483,-6.6576,-6.6468,-6.6457,-6.6461,-6.6434,-6.6517,0.0,0.0,0.0,-6.4782,-6.3774,0.0,0.0,0.0,0.0,0.0,0.0,0.0,0.0,0.0,0.0,0.0,0.0,0.0,0.0,0.0,0.0,0.0,0.0,0.0,0.0,0.0,0.0,0.0,0.0,0.0,0.0,0.0,-5.9982,-5.9703,-5.9108,-5.8708,-5.8035,-5.7133,-5.6286,-5.5766,-5.5493,-5.5091,-5.4907,-5.4907,-5.516,-5.5269,-5.5287,-5.5558,-5.5685,-5.5636,-5.5245,-5.4883,-5.4571,-5.4156,-5.3822,-5.3568,-5.4076,-5.4245,-5.4245,-5.363,-5.4924,-5.5048,-5.4344,0.0,-5.4663,-5.4741,0.0,0.0,0.0,-5.4753,0.0,-5.4786,0.0,-5.5055,0.0,-5.566,-5.5868,-5.6334,-5.6495,0.0,-5.6764,-5.6531,0.0,0.0,0.0,0.0,0.0,0.0,-5.4079,-5.323,-5.1106,-4.9805,-4.9218,-4.897,-5.0042,-5.2217,0.0,-5.5687,0.0,0.0,-6.2109,0.0,0.0,-6.469,-6.5586,0.0,-6.5773,-6.6042,-6.6042,-6.6174,-6.6303,-6.6206,-6.6244,-6.6288,-6.6243,-6.64,-6.6597,-6.6571,-6.5764,0.0,-6.4124,-6.3015,0.0,-6.1423,0.0,0.0,0.0,0.0,0.0,0.0,0.0,0.0,0.0,0.0,0.0,0.0,-6.1434,0.0,0.0,0.0,0.0,0.0,0.0,0.0,0.0,0.0,0.0,0.0,0.0,-5.9166,-5.8318,-5.7984,-5.7402,-5.6534,-5.566,-5.5143,-5.4852,-5.4328,-5.4055,-5.4055,-5.4345,-5.4472,-5.449,-5.478,-5.4907,-5.484,-5.4251,-5.3903,-5.3747,-5.3117,-5.2997,-5.3112,-5.3399,-5.3501,-5.3501,-5.5951,-5.6044,0.0,0.0,-5.5525,0.0,0.0,0.0,-5.6184,0.0,-5.6289,-5.6405,-5.6437,-5.6492,-5.6558,-5.6595,-5.6613,-5.6605,-5.6614,-5.7265,0.0,0.0,-5.8221,-5.8348,-5.8176,0.0,0.0,0.0,0.0,-5.4765,-5.2179,-5.1148,-4.9977,-4.8635,-4.8434,0.0,-5.2499,-5.3209,-5.5784,-5.9512,-6.0451,-6.1157,-6.1571,-6.1571,-6.2808,-6.4514,-6.4619,-6.491,-6.5307,-6.5326,-6.5528,-6.5743,-6.5759,-6.5878,-6.6043,-6.6056,-6.629,-6.6513,-6.6333,-6.5145,-6.3928,-6.3766,0.0,0.0,0.0,0.0,-6.1264,0.0,0.0,0.0,0.0,0.0,0.0,0.0,0.0,0.0,0.0,0.0,0.0,0.0,0.0,0.0,0.0,0.0,0.0,0.0,0.0,0.0,0.0,0.0,-5.841,-5.7525,-5.6637,-5.6171,-5.6133,-5.4551,-5.372,-5.3683,-5.29,-5.2544,-5.2516,-5.3295,-5.3639,-5.3675,-5.4454,-5.478,-5.4731,-5.4125,-5.3495,-5.2906,-5.2302,-5.2193,-5.235,-5.3196,-5.3501,-5.3501,-5.6078,-5.6439,-5.6636,0.0,-5.6058,-5.6015,0.0,0.0,0.0,0.0,-5.6063,-5.6359,-5.6997,-5.7033,-5.7324,-5.8064,-5.8129,0.0,0.0,0.0,0.0,-5.8694,-5.873,-5.8937,-5.9275,-5.9016,0.0,-5.8044,0.0,0.0,-5.3994,-5.2357,-5.0727,-4.909,0.0,0.0,-5.2214,-5.3005,-5.5946,-6.007,-6.0166,-6.0537,0.0,0.0,-6.1423,-6.2044,-6.317,-6.3763,-6.4081,-6.4495,-6.4756,-6.4968,-6.5263,-6.5275,-6.5287,-6.5568,-6.5683,-6.5736,-6.5947,-6.4832,-6.3645,-6.3748,-6.249,-6.1175,0.0,0.0,0.0,0.0,0.0,0.0,0.0,0.0,0.0,0.0,0.0,0.0,0.0,0.0,0.0,0.0,0.0,0.0,0.0,0.0,0.0,0.0,0.0,0.0,0.0,0.0,0.0,-5.7453,-5.6607,-5.5887,-5.5242,-5.4529,-5.3997,-5.3683,-5.3203,-5.2787,-5.2498,-5.2715,-5.2806,-5.2824,-5.3023,-5.3114,-5.3049,-5.1967,-5.1827,-5.2096,-5.1064,-5.1002,-5.1657,-5.301,-5.3501,-5.3433,-5.6368,0.0,0.0,-5.7175,0.0,0.0,-5.6869,0.0,0.0,-5.6791,-5.6888,0.0,-5.7637,-5.7714,-5.7944,-5.8509,-5.8564,0.0,-5.8686,0.0,0.0,-5.9433,-5.9851,-6.0184,-6.0393,-6.011,0.0,-5.9319,0.0,0.0,-5.5288,-5.3533,-5.2081,-5.0866,0.0,-5.1072,-5.3493,-5.5325,-5.7698,-6.0335,-6.0362,0.0,0.0,-6.0897,-6.0736,-6.0658,-6.1787,-6.2579,-6.3145,-6.3784,-6.4063,-6.42,-6.4441,-6.4404,-6.4423,-6.4828,-6.5004,-6.5159,-6.5545,-6.4427,-6.318,-6.3348,-6.2086,-6.0781,-6.0891,-6.0894,-6.0939,0.0,0.0,0.0,0.0,0.0,0.0,0.0,0.0,0.0,0.0,0.0,0.0,0.0,0.0,0.0,0.0,0.0,0.0,0.0,0.0,0.0,0.0,0.0,0.0,-5.7525,-5.7009,-5.6334,-5.5489,-5.5028,-5.446,-5.3683,-5.3267,-5.2919,-5.2498,-5.2498,-5.2498,-5.2498,-5.2498,-5.2498,-5.2387,-5.1191,-5.0978,-5.1307,-5.041,-5.0338,-5.0862,-5.2063,-5.2489,-5.2434,-5.6843,0.0,0.0,0.0,0.0,0.0,0.0,-5.81,0.0,-5.7889,0.0,-5.8207,-5.8325,-5.8431,-5.8549,-5.8684,0.0,-5.8796,-5.8944,-5.9706,-6.0129,-6.0129,-6.1023,-6.145,-6.1262,-6.1168,0.0,0.0,0.0,0.0,-5.6343,-5.4805,-5.377,-5.314,0.0,0.0,0.0,-5.8547,-5.9984,-6.0441,-6.0736,-6.0897,-6.0897,-6.0838,-6.045,-6.0065,-6.0676,-6.1458,-6.2278,-6.3047,-6.3317,-6.3371,-6.3524,-6.3512,-6.3568,-6.3981,-6.4294,-6.4566,-6.4952,-6.3828,-6.2604,-6.2763,-6.1502,-6.0291,-6.0642,-6.0685,-6.0746,-6.1157,-6.124,-6.1284,0.0,0.0,0.0,0.0,0.0,0.0,0.0,0.0,0.0,0.0,0.0,0.0,0.0,0.0,0.0,0.0,0.0,0.0,0.0,0.0,0.0,-5.7844,-5.7604,0.0,-5.6391,0.0,-5.5036,-5.3926,-5.3404,-5.2987,-5.2572,-5.2526,-5.2498,-5.2498,-5.2498,-5.2498,-5.2387,-5.1191,-5.0589,-5.0439,-5.0076,-4.9949,-5.0033,-5.0666,-5.0827,-5.0756,0.0,0.0,0.0,0.0,0.0,-5.9303,-5.9731,-5.8615,-5.7698,-5.7728,-5.7844,-5.8246,-5.9019,-5.9013,-5.9344,-6.023,-6.0288,0.0,0.0,0.0,0.0,-6.0824,-6.1012,-6.1087,-6.1053,-6.1178,-6.0989,0.0,0.0,0.0,-5.7733,-5.6666,-5.5432,0.0,0.0,0.0,-5.667,-5.914,0.0,-6.0796,-6.0897,-6.0897,-6.0838,-6.0344,-6.0065,-6.0065,-6.0676,-6.0718,-6.0615,-6.1788,-6.2129,-6.2182,-6.3084,-6.3168,-6.3025,-6.3397,-6.3468,-6.345,-6.3803,-6.2899,-6.1932,-6.2249,-6.1247,-6.0217,-6.0291,-6.0291,-6.0399,-6.0809,-6.0896,-6.0977,-6.1265,0.0,0.0,0.0,0.0,0.0,0.0,0.0,0.0,0.0,0.0,0.0,0.0,0.0,0.0,0.0,0.0,0.0,0.0,0.0,0.0,0.0,-5.7987,0.0,0.0,0.0,-5.5786,-5.5168,-5.4112,-5.3388,-5.2969,-5.2645,-5.2498,-5.2498,-5.2498,-5.2498,-5.2387,-5.1191,-5.0163,-4.9273,-4.9198,-4.9187,-4.921,-4.9341,-4.8973,-4.8556,0.0,0.0,0.0,0.0,0.0,0.0,0.0,-5.914,0.0,-5.887,-5.8988,-5.9253,-5.9745,-5.9794,-5.9986,-6.0482,-6.0357,-6.0365,-6.0681,-6.0608,-6.0635,-6.0841,-6.0945,0.0,-6.0862,-6.1029,-6.1267,-6.1543,0.0,0.0,-6.0008,0.0,0.0,-5.6796,0.0,-5.7192,0.0,0.0,0.0,-6.1454,-6.1751,-6.1915,-6.186,-6.1584,-6.1243,-6.101,-6.0915,-6.0432,-6.0093,-6.1714,-6.2149,-6.2149,-6.2599,-6.2585,-6.2449,-6.288,-6.2929,-6.2836,-6.2761,-6.198,-6.1106,-6.0862,-6.0004,-5.9248,-5.9401,-5.9416,-5.9576,-6.0118,-6.0219,-6.033,-6.0685,-6.0044,0.0,0.0,0.0,0.0,0.0,0.0,0.0,0.0,0.0,0.0,0.0,0.0,0.0,0.0,0.0,0.0,0.0,0.0,0.0,0.0,0.0,0.0,0.0,0.0,0.0,-5.4878,-5.4056,-5.3508,-5.3096,-5.2672,-5.2498,-5.2498,-5.2498,-5.2498,-5.2387,-5.1191,-5.0011,-4.9001,-4.9001,-4.9001,-4.8973,-4.856,-4.7931,-4.7454,0.0,-5.9906,0.0,0.0,-5.9502,0.0,-5.9758,-5.9434,-5.9345,-5.9931,-6.0057,-6.0148,-6.0284,-6.0275,-6.0285,-6.0285,-5.9906,-5.988,-6.0353,-6.016,-6.0179,-6.0495,-6.0908,-6.1048,-6.0902,-6.1265,-6.1873,0.0,0.0,0.0,0.0,0.0,0.0,0.0,0.0,0.0,0.0,0.0,-6.1824,-6.2253,-6.2636,-6.2805,-6.2755,-6.2515,-6.2184,-6.1842,-6.1091,-6.0555,-6.0326,-6.1824,-6.2149,-6.1987,-6.2132,-6.2042,-6.1877,-6.2344,-6.2378,-6.2178,-6.1863,-6.1161,-6.0361,-5.9595,-5.8847,-5.8351,-5.8557,-5.8601,-5.8781,-5.9379,-5.9595,-5.9733,-5.9816,-5.9488,0.0,0.0,0.0,0.0,0.0,0.0,0.0,0.0,0.0,0.0,0.0,0.0,0.0,0.0,0.0,-6.0885,-6.0809,-6.0775,0.0,0.0,0.0,-5.9268,-5.7851,0.0,-5.6355,0.0,-5.4,-5.3528,-5.3203,-5.2717,-5.2498,-5.2498,-5.2498,-5.2369,-5.2048,-5.1087,-5.0011,-4.9001,-4.9001,-4.9001,-4.8861,-4.7967,-4.7288,-4.6835,0.0,0.0,0.0,0.0,0.0,0.0,-5.9658,-5.914,-5.9006,-5.988,-6.0057,-6.0148,-6.0284,-6.0038,-5.9874,-5.9874,-5.9502,-5.927,-5.9342,-5.9654,-5.9836,-5.9887,-6.0933,-6.1534,-6.1506,-6.249,-6.309,0.0,0.0,0.0,0.0,0.0,0.0,0.0,0.0,0.0,0.0,-6.2178,-6.2781,-6.3308,-6.2935,-6.2805,-6.2686,-6.1492,-6.1397,-6.1787,-6.101,-6.1068,-6.149,-6.1376,-6.0933,-6.0633,-6.1823,-6.1712,-6.1239,-6.1877,-6.1618,-6.1117,-6.0937,-6.0541,-5.9951,-5.923,-5.8658,-5.8301,-5.8326,-5.8326,-5.84,-5.8723,-5.9276,-5.9463,-5.8722,-5.8835,-5.8517,0.0,0.0,0.0,0.0,0.0,0.0,0.0,0.0,0.0,0.0,0.0,0.0,0.0,0.0,-5.9047,-5.9212,-5.9109,-5.9027,-5.9006,0.0,-5.8239,-5.7892,-5.695,-5.634,-5.5996,-5.4424,-5.3683,-5.3606,-5.2831,-5.2498,-5.2498,-5.2498,-5.1866,-5.0858,-5.0751,-5.0011,-4.9001,-4.9001,-4.9001,-4.8798,-4.7422,-4.688,-4.662,0.0,0.0,0.0,0.0,0.0,0.0,0.0,-5.8732,-5.8855,-5.9681,-5.9534,-5.9432,-5.9502,-5.9901,-6.0167,-6.0167,-6.0226,-6.0486,-6.1047,-6.0976,-6.1152,-6.1633,-6.2127,-6.2376,-6.2376,-6.2795,-6.3435,0.0,0.0,0.0,0.0,0.0,0.0,0.0,0.0,-6.2879,-6.3544,-6.3494,-6.3487,-6.349,-6.328,-6.3062,-6.2755,-6.2219,-6.2166,-6.2184,-6.1109,-6.0754,-6.0754,-6.0202,-6.0388,-6.0831,-6.0831,-6.0651,-6.0547,-6.118,-6.1239,-6.0894,-6.0251,-5.9937,-5.9478,-5.8237,-5.7771,-5.766,-5.766,-5.766,-5.7737,-5.8076,-5.8535,-5.882,-5.8653,-5.8521,-5.8211,0.0,0.0,0.0,0.0,0.0,0.0,0.0,0.0,0.0,0.0,0.0,0.0,0.0,0.0,0.0,-5.8866,-5.8828,0.0,-5.8916,0.0,-5.8045,-5.7364,-5.6728,-5.6064,-5.5413,-5.4499,-5.3925,-5.3683,-5.3138,-5.2717,-5.2498,-5.2114,-5.1482,-5.0697,-5.0331,-4.9756,-4.9001,-4.9001,-4.8719,-4.8225,-4.7153,-4.6534,-4.5985,-5.9307,0.0,-5.9083,0.0,-5.8803,-5.8859,-5.8921,-5.8958,-5.9274,-6.0011,-5.9687,-5.944,-5.9661,-6.0185,-6.0598,-6.0598,-6.0855,-6.1293,-6.1901,-6.1883,-6.2135,-6.2704,-6.3062,0.0,-6.3274,-6.3522,-6.4104,-6.5052,-6.4745,0.0,0.0,0.0,0.0,0.0,-6.4613,-6.4597,-6.4972,-6.4552,-6.4138,-6.3766,-6.3561,-6.3233,-6.2755,-6.2585,-6.2464,-6.2166,-6.13,-6.0633,-6.0121,-5.9821,-6.0058,-6.0494,-6.0344,-6.0174,-6.0174,-6.1045,-6.1163,-6.0823,-5.9853,-5.9615,-5.9216,-5.7605,-5.7188,-5.7188,-5.7188,-5.7188,-5.7289,-5.7553,-5.7914,-5.8231,-5.8455,-5.8266,-5.8034,-5.7846,0.0,0.0,0.0,0.0,0.0,0.0,0.0,-5.81,-5.7676,0.0,0.0,0.0,0.0,0.0,0.0,0.0,0.0,0.0,0.0,0.0,0.0,-5.6341,-5.5756,-5.4971,-5.4514,-5.4158,-5.3851,-5.3367,-5.2875,-5.2452,-5.1884,-5.126,-5.0643,-5.0142,-4.9555,-4.9001,-4.9001,-4.8513,-4.7819,-4.7085,-4.6324,-4.5624,-5.8781,-5.8511,-5.8319,-5.8393,-5.8393,-5.8826,-5.9987,-6.0017,-6.0231,-6.1263,-6.087,-6.0673,-6.1218,-6.1111,-6.1001,-6.1001,-6.1057,-6.1076,-6.1119,-6.1864,-6.2307,0.0,0.0,-6.4172,-6.4172,-6.4955,-6.5466,-6.5686,0.0,0.0,-6.4408,0.0,-6.4519,-6.5586,-6.5586,-6.5737,-6.5951,-6.5284,-6.4738,-6.435,-6.3766,-6.3233,-6.2755,-6.2131,-6.1806,-6.1604,-6.1526,-6.0909,-6.0264,-6.0789,-6.0058,-5.9145,-6.0529,-6.0529,-6.0282,-6.1579,-6.1505,-6.0823,-5.9853,-5.9615,-5.9216,-5.7605,-5.7188,-5.7188,-5.7188,-5.7188,-5.7188,-5.7206,-5.7553,-5.7792,-5.7792,-5.8097,-5.8042,-5.7248,0.0,0.0,0.0,0.0,0.0,0.0,-5.7137,-5.6537,-5.6518,0.0,0.0,0.0,0.0,0.0,0.0,0.0,0.0,-5.6612,-5.6425,0.0,-5.601,-5.5673,-5.5408,-5.5183,-5.4591,-5.4315,-5.4281,-5.3468,-5.2875,-5.2452,-5.1884,-5.126,-5.0643,-5.0142,-4.9555,-4.9001,-4.9001,-4.8513,-4.7819,-4.7085,-4.6324,-4.5624,-5.8698,-5.8468,-5.8275,-5.8286,-5.8792,-5.9279,-5.9501,-5.9909,-6.0461,-6.1043,-6.0957,-6.1126,-6.1825,-6.1551,-6.1316,0.0,-6.1927,-6.2382,0.0,-6.3225,-6.369,-6.3979,-6.4667,-6.5012,-6.5012,-6.5261,-6.5485,-6.5705,0.0,0.0,0.0,-6.5839,-6.6023,-6.628,-6.6185,-6.6134,-6.6107,-6.5654,-6.5233,-6.4757,-6.4138,-6.3631,-6.3233,-6.2618,-6.2255,-6.2077,-6.1508,-6.1086,-6.0651,-5.9803,-5.9279,-5.896,-5.9412,-5.9113,-5.8858,-6.0219,-6.0139,-5.947,-5.9059,-5.8948,-5.8627,-5.7485,-5.7188,-5.7188,-5.7188,-5.7188,-5.7188,-5.7188,-5.7289,-5.7486,-5.7745,-5.7886,-5.7978,-5.7925,-5.8134,0.0,0.0,0.0,0.0,0.0,-5.5958,-5.5737,0.0,-5.5017,0.0,0.0,0.0,0.0,0.0,0.0,0.0,0.0,-5.6328,0.0,-5.5993,-5.5673,-5.5408,-5.5203,-5.4863,-5.4416,-5.387,-5.3348,-5.2875,-5.2434,-5.1432,-5.0858,-5.0643,-4.9698,-4.9168,-4.9001,-4.9001,-4.8242,-4.7153,-4.688,-4.6056,-4.4933,-5.8638,-5.8468,-5.8367,-5.8538,-5.9153,-5.9751,-6.025,-6.0748,-6.1261,-6.1838,-6.1697,-6.1795,-6.2409,-6.2044,0.0,-6.1935,-6.2641,-6.3205,-6.349,-6.3869,-6.4312,-6.4794,-6.5052,-6.5252,-6.5394,0.0,0.0,-6.5586,-6.5755,-6.6049,-6.6411,-6.6647,-6.6728,-6.6639,-6.6525,-6.6427,-6.6325,-6.6024,-6.5589,-6.5058,-6.4604,-6.4059,-6.3445,-6.3044,-6.2497,-6.1987,-6.1694,-6.101,-6.0139,-5.9803,-5.9163,-5.8651,-5.9163,-5.8651,-5.8154,-5.9596,-5.9482,-5.8781,-5.8365,-5.8054,-5.7637,-5.7011,-5.6863,-5.6915,-5.7138,-5.7188,-5.7188,-5.7188,-5.7188,-5.7307,-5.7553,-5.7583,-5.7631,-5.7849,-5.7895,-5.7648,-5.6974,0.0,0.0,0.0,0.0,0.0,0.0,-5.4597,0.0,0.0,0.0,0.0,0.0,0.0,0.0,-5.6328,-5.6345,0.0,-5.6108,-5.5824,-5.5535,-5.5314,-5.5028,-5.4565,-5.3925,-5.3508,-5.3096,-5.2672,-5.1515,-5.0911,-5.0643,-4.9698,-4.9229,-4.9001,-4.9001,-4.8113,-4.6811,-4.6811,-4.5841,-4.4572,-5.8577,-5.8443,0.0,0.0,-5.9532,0.0,-6.1929,-6.2151,-6.2456,-6.3352,-6.2861,-6.2563,-6.2812,-6.2585,-6.2467,-6.2552,0.0,0.0,0.0,-6.3869,-6.4273,-6.4739,-6.4829,-6.5019,-6.5394,-6.5394,-6.5394,-6.5394,-6.5866,-6.6167,-6.6377,-6.6602,-6.6681,-6.6708,-6.6635,-6.6597,-6.6574,-6.6309,-6.5884,-6.5329,-6.5089,-6.4442,-6.3587,-6.3427,-6.259,-6.1584,-6.206,-6.0855,-5.9279,-6.0511,-5.9626,-5.828,-5.9447,-5.8926,-5.8154,-5.9513,-5.9341,-5.8489,-5.7816,-5.7026,-5.6417,-5.6324,-5.6311,-5.6528,-5.7087,-5.7188,-5.7188,-5.7188,-5.7188,-5.7188,-5.7188,-5.7188,-5.7188,-5.7188,-5.7152,-5.6975,-5.6473,0.0,0.0,0.0,0.0,0.0,0.0,-5.4409,-5.4505,0.0,0.0,0.0,0.0,0.0,-5.6223,-5.6377,-5.6387,-5.6367,-5.6309,-5.6035,-5.575,-5.548,-5.5094,-5.4711,-5.4281,-5.387,-5.3468,-5.3036,-5.2024,-5.126,-5.0643,-5.0142,-4.9555,-4.9001,-4.9001,-4.8113,-4.688,-4.6811,-4.5913,-4.4648,0.0,0.0,-5.9208,-5.9218,-6.0453,-6.1551,-6.1967,-6.2303,-6.2616,-6.2898,-6.2378,-6.2042,-6.2185,-6.2238,-6.231,-6.2467,-6.2755,-6.2984,-6.2984,-6.3656,-6.4155,-6.4273,-6.4913,-6.5283,-6.5394,-6.5394,-6.5394,-6.5394,-6.5666,-6.592,-6.6187,-6.6431,-6.6603,-6.6708,-6.6689,-6.6649,-6.6574,-6.6309,-6.6129,-6.5947,-6.5429,-6.4978,-6.4585,-6.3986,-6.3305,-6.2677,-6.2567,-6.1987,-6.118,-6.0485,-5.9902,-5.938,-5.8598,-5.8154,-5.8082,-5.8909,-5.8256,-5.7192,-5.6923,-5.6292,-5.5827,-5.6212,-5.6653,-5.7018,-5.7188,-5.7188,-5.7188,-5.7188,-5.7188,-5.7188,-5.7188,-5.7188,-5.7188,-5.7188,-5.6681,-5.606,-5.5347,-5.4821,0.0,0.0,-5.3944,-5.4108,-5.4375,-5.4409,-5.4472,0.0,0.0,0.0,0.0,-5.5711,-5.5949,-5.6246,-5.6296,-5.6344,-5.6385,-5.6049,-5.5691,-5.5262,-5.5176,-5.4825,-5.4281,-5.387,-5.3468,-5.3036,-5.2024,-5.126,-5.0643,-5.0142,-4.9555,-4.9001,-4.9001,-4.845,-4.7556,-4.7017,-4.6182,-4.5348,-5.8974,-5.9375,-5.9893,-6.0162,-6.1169,-6.1964,-6.2236,-6.2361,-6.2397,-6.2449,-6.1987,-6.1746,-6.1913,-6.2096,-6.2257,-6.2362,-6.2622,-6.2755,-6.2823,-6.3427,-6.3911,-6.4096,-6.4756,-6.5201,-6.5394,-6.5394,-6.5394,-6.5394,-6.5613,-6.5827,-6.6108,-6.6338,-6.6556,-6.6741,-6.6719,-6.6699,-6.6681,-6.6477,-6.6338,-6.6217,-6.5868,-6.544,-6.4953,-6.4474,-6.3906,-6.3271,-6.288,-6.2342,-6.1694,-6.0772,-6.0219,-5.9774,-5.872,-5.8334,-5.8319,-5.7978,-5.7187,-5.621,-5.5809,-5.5125,-5.4703,-5.5277,-5.5887,-5.6456,-5.6758,-5.6811,-5.6863,-5.7138,-5.7188,-5.7188,-5.7188,-5.7188,-5.7188,-5.7188,-5.6518,-5.577,-5.52,-5.4529,0.0,-5.3459,-5.37,-5.3981,-5.4144,-5.4321,-5.4458,-5.4552,0.0,0.0,-5.5326,-5.5439,-5.5672,-5.614,-5.6316,-5.6384,-5.6345,-5.6044,-5.575,-5.5461,-5.5288,-5.4924,-5.4425,-5.3943,-5.3468,-5.3054,-5.2361,-5.1482,-5.0697,-5.0387,-4.9756,-4.9001,-4.9001,-4.8513,-4.7819,-4.7085,-4.6324,-4.5624,-5.9597,-5.9998,-6.0622,-6.1349,-6.1783,-6.2114,-6.2544,-6.2344,-6.215,-6.2042,-6.1728,-6.1633,-6.1802,-6.2005,-6.2203,-6.2362,-6.25,-6.2654,-6.2823,-6.3326,-6.3761,-6.4115,-6.4612,-6.5052,-6.5394,-6.5394,-6.5394,-6.5394,-6.5578,-6.5799,-6.6047,-6.627,-6.6497,-6.6748,-6.6722,-6.6757,-6.6797,-6.6668,-6.6505,-6.6347,-6.629,-6.5823,-6.5168,-6.5009,-6.4476,-6.3705,-6.3307,-6.2572,-6.1751,-6.1265,-6.0754,-6.0076,-5.9279,-5.8959,-5.8666,-5.7293,-5.6438,-5.5655,-5.4821,-5.411,-5.3783,-5.4281,-5.4887,-5.5502,-5.6035,-5.6257,-5.642,-5.6984,-5.7138,-5.7188,-5.7188,-5.7188,-5.7188,-5.7188,-5.6428,-5.5674,-5.5285,0.0,-5.3738,-5.344,-5.3662,-5.3851,-5.3981,-5.4233,-5.4409,-5.4409,-5.4424,-5.4673,-5.5167,-5.5243,-5.5512,-5.6096,-5.6344,-5.6344,-5.6111,-5.5874,-5.5632,-5.5401,-5.503,-5.4656,-5.4201,-5.3734,-5.3283,-5.2913,-5.2527,-5.1701,-5.068,-5.0589,-4.9953,-4.9001,-4.8861,-4.845,-4.7819,-4.6949,-4.6253,-4.5551,-6.003,-6.0655,-6.1377,-6.1892,-6.2435,-6.2757,-6.2636,-6.2344,-6.215,-6.2042,-6.1597,-6.1444,-6.1746,-6.1858,-6.195,-6.2203,-6.2362,-6.2519,-6.2755,-6.3543,-6.4016,-6.4115,-6.4879,-6.5333,-6.5394,-6.5394,-6.5394,-6.5394,-6.5435,-6.555,-6.5779,-6.6032,-6.6295,-6.6552,-6.6715,-6.6797,-6.6797,-6.6711,-6.6627,-6.6555,-6.6532,-6.6334,-6.5988,-6.5859,-6.5226,-6.4425,-6.4369,-6.3696,-6.2757,-6.1947,-6.1551,-6.1189,-6.0121,-5.9336,-5.8671,-5.7838,-5.7007,-5.613,-5.4924,-5.4461,-5.4281,-5.4391,-5.4887,-5.5443,-5.5502,-5.5904,-5.6311,-5.642,-5.6863,-5.7188,-5.7188,-5.7188,-5.7188,-5.7188,-5.5993,-5.5033,-5.4955,0.0,-5.2889,-5.3345,-5.3447,-5.37,-5.4268,-5.4356,-5.4409,-5.4409,-5.4597,-5.4876,-5.5193,-5.5412,-5.5747,-5.6169,-5.6285,-5.5962,-5.5211,-5.5158,-5.4626,-5.359,-5.3421,-5.3035,-5.2481,-5.2559,-5.2414,-5.2045,-5.1831,-5.1312,-5.0626,-5.0181,-4.9598,-4.894,-4.8306,-4.8015,-4.7754,-4.6378,-4.5769,-4.5551,-6.0998,-6.1507,-6.2089,-6.2736,-6.3067,-6.2995,-6.2149,-6.2078,-6.1859,-6.1292,-6.1252,-6.1386,-6.1501,-6.1672,-6.1895,-6.2096,-6.2203,-6.2415,-6.2654,-6.3568,-6.4096,-6.4096,-6.4947,-6.5394,-6.5394,-6.5394,-6.5394,-6.5394,-6.5394,-6.5485,-6.5705,-6.5839,-6.6051,-6.6353,-6.6537,-6.6655,-6.6697,-6.6738,-6.6742,-6.6697,-6.6633,-6.6465,-6.6251,-6.6148,-6.5697,-6.5104,-6.4742,-6.4199,-6.3581,-6.2763,-6.2336,-6.1987,-6.1149,-6.016,-5.9115,-5.8035,-5.6842,-5.5732,-5.475,-5.4428,-5.4328,-5.4011,-5.4141,-5.4443,-5.4782,-5.5367,-5.5904,-5.6257,-5.6758,-5.7188,-5.7188,-5.7188,-5.7062,-5.6609,-5.5631,0.0,0.0,-5.3241,-5.2618,-5.2875,-5.3072,-5.3363,-5.3833,-5.4017,-5.4198,-5.4409,-5.4486,-5.4776,-5.5167,-5.5317,-5.5605,-5.6072,-5.5838,-5.5268,-5.4356,-5.4349,-5.3967,-5.3205,-5.3061,-5.2565,-5.1782,-5.178,-5.1706,-5.1559,-5.1155,-5.087,-5.0643,-5.0142,-4.9555,-4.894,-4.8161,-4.7885,-4.7754,-4.6237,-4.5697,-4.5551,-6.1885,-6.2159,-6.257,-6.3395,-6.349,-6.2988,-6.1638,-6.1748,-6.1654,-6.0732,-6.0974,-6.127,-6.1328,-6.1559,-6.1728,-6.1877,-6.2042,-6.2238,-6.2449,-6.3344,-6.3934,-6.4096,-6.4947,-6.5394,-6.5383,-6.5394,-6.5394,-6.5394,-6.5394,-6.5475,-6.5621,-6.5705,-6.59,-6.6147,-6.6368,-6.6509,-6.6605,-6.6702,-6.6773,-6.6797,-6.6687,-6.6537,-6.638,-6.6318,-6.6031,-6.5628,-6.5157,-6.4693,-6.4236,-6.3643,-6.3178,-6.2732,-6.1946,-6.0865,-5.9665,-5.8388,-5.6967,-5.5658,-5.4826,-5.4641,-5.4534,-5.4028,-5.3915,-5.4093,-5.4534,-5.5129,-5.5733,-5.6201,-5.6758,-5.7188,-5.7188,-5.7188,-5.6935,-5.612,0.0,0.0,0.0,-5.3005,-5.2544,-5.2618,-5.2893,-5.3198,-5.3487,-5.3814,-5.4108,-5.439,-5.4458,-5.4704,-5.5167,-5.5268,-5.5346,-5.5473,-5.5265,-5.4629,-5.3518,-5.3495,-5.3194,-5.2627,-5.2466,-5.1903,-5.0937,-5.091,-5.0869,-5.0697,-5.0181,-5.0097,-5.038,-4.9729,-4.924,-4.894,-4.8032,-4.7622,-4.7489,-4.5969,-4.5421,-4.5348,-6.2252,-6.2382,-6.2589,-6.3518,-6.3509,-6.2825,-6.1415,-6.1561,-6.1501,-6.0732,-6.0914,-6.1152,-6.1252,-6.131,-6.1444,-6.1633,-6.1895,-6.2042,-6.2042,-6.2763,-6.3435,-6.4056,-6.4947,-6.5383,-6.5309,-6.5383,-6.5394,-6.5394,-6.5394,-6.5394,-6.5435,-6.5749,-6.5897,-6.5923,-6.6217,-6.6419,-6.6595,-6.6605,-6.6687,-6.6797,-6.6796,-6.6745,-6.6661,-6.6595,-6.6314,-6.5973,-6.6068,-6.552,-6.4704,-6.45,-6.4056,-6.3442,-6.2234,-6.1062,-5.998,-5.9164,-5.801,-5.6793,-5.5658,-5.5325,-5.5325,-5.5266,-5.5284,-5.5266,-5.5325,-5.5791,-5.6257,-5.6311,-5.6758,-5.7188,-5.7188,-5.7188,-5.6935,-5.612,0.0,0.0,-5.382,-5.3005,-5.2618,-5.2912,-5.3198,-5.3487,-5.3814,-5.4163,-5.4356,-5.4409,-5.4629,-5.4905,-5.5193,-5.5455,-5.5054,-5.3911,-5.4607,-5.4232,-5.2614,-5.2609,-5.2017,-5.0874,-5.0699,-5.0133,-4.9289,-4.9831,-4.9728,-4.9086,-4.8706,-4.8924,-4.9485,-4.8453,-4.8453,-4.8861,-4.7422,-4.688,-4.6673,-4.52,-4.4648,-4.4648,-6.2801,-6.3299,-6.3651,-6.3724,-6.3693,-6.3028,-6.1149,-6.1221,-6.114,-6.0405,-6.0609,-6.0914,-6.1152,-6.1252,-6.1328,-6.1386,-6.1672,-6.1895,-6.1987,-6.2631,-6.3371,-6.4254,-6.4966,-6.534,-6.5309,-6.5321,-6.5352,-6.5394,-6.5394,-6.5394,-6.5394,-6.5513,-6.5632,-6.5737,-6.5945,-6.6128,-6.629,-6.6378,-6.6516,-6.6681,-6.6633,-6.6678,-6.675,-6.6687,-6.6527,-6.6281,-6.6137,-6.5807,-6.5427,-6.5104,-6.4569,-6.3909,-6.2919,-6.1626,-6.0259,-5.8943,-5.8244,-5.7737,-5.7065,-5.6438,-5.5848,-5.5502,-5.5385,-5.5385,-5.5385,-5.5848,-5.6311,-5.6311,-5.6758,-5.7188,-5.7188,-5.679,-5.621,-5.5432,0.0,-5.3874,-5.3078,-5.2679,-5.2544,-5.2663,-5.298,-5.3281,-5.3565,-5.3907,-5.4198,-5.439,-5.4661,-5.4933,-5.5193,-5.5184,-5.4725,-5.3732,-5.3541,-5.2871,-5.171,-5.1645,-5.1271,-5.0507,-5.0425,-4.9886,-4.8915,-4.9148,-4.9139,-4.8826,-4.8019,-4.8117,-4.8785,-4.8121,-4.8088,-4.8236,-4.7191,-4.6811,-4.6604,-4.5142,-4.4572,-4.4572,-6.311,-6.3811,-6.4218,-6.3784,-6.3556,-6.2774,-6.0838,-6.0711,-6.0626,-5.9943,-6.0297,-6.0671,-6.0914,-6.1152,-6.127,-6.127,-6.1501,-6.1728,-6.1877,-6.2663,-6.3505,-6.4389,-6.5019,-6.529,-6.5277,-6.5309,-6.5352,-6.5383,-6.5394,-6.5394,-6.5394,-6.5425,-6.5494,-6.5608,-6.5807,-6.5958,-6.6108,-6.6202,-6.6349,-6.6513,-6.6522,-6.6614,-6.6745,-6.6734,-6.6653,-6.6536,-6.6277,-6.6064,-6.5868,-6.5625,-6.4908,-6.4057,-6.3208,-6.1732,-6.0017,-5.8818,-5.8351,-5.8257,-5.8006,-5.7431,-5.6757,-5.6111,-5.5961,-5.5961,-5.5961,-5.6311,-5.6582,-5.6582,-5.6915,-5.7188,-5.7188,-5.6536,-5.5758,-5.5015,-5.4218,-5.3422,-5.2607,-5.2572,-5.2663,-5.2663,-5.2937,-5.324,-5.3526,-5.3776,-5.4036,-5.4356,-5.4584,-5.4722,-5.4785,-5.4592,-5.413,-5.3344,-5.2503,-5.1779,-5.121,-5.1125,-5.087,-5.0404,-5.0404,-4.9834,-4.8816,-4.8816,-4.8715,-4.8446,-4.7346,-4.7309,-4.7979,-4.7404,-4.7496,-4.777,-4.6831,-4.6617,-4.6604,-4.5142,-4.4572,-4.4572,-6.3106,-6.3799,-6.4126,-6.3494,-6.2974,-6.208,-6.044,-6.0111,-5.9844,-5.9369,-6.0025,-6.0609,-6.0609,-6.0914,-6.1111,-6.1093,-6.1211,-6.1386,-6.1577,-6.2855,-6.3869,-6.4464,-6.5071,-6.5352,-6.518,-6.5321,-6.5383,-6.5309,-6.5383,-6.5394,-6.5394,-6.5465,-6.5523,-6.5608,-6.5747,-6.5895,-6.6108,-6.6108,-6.6185,-6.6329,-6.6521,-6.6595,-6.6615,-6.6747,-6.6757,-6.6691,-6.6639,-6.6295,-6.5915,-6.5987,-6.5103,-6.3847,-6.3054,-6.1197,-5.9231,-5.8819,-5.8494,-5.8301,-5.8301,-5.8301,-5.8123,-5.737,-5.7206,-5.7188,-5.7188,-5.7188,-5.7188,-5.7188,-5.7188,-5.7188,-5.7188,-5.6536,-5.574,-5.5015,-5.4218,-5.3422,-5.2607,-5.2779,-5.2999,-5.2999,-5.324,-5.3526,-5.387,-5.3907,-5.4017,-5.4356,-5.4409,-5.4252,-5.3938,-5.3725,-5.3266,-5.2522,-5.1584,-5.1138,-5.1196,-5.1138,-5.087,-5.0404,-5.0404,-4.9834,-4.8816,-4.8816,-4.8402,-4.7657,-4.6566,-4.6537,-4.7121,-4.6144,-4.6583,-4.7703,-4.6274,-4.6164,-4.6604,-4.5142,-4.4587,-4.4587,-6.3366,-6.3957,-6.424,-6.3828,-6.3405,-6.2493,-6.0519,-6.0139,-5.9937,-5.9369,-5.952,-5.9896,-6.0547,-6.0671,-6.0854,-6.1093,-6.1211,-6.1523,-6.2077,-6.2951,-6.368,-6.4214,-6.4901,-6.5245,-6.518,-6.5277,-6.5352,-6.5383,-6.5394,-6.5394,-6.5394,-6.5425,-6.5484,-6.5523,-6.5627,-6.5736,-6.589,-6.5938,-6.6041,-6.6185,-6.6334,-6.6477,-6.6605,-6.6756,-6.6791,-6.6777,-6.6747,-6.6628,-6.6468,-6.642,-6.5586,-6.4245,-6.2432,-6.0981,-5.9897,-5.9798,-5.9703,-5.9526,-5.9103,-5.9008,-5.8814,-5.8131,-5.7821,-5.7601,-5.7601,-5.7388,-5.7289,-5.7534,-5.7406,-5.7307,-5.7553,-5.6316,-5.516,-5.4943,-5.3963,-5.3115,-5.2904,-5.3091,-5.3263,-5.3263,-5.3545,-5.3776,-5.3907,-5.4108,-5.4352,-5.4661,-5.5026,-5.504,-5.4612,-5.4009,-5.3336,-5.2603,-5.1703,-5.1235,-5.1196,-5.1041,-5.0773,-5.0404,-5.0404,-4.9834,-4.8816,-4.8816,-4.8402,-4.7657,-4.6566,-4.6239,-4.6385,-4.5922,-4.5631,-4.5445,-4.5471,-4.5224,-4.4843,-4.4372,-4.4205,-4.405,-6.3352,-6.4001,-6.4393,-6.4323,-6.3663,-6.2549,-6.0764,-6.0141,-5.9596,-5.9098,-5.9183,-5.9502,-6.0153,-6.0423,-6.0671,-6.0854,-6.1152,-6.1544,-6.2164,-6.2836,-6.3461,-6.4016,-6.465,-6.5061,-6.5199,-6.5277,-6.5309,-6.5321,-6.5352,-6.5352,-6.5352,-6.5413,-6.5425,-6.5494,-6.5552,-6.5646,-6.5793,-6.5846,-6.5933,-6.6041,-6.6167,-6.6287,-6.6425,-6.6633,-6.6726,-6.6735,-6.6787,-6.6757,-6.6699,-6.6687,-6.5703,-6.4131,-6.2066,-6.0985,-6.0421,-6.0412,-6.03,-6.0142,-5.9741,-5.9644,-5.9545,-5.9158,-5.8508,-5.8006,-5.8006,-5.7821,-5.7708,-5.796,-5.7679,-5.7443,-5.751,-5.6181,-5.4982,-5.4793,-5.3866,-5.3175,-5.3175,-5.3425,-5.3604,-5.3604,-5.3776,-5.3944,-5.4072,-5.4265,-5.4552,-5.5017,-5.5446,-5.5278,-5.432,-5.3954,-5.3268,-5.2114,-5.1554,-5.1232,-5.1205,-5.096,-5.0681,-5.0404,-5.0278,-4.9709,-4.8781,-4.8658,-4.8269,-4.7657,-4.6566,-4.6098,-4.6052,-4.5384,-4.4825,-4.4381,-4.4463,-4.4151,-4.3722,-4.3609,-4.3331,-4.3019,-6.3135,-6.3882,-6.4469,-6.4945,-6.3842,-6.2456,-6.128,-6.0105,-5.9197,-5.8736,-5.9081,-5.9485,-5.9683,-6.028,-6.0609,-6.0671,-6.1016,-6.1487,-6.1914,-6.2457,-6.3094,-6.3752,-6.435,-6.4815,-6.5147,-6.5245,-6.5277,-6.5213,-6.5277,-6.5309,-6.5309,-6.5383,-6.5425,-6.5494,-6.5494,-6.5599,-6.5767,-6.5793,-6.582,-6.5903,-6.6044,-6.6108,-6.6129,-6.6452,-6.6585,-6.6625,-6.6746,-6.6745,-6.6698,-6.6597,-6.5433,-6.3689,-6.1889,-6.1109,-6.084,-6.0787,-6.0561,-6.0296,-6.0269,-6.0242,-6.0234,-6.0198,-5.9319,-5.8437,-5.8412,-5.8344,-5.8301,-5.8344,-5.8097,-5.7675,-5.7223,-5.6158,-5.52,-5.4672,-5.3942,-5.3447,-5.3447,-5.3738,-5.3944,-5.3944,-5.3981,-5.4089,-5.4424,-5.4425,-5.4723,-5.5408,-5.5686,-5.5113,-5.3435,-5.3706,-5.3088,-5.1354,-5.1248,-5.1198,-5.1198,-5.0863,-5.0606,-5.0404,-5.0083,-4.9523,-4.8781,-4.8495,-4.8111,-4.7657,-4.6566,-4.6098,-4.6017,-4.4818,-4.4256,-4.4138,-4.3283,-4.2968,-4.2878,-4.2846,-4.2299,-4.1627,-6.2926,-6.3449,-6.3956,-6.5063,-6.4317,-6.3163,-6.1972,-6.1106,-6.0406,-5.9885,-6.0048,-6.0379,-6.0789,-6.0626,-6.0704,-6.1275,-6.1193,-6.1193,-6.1275,-6.1842,-6.242,-6.2951,-6.3766,-6.4388,-6.4815,-6.5109,-6.5309,-6.5277,-6.5352,-6.5383,-6.5383,-6.5394,-6.5394,-6.5425,-6.5465,-6.5523,-6.5571,-6.572,-6.5793,-6.5846,-6.6022,-6.6108,-6.6109,-6.6303,-6.6445,-6.6595,-6.6634,-6.6707,-6.6566,-6.5215,-6.4453,-6.3764,-6.2019,-6.1374,-6.1276,-6.1247,-6.1194,-6.1054,-6.0751,-6.0653,-6.0605,-6.0269,-5.9987,-5.9658,-5.9177,-5.8691,-5.8388,-5.8624,-5.8412,-5.8061,-5.7602,-5.6561,-5.552,-5.4732,-5.416,-5.3776,-5.3776,-5.4072,-5.4268,-5.4268,-5.4482,-5.4623,-5.4704,-5.5187,-5.5543,-5.5778,-5.6031,-5.5481,-5.386,-5.3857,-5.3097,-5.1362,-5.1295,-5.1222,-5.1125,-5.0889,-5.0643,-5.0404,-5.0202,-4.9674,-4.8816,-4.8711,-4.8345,-4.7657,-4.6566,-4.6098,-4.6017,-4.4944,-4.3763,-4.2526,-4.2895,-4.2138,-4.1036,-4.1566,-4.1166,-4.0415,-6.2484,-6.3107,-6.3715,-6.5307,-6.4963,-6.4049,-6.2722,-6.1942,-6.1142,-6.0291,-6.0264,-6.0529,-6.0891,-6.0909,-6.1045,-6.143,-6.1257,-6.1216,-6.135,-6.2041,-6.2645,-6.2959,-6.3742,-6.4309,-6.4633,-6.4974,-6.5194,-6.5245,-6.5321,-6.5352,-6.5352,-6.5383,-6.5394,-6.5394,-6.5454,-6.5465,-6.5494,-6.5599,-6.572,-6.582,-6.5919,-6.5971,-6.6039,-6.6148,-6.627,-6.6368,-6.6419,-6.6565,-6.6447,-6.4789,-6.4223,-6.39,-6.2109,-6.1511,-6.1486,-6.1413,-6.1397,-6.1354,-6.1136,-6.105,-6.0995,-6.0795,-6.0564,-6.0307,-5.9836,-5.9477,-5.9213,-5.9289,-5.8689,-5.7973,-5.7379,-5.6309,-5.5336,-5.48,-5.4387,-5.4161,-5.4296,-5.4482,-5.4597,-5.4597,-5.4879,-5.5152,-5.526,-5.5634,-5.5924,-5.6091,-5.6267,-5.5677,-5.3997,-5.3902,-5.3093,-5.1299,-5.1134,-5.1042,-5.0964,-5.0662,-5.0352,-5.003,-4.98,-4.9375,-4.8781,-4.844,-4.8053,-4.7657,-4.6566,-4.5915,-4.5561,-4.4763,-4.335,-4.1722,-4.2202,-4.1439,-4.0154,-4.074,-4.0601,-3.9931,-6.179,-6.2573,-6.2665,-6.2453,-6.3886,-6.3948,-6.055,-6.1337,-6.1985,-6.1013,-6.089,-6.0925,-6.1095,-6.1283,-6.1394,-6.143,-6.1394,-6.1451,-6.1786,-6.2464,-6.2984,-6.3233,-6.3755,-6.4169,-6.4463,-6.4779,-6.5042,-6.518,-6.5277,-6.5309,-6.534,-6.5364,-6.5394,-6.5394,-6.5394,-6.5425,-6.5465,-6.5494,-6.5618,-6.5767,-6.5793,-6.582,-6.5897,-6.6019,-6.6067,-6.6109,-6.6237,-6.6406,-6.6322,-6.4749,-6.421,-6.3898,-6.2114,-6.1538,-6.1522,-6.145,-6.1427,-6.1412,-6.142,-6.1383,-6.1355,-6.131,-6.106,-6.0745,-6.0455,-6.0315,-6.0132,-5.9931,-5.8954,-5.7937,-5.719,-5.6047,-5.5149,-5.4848,-5.4597,-5.4552,-5.4746,-5.4844,-5.4912,-5.4912,-5.5246,-5.5599,-5.5862,-5.596,-5.609,-5.6324,-5.6444,-5.5736,-5.3987,-5.3886,-5.3034,-5.1181,-5.0913,-5.074,-5.0641,-5.0283,-4.9891,-4.9495,-4.9033,-4.8739,-4.8567,-4.8053,-4.7639,-4.7363,-4.6501,-4.568,-4.4919,-4.4378,-4.3031,-4.1343,-4.1494,-4.0842,-3.9685,-3.9772,-3.9748,-3.9318,-6.0599,-6.1412,-5.8855,-4.982,-5.7326,-6.0744,-4.9288,-5.681,-6.375,-6.3568,-6.3504,-6.3338,-6.3011,-6.2424,-6.1823,-6.1261,-6.1656,-6.1969,-6.2132,-6.2238,-6.2552,-6.3032,-6.328,-6.358,-6.3981,-6.4483,-6.4886,-6.518,-6.5277,-6.5321,-6.5383,-6.5413,-6.5394,-6.5394,-6.5394,-6.5394,-6.5425,-6.5484,-6.5523,-6.5571,-6.572,-6.5813,-6.582,-6.5903,-6.5994,-6.6089,-6.6129,-6.6267,-6.6162,-6.4451,-6.3871,-6.3557,-6.1861,-6.1291,-6.1281,-6.1428,-6.1495,-6.1494,-6.1559,-6.1561,-6.154,-6.1417,-6.1353,-6.1296,-6.1253,-6.0689,-6.0198,-6.0142,-5.9464,-5.8616,-5.773,-5.666,-5.5643,-5.4909,-5.4776,-5.4765,-5.4806,-5.5103,-5.5313,-5.5313,-5.5612,-5.5946,-5.62,-5.6345,-5.6425,-5.6465,-5.6486,-5.5711,-5.3905,-5.3825,-5.2901,-5.091,-5.0817,-5.0562,-5.0035,-4.9808,-4.9514,-4.9146,-4.8181,-4.7688,-4.7666,-4.8056,-4.7548,-4.631,-4.6147,-4.5493,-4.4355,-4.3831,-4.2707,-4.1276,-4.1127,-4.0531,-3.9538,-3.7915,-3.7664,-3.7896,-5.7182,-4.6185,-3.709,-4.3445,-4.2084,-3.8707,-3.4571,-4.5084,-5.3389,-5.2984,-5.9434,-6.3934,-6.355,-6.264,-6.1987,-6.1897,-6.1878,-6.1951,-6.2291,-6.2534,-6.2805,-6.3194,-6.3437,-6.3643,-6.3878,-6.4249,-6.4558,-6.4939,-6.5161,-6.5309,-6.5352,-6.5364,-6.5394,-6.5394,-6.5394,-6.5394,-6.5394,-6.5425,-6.5484,-6.5494,-6.5627,-6.5747,-6.5813,-6.5872,-6.5933,-6.5994,-6.6067,-6.6167,-6.6073,-6.492,-6.4212,-6.3576,-6.2354,-6.1686,-6.139,-6.1481,-6.1549,-6.1627,-6.1648,-6.1621,-6.1592,-6.1529,-6.1465,-6.1393,-6.14,-6.1136,-6.0803,-6.0586,-5.9515,-5.8423,-5.7806,-5.6518,-5.55,-5.5295,-5.5134,-5.5091,-5.5339,-5.5505,-5.5719,-5.5983,-5.6155,-5.6258,-5.6308,-5.6421,-5.6442,-5.6347,-5.6249,-5.5461,-5.3669,-5.3455,-5.2547,-5.0641,-5.0498,-5.024,-4.9743,-4.957,-4.9209,-4.8639,-4.7868,-4.75,-4.75,-4.7176,-4.6699,-4.6049,-4.5373,-4.4575,-4.3697,-4.3147,-4.2141,-4.0904,-4.1091,-4.0547,-3.9451,-3.7587,-3.7063,-3.7079]}]]